[[{"header":{"parameterUnit":"m.s-1","parameterCategory":1,"la1":30.6,"la2":29.2853,"lo1":-89.7004,"lo2":-87.6739,"dx":0.0162,"dy":0.0183,"nx":112,"ny":82,"refTime":"2022-12-23T06:00:00:Z","depth":0,"parameterNumber":2,"parameterNumberName":"U-component_of_WINDS"},"data":[0.0,0.0,0.0,0.0,0.0,0.0,0.0,0.0,0.0,0.0,0.0,0.0,0.0,0.0,0.0,0.0,0.0,0.0,0.0,0.0,0.0,0.0,0.0,0.0,0.0,0.0,0.0,0.0,0.0,0.0,0.0,0.0,0.0,0.0,0.0,0.0,0.0,0.0,0.0,0.0,0.0,0.0,0.0,0.0,0.0,0.0,0.0,0.0,0.0,0.0,0.0,0.0,0.0,0.0,0.0,0.0,0.0,0.0,0.0,0.0,0.0,0.0,0.0,0.0,0.0,0.0,0.0,0.0,0.0,0.0,0.0,0.0,0.0,0.0,0.0,0.0,0.0,0.0,0.0,0.0,0.0,0.0,0.0,0.0,0.0,0.0,0.0,0.0,0.0,0.0,4.0561,4.3064,4.6718,4.8809,4.8286,4.8235,4.4783,3.6761,0.0,0.0,0.0,0.0,0.0,0.0,0.0,0.0,0.0,0.0,0.0,0.0,0.0,0.0,0.0,0.0,0.0,0.0,0.0,0.0,0.0,0.0,0.0,0.0,0.0,0.0,0.0,0.0,0.0,0.0,0.0,0.0,0.0,0.0,0.0,0.0,0.0,0.0,0.0,0.0,0.0,0.0,0.0,0.0,0.0,0.0,0.0,0.0,0.0,0.0,0.0,0.0,0.0,0.0,0.0,0.0,0.0,0.0,0.0,0.0,0.0,0.0,0.0,0.0,0.0,0.0,0.0,0.0,0.0,0.0,0.0,0.0,0.0,0.0,0.0,0.0,0.0,0.0,0.0,0.0,0.0,0.0,0.0,0.0,0.0,0.0,0.0,0.0,0.0,0.0,0.0,0.0,0.0,0.0,0.0,0.0,0.0,0.0,0.0,0.0,0.0,0.0,0.0,0.0,4.002,4.7225,4.8578,4.9161,4.9666,4.9657,4.6645,3.9743,0.0,0.0,0.0,0.0,0.0,0.0,0.0,0.0,0.0,0.0,0.0,0.0,0.0,0.0,0.0,0.0,0.0,0.0,0.0,0.0,0.0,0.0,0.0,0.0,0.0,0.0,0.0,0.0,0.0,0.0,0.0,0.0,0.0,0.0,0.0,0.0,0.0,0.0,0.0,0.0,0.0,0.0,0.0,0.0,0.0,0.0,0.0,0.0,0.0,0.0,0.0,0.0,0.0,0.0,0.0,0.0,0.0,0.0,0.0,0.0,0.0,0.0,0.0,0.0,0.0,0.0,0.0,0.0,0.0,0.0,0.0,0.0,0.0,0.0,0.0,0.0,0.0,0.0,0.0,0.0,0.0,0.0,0.0,0.0,0.0,0.0,0.0,0.0,0.0,0.0,0.0,0.0,0.0,0.0,0.0,0.0,0.0,0.0,0.0,0.0,0.0,0.0,0.0,3.8294,4.2151,4.8342,4.9018,4.9256,4.9919,4.9966,4.7061,4.0135,3.7782,0.0,0.0,0.0,0.0,0.0,0.0,0.0,0.0,0.0,0.0,0.0,0.0,0.0,0.0,0.0,0.0,0.0,0.0,0.0,0.0,0.0,0.0,0.0,0.0,0.0,0.0,0.0,0.0,0.0,0.0,0.0,0.0,0.0,0.0,0.0,0.0,0.0,0.0,0.0,0.0,0.0,0.0,0.0,0.0,0.0,0.0,0.0,0.0,0.0,0.0,0.0,0.0,0.0,0.0,0.0,0.0,0.0,0.0,0.0,0.0,0.0,0.0,0.0,0.0,0.0,0.0,0.0,0.0,0.0,0.0,0.0,0.0,0.0,0.0,0.0,0.0,0.0,0.0,0.0,0.0,0.0,0.0,0.0,0.0,0.0,0.0,0.0,0.0,0.0,0.0,0.0,0.0,0.0,0.0,0.0,0.0,0.0,0.0,0.0,0.0,0.0,0.0,4.2929,4.5432,4.8883,4.9424,4.9671,4.9997,5.0367,4.7317,3.9882,3.8437,0.0,0.0,0.0,0.0,0.0,0.0,0.0,0.0,0.0,0.0,0.0,0.0,0.0,0.0,0.0,0.0,0.0,0.0,0.0,0.0,0.0,0.0,0.0,0.0,0.0,0.0,0.0,0.0,0.0,0.0,0.0,0.0,0.0,0.0,0.0,0.0,0.0,0.0,0.0,0.0,0.0,0.0,0.0,0.0,0.0,0.0,0.0,0.0,0.0,0.0,0.0,0.0,0.0,0.0,0.0,0.0,0.0,0.0,0.0,0.0,0.0,0.0,0.0,0.0,0.0,0.0,0.0,0.0,0.0,0.0,0.0,0.0,0.0,0.0,0.0,0.0,0.0,0.0,0.0,0.0,0.0,0.0,0.0,0.0,0.0,0.0,0.0,0.0,0.0,0.0,0.0,0.0,0.0,0.0,0.0,0.0,0.0,0.0,0.0,0.0,0.0,0.0,4.4857,4.9661,4.9965,5.0642,5.0777,5.013,5.1302,4.8338,3.9588,3.876,0.0,0.0,0.0,0.0,0.0,0.0,0.0,0.0,0.0,0.0,0.0,0.0,0.0,0.0,0.0,0.0,0.0,0.0,0.0,0.0,0.0,0.0,0.0,0.0,0.0,0.0,0.0,0.0,0.0,0.0,0.0,0.0,0.0,0.0,0.0,0.0,0.0,0.0,0.0,0.0,0.0,0.0,0.0,0.0,0.0,0.0,0.0,0.0,0.0,0.0,0.0,0.0,0.0,0.0,0.0,0.0,0.0,0.0,0.0,0.0,0.0,0.0,0.0,0.0,0.0,0.0,0.0,0.0,0.0,0.0,0.0,0.0,0.0,0.0,0.0,0.0,0.0,0.0,0.0,0.0,0.0,0.0,0.0,0.0,0.0,0.0,0.0,0.0,0.0,0.0,0.0,0.0,0.0,0.0,0.0,0.0,0.0,0.0,0.0,0.0,0.0,0.0,4.3301,4.7733,5.0507,5.1048,5.1492,5.2103,5.2212,4.9017,4.1538,0.0,0.0,0.0,0.0,0.0,0.0,0.0,0.0,0.0,0.0,0.0,0.0,0.0,0.0,0.0,0.0,0.0,0.0,0.0,0.0,0.0,0.0,0.0,0.0,0.0,0.0,0.0,0.0,0.0,0.0,0.0,0.0,0.0,0.0,0.0,0.0,0.0,0.0,0.0,0.0,0.0,0.0,0.0,0.0,0.0,0.0,0.0,0.0,0.0,0.0,0.0,0.0,0.0,0.0,0.0,0.0,0.0,0.0,0.0,0.0,0.0,0.0,0.0,0.0,0.0,0.0,0.0,0.0,0.0,0.0,0.0,0.0,0.0,0.0,0.0,0.0,0.0,0.0,0.0,0.0,0.0,0.0,0.0,0.0,0.0,0.0,0.0,0.0,0.0,0.0,0.0,0.0,0.0,0.0,0.0,0.0,0.0,0.0,0.0,0.0,0.0,0.0,3.8497,4.3504,4.7936,5.1217,5.2221,5.2888,5.3366,5.3583,5.0331,4.2486,0.0,0.0,0.0,0.0,0.0,0.0,0.0,0.0,0.0,0.0,0.0,0.0,0.0,0.0,0.0,0.0,0.0,0.0,0.0,0.0,0.0,0.0,0.0,0.0,0.0,0.0,0.0,0.0,0.0,0.0,0.0,0.0,0.0,0.0,0.0,0.0,0.0,0.0,0.0,0.0,0.0,0.0,0.0,0.0,0.0,0.0,0.0,0.0,0.0,0.0,0.0,0.0,0.0,0.0,0.0,0.0,0.0,0.0,0.0,0.0,0.0,0.0,0.0,0.0,0.0,0.0,0.0,0.0,0.0,0.0,0.0,0.0,0.0,0.0,0.0,0.0,0.0,0.0,0.0,0.0,0.0,0.0,0.0,0.0,0.0,0.0,0.0,0.0,0.0,0.0,0.0,0.0,0.0,0.0,0.0,0.0,0.0,0.0,0.0,0.0,0.0,0.0,3.8937,4.6177,5.1522,5.2232,5.4441,5.5223,5.3697,5.5612,5.2462,0.0,0.0,0.0,0.0,0.0,0.0,0.0,0.0,0.0,0.0,0.0,0.0,0.0,0.0,0.0,0.0,0.0,0.0,0.0,0.0,0.0,0.0,0.0,0.0,0.0,0.0,0.0,0.0,0.0,0.0,0.0,0.0,0.0,0.0,0.0,0.0,0.0,0.0,0.0,0.0,0.0,0.0,0.0,0.0,0.0,0.0,0.0,0.0,0.0,0.0,0.0,0.0,0.0,0.0,0.0,0.0,0.0,0.0,0.0,0.0,0.0,0.0,0.0,0.0,0.0,0.0,0.0,0.0,0.0,0.0,0.0,0.0,0.0,0.0,0.0,0.0,0.0,0.0,0.0,0.0,0.0,0.0,0.0,0.0,0.0,0.0,0.0,0.0,0.0,0.0,0.0,0.0,0.0,0.0,0.0,0.0,0.0,0.0,0.0,0.0,0.0,0.0,0.0,4.117,4.8037,5.3343,5.4643,5.583,5.6869,5.7525,5.7172,5.3121,4.4272,0.0,0.0,0.0,0.0,0.0,0.0,0.0,0.0,0.0,0.0,0.0,0.0,0.0,0.0,0.0,0.0,0.0,0.0,0.0,0.0,0.0,0.0,0.0,0.0,0.0,0.0,0.0,0.0,0.0,0.0,0.0,0.0,0.0,0.0,0.0,0.0,0.0,0.0,0.0,0.0,0.0,0.0,0.0,0.0,0.0,0.0,0.0,0.0,0.0,0.0,0.0,0.0,0.0,0.0,0.0,0.0,0.0,0.0,0.0,0.0,0.0,0.0,0.0,0.0,0.0,0.0,0.0,0.0,0.0,0.0,0.0,0.0,0.0,0.0,0.0,0.0,0.0,0.0,0.0,0.0,0.0,0.0,0.0,0.0,0.0,0.0,0.0,0.0,0.0,0.0,0.0,0.0,0.0,0.0,0.0,0.0,0.0,0.0,0.0,0.0,0.0,0.0,4.2117,4.9146,5.4583,5.6062,5.7517,5.8614,5.9258,5.8942,5.5567,4.8084,0.0,0.0,0.0,0.0,0.0,0.0,0.0,0.0,0.0,0.0,0.0,0.0,0.0,0.0,0.0,0.0,0.0,0.0,0.0,0.0,0.0,0.0,0.0,0.0,0.0,0.0,0.0,0.0,0.0,0.0,0.0,0.0,0.0,0.0,0.0,0.0,0.0,0.0,0.0,0.0,0.0,0.0,0.0,0.0,0.0,0.0,0.0,0.0,0.0,0.0,0.0,0.0,0.0,0.0,0.0,0.0,0.0,0.0,0.0,0.0,0.0,0.0,0.0,0.0,0.0,0.0,0.0,0.0,0.0,0.0,0.0,0.0,0.0,0.0,0.0,0.0,0.0,0.0,0.0,0.0,0.0,0.0,0.0,0.0,0.0,0.0,0.0,0.0,0.0,0.0,0.0,0.0,0.0,0.0,0.0,0.0,0.0,0.0,0.0,0.0,0.0,0.0,4.2392,4.9952,5.573,5.7213,5.9465,6.0594,5.9924,6.1039,5.9024,5.2711,0.0,0.0,0.0,0.0,0.0,0.0,0.0,0.0,0.0,0.0,0.0,0.0,0.0,0.0,0.0,0.0,0.0,0.0,0.0,0.0,0.0,0.0,0.0,0.0,0.0,0.0,0.0,0.0,0.0,0.0,0.0,0.0,0.0,0.0,0.0,0.0,0.0,0.0,0.0,0.0,0.0,0.0,0.0,0.0,0.0,0.0,0.0,0.0,0.0,0.0,0.0,0.0,0.0,0.0,0.0,0.0,0.0,0.0,0.0,0.0,4.001,3.7441,0.0,0.0,0.0,0.0,0.0,0.0,0.0,0.0,0.0,0.0,0.0,0.0,0.0,0.0,0.0,0.0,0.0,0.0,0.0,0.0,0.0,0.0,0.0,0.0,0.0,0.0,0.0,0.0,0.0,0.0,0.0,0.0,0.0,0.0,0.0,0.0,0.0,0.0,0.0,0.0,4.4854,5.2761,5.8892,6.0518,6.2248,6.3474,6.3978,6.3108,6.0346,5.5133,5.1316,0.0,0.0,0.0,0.0,0.0,0.0,0.0,0.0,0.0,0.0,0.0,0.0,0.0,0.0,0.0,0.0,0.0,0.0,0.0,0.0,0.0,0.0,0.0,0.0,0.0,0.0,0.0,0.0,0.0,0.0,0.0,0.0,0.0,0.0,0.0,0.0,0.0,0.0,0.0,0.0,0.0,0.0,0.0,0.0,0.0,0.0,0.0,0.0,0.0,0.0,0.0,0.0,0.0,0.0,0.0,0.0,0.0,0.0,0.0,4.3681,4.1662,0.0,0.0,0.0,0.0,0.0,0.0,0.0,0.0,0.0,0.0,0.0,0.0,0.0,0.0,0.0,0.0,0.0,0.0,0.0,0.0,0.0,0.0,0.0,0.0,0.0,0.0,0.0,0.0,0.0,0.0,0.0,0.0,0.0,0.0,0.0,0.0,0.0,0.0,0.0,0.0,4.7143,5.5014,6.101,6.265,6.3892,6.4821,6.5249,6.4494,6.2585,5.9281,5.5317,0.0,0.0,0.0,0.0,0.0,0.0,0.0,0.0,0.0,0.0,0.0,0.0,0.0,0.0,0.0,0.0,0.0,0.0,0.0,0.0,0.0,0.0,0.0,0.0,0.0,0.0,0.0,0.0,0.0,0.0,0.0,0.0,0.0,0.0,0.0,0.0,0.0,0.0,0.0,0.0,0.0,0.0,0.0,0.0,0.0,0.0,0.0,0.0,0.0,0.0,0.0,0.0,0.0,4.7131,4.7572,4.7609,4.8416,4.9921,5.1646,4.7719,4.6691,4.7462,4.3277,0.0,0.0,0.0,0.0,0.0,0.0,0.0,0.0,0.0,0.0,0.0,0.0,0.0,0.0,0.0,0.0,0.0,0.0,0.0,0.0,0.0,0.0,4.6617,4.6617,4.8673,4.9294,4.4235,0.0,0.0,0.0,0.0,0.0,0.0,0.0,0.0,0.0,0.0,0.0,4.9996,5.7369,6.2835,6.4287,6.524,6.5742,6.5742,6.5595,6.4934,6.3539,5.9428,5.6051,0.0,0.0,0.0,0.0,0.0,0.0,0.0,0.0,0.0,0.0,0.0,0.0,0.0,0.0,0.0,0.0,0.0,0.0,0.0,0.0,0.0,0.0,0.0,0.0,0.0,0.0,0.0,0.0,0.0,0.0,0.0,0.0,3.558,3.728,0.0,0.0,0.0,0.0,0.0,0.0,0.0,0.0,0.0,0.0,0.0,0.0,0.0,4.603,4.7645,4.9921,5.1389,5.2123,5.3592,5.4326,5.4326,5.517,5.5721,5.6014,5.6051,0.0,5.0215,4.8857,0.0,0.0,0.0,0.0,0.0,0.0,0.0,0.0,0.0,0.0,0.0,0.0,0.0,0.0,0.0,0.0,0.0,0.0,0.0,0.0,0.0,0.0,5.4142,5.4142,5.4473,5.4583,5.3769,4.8561,4.3832,4.3104,4.263,4.1097,0.0,0.0,0.0,0.0,0.0,0.0,5.458,6.0775,6.5069,6.6043,6.69,6.7357,6.7357,6.6733,6.6256,6.6035,6.409,6.0676,5.55,5.4311,0.0,0.0,0.0,0.0,0.0,0.0,0.0,0.0,0.0,0.0,0.0,0.0,0.0,0.0,0.0,0.0,0.0,0.0,0.0,0.0,0.0,0.0,0.0,0.0,0.0,0.0,0.0,0.0,0.0,3.4058,3.6148,3.7954,3.702,3.5476,0.0,0.0,0.0,0.0,0.0,0.0,0.0,0.0,0.0,4.7388,4.8673,5.0325,5.238,5.3922,5.4876,5.5244,5.6381,5.6932,5.6969,5.7776,5.818,5.8217,5.8988,5.7886,5.5317,5.2711,4.9848,4.6911,0.0,0.0,0.0,0.0,4.4856,4.4929,4.7902,4.8673,4.8122,4.7352,0.0,0.0,0.0,0.0,0.0,0.0,0.0,4.9738,5.2197,5.4179,5.5941,5.7299,5.7629,5.774,5.8217,5.5794,5.2559,4.9212,4.8046,4.603,4.1032,4.2667,0.0,0.0,0.0,5.4855,5.8304,6.2947,6.6263,6.71,6.7467,6.7687,6.7687,6.7357,6.699,6.6512,6.5852,6.4127,6.119,5.7962,5.4205,0.0,0.0,0.0,0.0,0.0,0.0,0.0,0.0,0.0,0.0,0.0,0.0,0.0,0.0,0.0,0.0,0.0,0.0,0.0,0.0,0.0,0.0,0.0,0.0,0.0,0.0,0.0,0.0,3.6139,3.7791,3.9733,3.9571,3.8339,0.0,0.0,0.0,0.0,0.0,0.0,4.5259,4.6691,4.86,5.1059,5.2491,5.4289,5.6492,5.7116,5.7519,5.774,5.8547,5.8914,5.8951,5.9979,6.0456,6.0493,6.13,6.119,6.0162,5.6345,5.3665,5.183,4.9994,4.8673,4.7976,4.9591,4.9811,4.9774,5.3225,5.4032,5.3445,5.2821,5.2234,5.1279,4.882,0.0,0.0,0.0,0.0,5.3261,5.5868,5.7005,5.7886,5.9722,6.0126,6.0309,6.0896,6.086,5.9391,5.4987,5.3812,5.194,4.6874,4.8912,0.0,4.895,5.4064,5.9101,6.1927,6.4908,6.7026,6.7614,6.7687,6.7687,6.7687,6.7687,6.743,6.6843,6.6806,6.6439,6.5632,6.1828,5.9309,5.8311,0.0,0.0,0.0,0.0,0.0,0.0,0.0,0.0,0.0,0.0,0.0,0.0,0.0,0.0,0.0,0.0,0.0,0.0,0.0,0.0,0.0,0.0,0.0,0.0,0.0,0.0,0.0,0.0,0.0,4.5534,4.4927,0.0,0.0,0.0,0.0,4.313,4.4085,4.6287,5.0215,5.1242,5.2784,5.5207,5.6124,5.7373,5.9024,5.9061,5.9465,6.0236,6.1043,6.141,6.1447,6.3099,6.3833,6.3906,6.4714,6.4604,6.3576,6.0272,5.7519,5.5354,5.5207,5.4216,5.3041,5.462,5.5207,5.5427,5.7152,5.774,5.7703,5.7629,5.6088,5.4179,5.4032,5.2931,0.0,0.0,5.6969,5.8364,6.1557,6.2438,6.2475,6.2585,6.2622,6.2658,6.2695,6.2071,6.1227,6.0199,6.0566,6.0015,5.6638,0.0,5.773,5.839,5.9491,6.1655,6.5689,6.7063,6.765,6.7687,6.7687,6.7687,6.7687,6.7687,6.765,6.7614,6.7614,6.7283,6.6476,6.6605,6.4321,5.9213,5.8445,0.0,0.0,0.0,0.0,0.0,0.0,0.0,0.0,0.0,0.0,0.0,0.0,0.0,0.0,0.0,0.0,0.0,0.0,0.0,0.0,0.0,0.0,0.0,0.0,0.0,0.0,0.0,0.0,4.5802,4.6176,0.0,4.4709,4.581,4.7021,4.8122,4.9884,5.1793,5.3775,5.4656,5.5721,5.7079,5.8437,5.9648,6.075,6.1814,6.2511,6.2768,6.3613,6.398,6.4016,6.4604,6.4861,6.4897,6.5191,6.5154,6.4787,6.3613,6.1998,6.0236,6.0236,5.9905,5.9465,6.0015,6.0236,6.0309,6.0896,6.108,6.108,6.108,6.0529,5.9832,5.9832,5.9795,6.0015,6.119,6.2071,6.2952,6.4127,6.442,6.442,6.442,6.442,6.442,6.442,6.42,6.3906,6.3613,6.2915,6.152,5.8841,6.119,6.2658,6.0346,6.2915,6.5595,6.7063,6.7504,6.7907,6.8421,6.8458,6.8678,6.9192,6.8752,6.8458,6.8458,6.7981,6.7577,6.7283,6.6905,6.5975,6.4401,6.3147,5.9012,0.0,0.0,0.0,0.0,0.0,0.0,0.0,0.0,0.0,0.0,0.0,0.0,0.0,0.0,0.0,0.0,0.0,0.0,0.0,0.0,0.0,0.0,0.0,0.0,0.0,0.0,4.5282,4.6278,4.7787,4.8453,4.7645,4.9517,5.1132,5.194,5.3739,5.528,5.6345,5.7446,5.851,5.9612,6.0933,6.2034,6.2842,6.3943,6.4494,6.4494,6.5338,6.5705,6.5705,6.5999,6.6109,6.6109,6.6109,6.6109,6.6109,6.6109,6.5448,6.442,6.387,6.3649,6.3649,6.3649,6.3649,6.3649,6.3649,6.3649,6.3649,6.3649,6.3649,6.3649,6.3649,6.4053,6.4567,6.4824,6.5301,6.5778,6.6035,6.6109,6.6109,6.6109,6.6109,6.6109,6.6109,6.6109,6.6182,6.6476,6.5191,6.3539,6.1961,6.4567,6.5888,6.2915,6.5668,6.8017,6.7724,6.8164,6.8715,6.9265,6.9302,6.9522,7.0036,6.8605,6.8164,6.9229,6.7797,6.7247,6.8054,6.6806,6.626,6.6649,6.5605,6.1792,5.508,0.0,0.0,0.0,0.0,0.0,0.0,0.0,0.0,0.0,0.0,0.0,0.0,0.0,0.0,0.0,0.0,0.0,0.0,0.0,0.0,0.0,0.0,0.0,4.1426,4.425,4.6789,4.75,5.0222,5.1756,5.1022,5.238,5.3665,5.4509,5.528,5.6455,5.8107,5.9685,6.1263,6.2842,6.3723,6.453,6.5338,6.5375,6.5375,6.5375,6.6182,6.6549,6.6549,6.732,6.7687,6.7687,6.7687,6.7687,6.7687,6.7687,6.7687,6.754,6.5999,6.5375,6.5375,6.5375,6.5375,6.5375,6.5375,6.5375,6.5375,6.5375,6.5375,6.5375,6.5375,6.5375,6.5558,6.6329,6.6549,6.6733,6.7504,6.7724,6.7724,6.7724,6.776,6.776,6.776,6.776,6.7981,6.8788,6.7687,6.6623,6.6623,6.7247,6.7504,6.6733,6.7944,0.0,6.7871,6.9119,7.0073,7.0073,7.0073,7.0073,7.011,6.721,6.6769,6.9926,6.721,6.6512,6.8862,6.6696,6.5483,6.5649,6.5749,6.4027,6.0403,0.0,0.0,0.0,0.0,0.0,0.0,0.0,0.0,0.0,0.0,0.0,0.0,0.0,0.0,0.0,0.0,0.0,0.0,0.0,0.0,0.0,0.0,4.4762,4.4186,4.728,5.0085,5.1438,5.237,5.3261,5.4179,5.5207,5.6381,5.7776,5.8621,6.0052,6.2291,6.2842,6.3539,6.4604,6.5411,6.5962,6.6182,6.6733,6.7026,6.7026,6.7247,6.7357,6.7357,6.7577,6.7687,6.7687,6.7687,6.7687,6.7687,6.7687,6.7687,6.765,6.721,6.7026,6.7026,6.7026,6.7026,6.7026,6.7026,6.7026,6.7026,6.7026,6.7026,6.7026,6.7026,6.7026,6.71,6.7283,6.7357,6.7393,6.7614,6.8128,6.8568,6.8568,6.9009,6.9449,6.9449,6.9449,6.9486,6.9743,6.9412,6.9119,6.9119,6.9265,6.9376,6.9119,6.9486,6.9706,6.9449,6.9816,6.9889,6.9302,6.9229,6.9486,7.0036,6.8752,6.8788,7.0844,6.9596,6.9082,6.9743,6.9119,6.8735,6.8547,6.5186,6.2633,0.0,0.0,0.0,0.0,0.0,0.0,0.0,0.0,0.0,0.0,0.0,0.0,0.0,0.0,0.0,0.0,0.0,0.0,0.0,0.0,0.0,0.0,4.6819,4.8721,4.9049,5.068,5.2417,5.3995,5.4803,5.5721,5.6969,5.8143,5.9208,6.0162,6.13,6.2732,6.4494,6.4934,6.5485,6.6292,6.6769,6.699,6.699,6.7467,6.7871,6.8201,6.8201,6.8385,6.8715,6.8715,6.8715,6.8715,6.8715,6.8715,6.8715,6.8715,6.8715,6.8641,0.0,0.0,0.0,0.0,6.7687,6.7687,6.7687,6.7687,6.776,6.8091,6.8201,6.8274,6.8605,6.8715,6.8715,6.8715,6.8715,6.8715,6.8715,6.9045,6.9412,6.9412,6.9743,7.011,7.011,7.011,7.0183,7.055,7.0587,0.0,7.1064,7.055,7.0,6.9633,7.0183,7.0477,7.0146,7.0697,7.0917,7.0477,7.0403,7.0587,7.1064,6.9449,0.0,0.0,0.0,6.9082,6.9082,6.893,0.0,0.0,0.0,6.5016,6.58,6.1847,0.0,0.0,5.5636,5.4179,0.0,0.0,0.0,0.0,0.0,0.0,0.0,0.0,0.0,0.0,0.0,0.0,0.0,0.0,0.0,0.0,5.0949,5.3775,5.4693,5.4363,5.4546,5.5978,5.7409,5.8584,5.9391,6.086,6.1777,6.1851,6.3429,6.4714,6.5521,6.6256,0.0,0.0,0.0,6.7724,6.7834,6.7834,6.8238,6.9045,6.9045,6.9412,7.011,7.011,7.011,7.011,7.011,7.011,7.011,7.011,7.011,6.9963,6.8531,6.7944,6.7944,6.7944,6.7944,6.7944,6.7944,0.0,0.0,6.8788,6.9045,6.9192,6.9889,7.011,7.011,7.011,7.011,7.011,7.011,7.0183,7.022,7.022,7.0293,7.0403,7.0477,7.0513,7.0734,7.1578,7.1725,7.1945,7.2642,7.1505,7.0257,6.9559,7.0734,7.1468,7.0734,7.1908,7.2716,7.2532,7.2496,0.0,7.2496,6.9889,6.9522,7.2569,7.0,6.8385,6.8385,6.7975,6.8077,6.8751,6.8365,6.9559,7.2322,7.0568,6.9617,6.931,5.873,5.6051,0.0,0.0,0.0,0.0,0.0,0.0,0.0,0.0,0.0,0.0,0.0,0.0,0.0,0.0,0.0,5.0765,5.3335,5.5647,5.7079,5.829,5.9134,5.9428,5.9758,6.0236,6.1043,6.1998,6.2879,6.3539,6.5118,6.6402,6.7173,6.7357,6.754,6.7687,6.7687,6.8017,6.8678,6.8678,6.9082,6.9853,6.9853,0.0,7.011,7.011,7.011,7.011,7.011,7.011,7.011,7.011,7.011,7.0073,6.9743,6.9633,6.9633,6.9633,6.9633,6.9633,6.9633,6.9633,6.9669,6.9816,6.9853,6.9889,7.0036,7.011,0.0,7.011,7.011,7.011,7.011,7.0587,7.1064,7.1064,7.1578,7.2202,7.2863,7.301,7.323,7.4074,7.4221,7.4258,7.4404,7.3634,7.2936,7.2789,7.3597,7.4147,7.4001,7.4258,7.3964,7.2642,7.2496,7.2496,7.2496,7.1945,7.2386,7.4331,7.323,7.2532,7.2532,7.2074,7.1896,7.2067,7.2219,7.2621,7.3245,7.2367,7.175,7.1237,6.6727,6.5154,0.0,0.0,0.0,0.0,0.0,0.0,0.0,0.0,0.0,0.0,0.0,4.7755,0.0,0.0,5.3225,5.528,5.6969,5.8547,6.0199,6.1814,6.2548,6.1704,6.1998,6.2401,6.2805,6.3943,6.4677,6.4714,6.6182,6.7283,6.765,6.7687,6.7871,6.8274,6.8311,6.8678,6.9486,6.9486,6.9889,7.0697,7.0697,7.0917,7.1284,7.1284,7.1284,7.1284,7.1284,7.1284,7.1321,7.1725,7.1651,7.1321,7.1725,7.1138,7.011,7.011,7.011,7.011,7.011,7.011,7.0183,7.0587,7.0697,7.077,7.1174,7.1284,7.1394,7.1798,7.1908,7.1982,7.2386,7.2826,7.312,7.312,7.3413,7.3817,7.4221,7.4294,7.4441,7.4845,7.4918,7.4918,7.4918,7.4918,7.4771,7.4368,7.4661,7.4918,7.4918,7.4918,7.4588,7.378,7.3707,7.3707,7.3707,7.3707,7.4037,7.4845,7.4515,7.4294,7.4294,7.4383,7.4582,7.4853,7.4482,7.4458,7.4745,7.3308,7.2467,7.2168,7.0219,6.9199,0.0,0.0,0.0,0.0,0.0,0.0,0.0,0.0,4.6838,4.9444,5.1169,5.2784,5.473,5.6014,5.7336,5.9134,6.0382,6.1557,6.2879,6.4494,6.5044,6.3686,6.4127,6.4567,6.4567,6.5742,6.6219,6.5595,6.7026,6.7907,6.7907,6.8054,6.8458,6.9119,6.9119,6.9522,7.033,7.033,7.0734,7.1541,7.1541,7.1872,7.2496,7.2496,7.2606,7.2753,7.2899,7.2973,7.301,7.367,7.356,7.3046,7.367,7.2753,7.0991,7.0844,7.0881,7.1027,7.1027,7.1027,7.1138,7.1798,7.2018,7.2129,7.2789,7.2973,7.312,7.3744,7.3927,7.4074,7.4735,7.4918,7.4918,7.4918,7.4918,7.4955,7.5102,7.5139,7.5175,7.5359,7.5395,7.5395,7.5395,7.5909,7.6056,7.5249,7.5285,7.5395,7.5395,7.5395,7.5395,7.5395,7.5395,7.5395,7.5395,7.5395,7.5395,7.5395,7.5212,7.5139,7.5139,7.5587,7.6169,7.6663,7.5968,7.5872,7.6476,7.4631,7.367,7.3565,7.2573,7.1454,4.5055,4.4007,0.0,4.5956,4.6434,4.7829,0.0,0.0,5.205,5.5207,5.6565,5.7262,5.7556,5.9428,6.0786,6.0346,6.2181,6.3759,6.3906,6.5338,6.6292,6.6109,6.6182,6.6219,6.6219,6.6402,6.6476,6.6366,6.7871,6.8788,6.8788,6.9449,6.9853,6.9963,6.9963,7.0367,7.1174,7.1174,7.1578,7.2386,7.2386,7.2422,7.2496,7.2496,7.2899,7.3597,7.4331,7.4625,7.4661,7.4735,7.4735,7.4661,7.4735,7.4625,7.4294,7.356,7.3744,7.4368,7.4368,7.4368,7.4404,7.4478,7.4515,7.4515,7.4625,7.4625,7.4661,7.4735,7.4771,7.4808,7.4882,7.4918,7.4918,7.4918,7.4918,7.5102,7.5799,7.5983,7.6166,7.69,7.7047,7.7047,7.7047,7.7121,7.69,7.6093,7.657,7.7047,7.7047,7.7047,7.7047,7.7047,7.7047,7.7047,7.7047,7.7047,7.7047,7.7047,7.6387,7.5983,7.5983,7.5884,7.6082,7.6663,7.7108,7.7597,7.8207,7.7946,7.761,7.7112,7.6398,7.4226,5.0304,0.0,0.0,0.0,5.2417,5.3482,5.6345,5.6198,5.6124,5.8437,5.9538,6.0236,6.0713,6.2034,6.3246,0.0,6.4824,6.5668,6.6109,6.6769,6.7173,6.7173,6.7614,6.754,6.6586,6.7357,6.7687,6.721,6.8678,6.9596,6.9596,6.9926,7.0293,7.077,7.0807,7.1174,7.1982,7.2018,7.2422,7.3193,7.3193,7.345,7.3891,7.3891,7.4074,7.4441,7.4771,7.4918,7.4955,7.5432,7.5322,7.4955,7.5432,7.5616,7.5506,7.4698,7.4625,7.4918,7.4918,7.4918,7.4918,7.4918,7.4918,7.4918,7.4918,7.4918,7.5028,7.5469,7.5616,7.5726,7.6203,7.6313,7.6313,7.6313,7.6313,7.6387,7.6754,7.6827,7.69,7.7268,7.7304,7.7304,7.7304,7.7304,7.7194,7.6864,7.7084,7.7304,7.7304,7.7304,7.7304,7.7304,7.7304,7.7304,7.7304,7.7304,7.7304,7.7304,7.7011,7.6935,7.7328,7.7625,7.805,7.866,7.8823,7.898,7.9246,7.8746,7.8384,7.8147,7.7176,7.5856,5.2863,0.0,0.0,5.5588,5.6859,5.796,5.8547,5.8841,5.9391,6.0786,6.1704,6.2548,6.3356,6.42,6.5118,6.6292,6.6696,6.7026,6.7614,6.7687,6.7687,6.7687,6.8421,6.8458,6.7283,6.8421,6.8972,6.8385,6.9633,7.044,7.044,7.0624,7.1027,7.1615,7.1872,7.2239,7.2826,7.3046,7.345,7.4037,7.4037,7.4331,7.4918,7.5139,7.5249,7.5249,7.5469,7.5579,7.5616,7.6203,7.6093,7.5652,7.6203,7.6423,7.635,7.5963,7.5721,7.5579,7.5579,7.5579,7.5579,7.5579,7.5579,7.5579,7.5579,7.5579,7.5689,7.6276,7.6423,7.657,7.7157,7.7304,7.7304,7.7304,7.7304,7.7304,7.7304,7.7524,7.7671,7.7671,7.7855,7.8002,7.8002,7.8002,7.8002,7.8002,7.8002,7.7818,7.7378,7.7524,7.7671,7.7671,7.7855,7.8002,7.8002,7.8002,7.8002,7.8002,7.8002,7.8099,7.8387,7.8939,7.9471,7.9847,7.9851,7.9966,8.0169,7.9515,7.9323,7.9515,7.8444,7.8144,5.0961,0.0,5.4766,5.6345,5.8547,6.0309,6.0309,6.0933,6.1741,6.2585,6.3429,6.4273,6.5081,6.5888,6.6439,6.6476,6.7136,6.765,6.7687,6.7687,6.7687,6.7687,6.8421,6.8898,0.0,6.9596,7.0036,7.0036,7.0807,7.1284,7.1284,7.2018,7.2459,7.2459,7.323,7.3634,7.367,7.4441,7.4845,7.4882,7.4882,7.4882,7.4955,7.5726,7.6056,7.613,7.69,7.7268,7.7268,7.7268,7.7268,7.7268,7.7268,7.7268,7.7329,7.7942,7.7809,7.7268,7.7268,7.7268,7.7268,7.7268,7.7268,7.7268,7.7268,7.7268,7.7268,7.7268,7.7268,7.7304,7.7304,7.7304,7.7304,7.7304,7.7304,7.7304,7.7304,7.7965,7.8552,7.8552,7.9176,7.969,7.969,7.969,7.969,7.969,7.969,7.914,7.7524,7.8038,7.8552,7.8552,7.925,7.969,7.969,7.969,7.969,7.969,7.969,7.936,7.8651,7.9146,7.9425,7.9198,7.9809,8.0425,8.1054,8.1016,8.14,8.217,8.1536,8.1726,5.313,5.5581,5.8529,6.0331,6.2077,6.3373,6.3603,6.387,6.4127,6.442,6.5118,6.5595,6.5375,6.6402,6.71,6.6586,6.7173,6.7687,6.7687,6.8164,6.8495,6.8495,6.9669,0.0,0.0,0.0,7.0917,7.0917,7.1651,7.2092,7.2092,7.2349,7.2753,7.3266,7.356,7.3964,7.4478,7.4771,7.5175,7.5689,7.624,7.6497,7.6533,7.679,7.7231,7.7745,7.7451,7.7864,7.8701,7.8182,7.8163,7.8551,7.8551,7.8551,7.8602,7.8816,7.8716,7.8499,7.809,7.8218,7.8499,7.809,7.8218,7.8551,7.8551,7.8272,7.796,7.796,7.8094,7.8185,7.8185,7.8552,7.8956,7.8956,7.8956,7.8956,7.8956,7.9176,7.9396,7.9396,7.958,7.98,7.98,7.98,7.98,7.98,7.98,7.958,7.9029,7.9213,7.9396,7.9396,7.9617,7.98,7.98,7.98,7.98,7.98,7.98,7.9867,7.9978,8.0608,8.116,8.144,8.2108,8.2539,8.2747,8.2747,8.2901,8.317,8.2568,8.2453,5.6623,5.887,6.1272,6.3647,6.4905,6.5559,6.5545,6.5804,6.5975,6.5757,6.5925,6.6109,6.6145,6.6512,6.7063,6.7687,6.7981,6.8311,6.8898,6.9192,6.9339,6.9339,7.0513,7.1321,0.0,0.0,0.0,7.1725,7.2202,7.2496,7.2496,7.2789,7.3156,7.367,7.4258,7.4808,7.5322,7.5616,7.6166,7.7011,7.7524,7.7781,7.7781,7.7451,7.7635,7.8112,7.7561,7.7946,7.9054,7.8532,7.8653,7.9198,7.9198,7.9198,7.9244,7.9425,7.9513,7.9425,7.8853,7.8902,7.9152,7.8754,7.8865,7.9236,7.9538,7.9177,7.8677,7.8976,7.9183,7.9297,7.9297,7.9697,8.0184,8.0124,7.9977,7.98,7.98,8.0021,8.0241,8.0241,8.0461,8.0645,8.0645,8.0645,8.0645,8.0645,8.0645,8.0424,7.9874,8.0021,8.0241,8.0241,8.0461,8.0645,8.0645,8.0645,8.0645,8.0645,8.0645,8.0801,8.1159,8.1796,8.2271,8.2642,8.3243,8.3593,8.3593,8.3593,8.3747,8.4055,8.3668,8.3638,6.0963,6.2135,6.3043,6.6182,6.6975,6.6896,6.6388,6.6843,6.7205,6.6684,6.5852,6.5742,0.0,0.0,6.6292,6.9302,6.9302,6.9449,7.0991,7.0587,7.0146,0.0,0.0,0.0,0.0,0.0,0.0,7.2569,7.2569,7.2569,7.2569,7.3303,7.378,7.3817,7.5285,7.613,7.6166,7.6974,7.7781,7.8589,7.8589,7.8589,7.8516,7.7708,7.7341,7.7378,7.7341,7.7747,7.84,7.8363,7.8704,7.929,7.929,7.929,7.938,7.9929,8.0201,8.0124,7.9589,7.9328,7.929,7.9244,7.929,7.9441,8.0356,7.997,7.9471,8.0386,8.0603,8.0641,8.0641,8.0793,8.099,8.0935,8.0474,7.9937,7.991,8.0534,8.1048,8.1048,8.1672,8.2186,8.2186,8.2186,8.2186,8.2186,8.2186,8.1636,8.0094,8.0571,8.1048,8.1048,8.1746,8.2186,8.2186,8.2186,8.2186,8.2251,8.2251,8.2191,8.2128,8.2711,8.296,8.2832,8.3431,8.3708,8.3708,8.3708,8.4132,8.4978,8.4978,8.5363,6.1788,6.4048,6.6425,6.7543,6.8072,6.837,6.8439,6.8309,6.798,6.728,6.6136,6.5044,0.0,0.0,0.0,6.5595,6.7467,0.0,6.9449,7.0367,0.0,7.0991,0.0,7.2202,7.2202,7.2386,0.0,7.334,7.3377,7.3377,7.3377,7.4147,7.4882,7.5469,7.5873,7.6387,7.7011,7.7855,7.8369,7.8589,7.8589,7.8259,7.7635,7.7414,7.7671,7.8222,7.7598,7.8293,7.9816,7.9225,7.9637,8.0608,8.0608,8.0608,8.0608,8.0822,8.1239,8.1738,8.1563,8.1106,8.0537,8.0046,8.024,8.0761,8.1604,8.1347,8.0991,8.1908,8.221,8.2302,8.2302,8.2798,8.3223,8.2725,8.2479,8.2163,8.1691,8.1746,8.1893,8.1893,8.2039,8.2186,8.2186,8.2186,8.2186,8.2186,8.2186,8.2039,8.1636,8.1782,8.1893,8.1893,8.2076,8.2186,8.2186,8.2186,8.237,8.2876,8.2935,8.3134,8.3627,8.4218,8.4496,8.451,8.5123,8.5478,8.5478,8.5478,8.5593,8.5786,8.5786,8.5901,6.4589,6.6629,6.864,6.918,6.954,6.9534,6.8713,6.8138,6.7261,6.5464,6.4055,0.0,6.2401,6.3356,0.0,0.0,0.0,0.0,7.0844,7.1505,7.1835,0.0,7.2239,0.0,7.2496,7.2826,7.3193,0.0,7.3707,7.3854,7.4221,7.4992,7.5616,7.6093,7.646,7.7047,7.7855,7.8699,7.914,7.9103,7.8772,7.8332,7.7855,7.7488,7.7598,7.8002,7.7813,7.8532,7.9877,8.0075,8.0736,8.167,8.2054,8.2208,8.2208,8.2208,8.2477,8.2862,8.2862,8.2554,8.2138,8.1754,8.1628,8.1862,8.3054,8.2928,8.2564,8.3407,8.3715,8.378,8.378,8.4176,8.4513,8.4092,8.3824,8.3543,8.3132,8.3111,8.3111,8.3111,8.2585,8.2279,8.2585,8.2407,8.2186,8.2186,8.2186,8.2186,8.2186,8.2186,8.2186,8.2186,8.2186,8.2186,8.2186,8.2186,8.2497,8.3132,8.3189,8.3613,8.456,8.4915,8.5242,8.5551,8.5919,8.6094,8.6094,8.6094,8.6094,8.6094,8.6094,8.6094,6.7782,6.9052,6.9898,7.0706,7.0898,7.0354,6.8196,6.7195,6.5877,6.2874,0.0,6.0346,6.1117,6.2034,6.3906,6.7797,0.0,7.0881,7.3083,7.2863,7.2496,7.2496,7.2606,7.2679,7.2679,7.3377,7.3891,7.4001,7.4001,7.4331,7.5028,7.5836,7.6313,7.6423,7.7011,7.7781,7.8736,7.9323,7.9617,7.9617,7.8919,7.8578,7.8554,7.7757,7.745,7.7592,7.8146,7.8754,7.9456,8.0801,8.1762,8.2401,8.3247,8.3593,8.3593,8.3593,8.367,8.3747,8.3747,8.3747,8.3747,8.3632,8.3093,8.2785,8.4401,8.4362,8.3939,8.4824,8.5055,8.5055,8.5055,8.5127,8.5202,8.5121,8.4696,8.4276,8.4228,8.4179,8.4179,8.4179,8.3246,8.2647,8.3246,8.2853,8.2434,8.2343,8.2343,8.2279,8.2186,8.2186,8.2186,8.2186,8.2186,8.2186,8.2186,8.2316,8.2585,8.3303,8.3378,8.4029,8.5162,8.5202,8.5514,8.6094,8.6094,8.6094,8.6094,8.6094,8.6094,8.6094,8.6094,8.6094,6.809,6.9052,6.9898,7.0706,7.0898,7.0448,6.8663,6.7049,0.0,0.0,6.0083,5.8657,5.9465,6.0823,6.2695,6.5485,6.8274,7.0477,7.1578,7.2165,7.2496,0.0,7.3083,7.3487,7.3487,7.4221,0.0,0.0,7.5689,7.5726,7.5873,7.668,7.7414,7.8148,7.7598,7.8038,7.958,7.9066,7.8809,7.8809,7.8662,7.8514,7.8313,7.8165,7.8432,7.8865,7.901,7.938,8.0045,8.1001,8.1762,8.2401,8.3247,8.3593,8.3593,8.3593,8.4055,8.467,8.467,8.467,8.4555,8.3824,8.3478,8.3555,8.4593,8.4786,8.4863,8.567,8.5901,8.5901,8.5901,8.5911,8.5811,8.5202,8.4999,8.4785,8.4325,8.4179,8.4179,8.4179,8.4029,8.3876,8.4016,8.3965,8.3704,8.3074,8.3053,8.2853,8.2251,8.2186,8.2186,8.2186,8.2186,8.2186,8.2186,8.2708,8.3303,8.3979,8.4475,8.5121,8.5881,8.5919,8.5988,8.6094,8.6094,8.6094,8.6094,8.6094,8.6094,8.6094,8.6094,8.6094,6.8282,6.936,7.0437,7.0783,7.1245,7.0667,6.7205,0.0,0.0,0.0,5.7789,5.7137,5.7271,0.0,0.0,6.4273,6.7393,6.9889,7.1138,7.1982,0.0,7.2496,7.3193,7.3707,7.3707,7.4808,7.5689,7.6056,7.6497,7.6717,7.6717,7.7121,7.7524,7.7928,7.7965,7.8369,7.9176,7.8772,7.8589,7.8589,7.85,7.8424,7.8309,7.8602,7.8914,7.9244,7.9513,8.0075,8.0888,8.2068,8.2971,8.3747,8.4555,8.4901,8.4901,8.4901,8.517,8.5517,8.5517,8.5517,8.5478,8.5055,8.4632,8.4439,8.5286,8.5517,8.5593,8.5978,8.6094,8.6094,8.6094,8.6094,8.6026,8.57,8.5627,8.5551,8.524,8.491,8.4785,8.5121,8.4651,8.4276,8.4605,8.442,8.408,8.3772,8.372,8.3597,8.3303,8.3246,8.2994,8.2279,8.2497,8.2732,8.2732,8.3322,8.3979,8.4651,8.4915,8.5399,8.606,8.6094,8.6094,8.6094,8.6094,8.6094,8.6094,8.6094,8.6094,8.6094,8.6094,8.6094,6.8783,6.9898,7.0975,7.136,7.1975,7.1129,6.6051,6.4928,0.0,5.6992,5.5692,5.5723,5.5809,0.0,6.086,0.0,6.6623,6.9082,7.1027,7.1835,7.2386,0.0,7.3487,0.0,7.4184,7.5506,0.0,7.635,7.6937,7.7304,7.7304,7.7304,7.7414,7.7598,7.8075,7.8405,7.8589,7.8405,7.8332,7.8295,7.8293,7.8363,7.8536,7.9105,7.9469,7.9637,8.0315,8.0964,8.169,8.3269,8.4286,8.4978,8.5786,8.6094,8.6094,8.6094,8.6094,8.6094,8.6094,8.6094,8.6094,8.6094,8.567,8.5286,8.5901,8.6094,8.6094,8.6094,8.6094,8.6094,8.6094,8.6094,8.6094,8.6094,8.6094,8.6094,8.6094,8.57,8.5475,8.5988,8.528,8.474,8.5202,8.4953,8.456,8.442,8.4372,8.4325,8.4228,8.4179,8.381,8.2732,8.3111,8.3378,8.3378,8.4029,8.4605,8.5079,8.5242,8.5551,8.606,8.6094,8.6094,8.6094,8.6094,8.6094,8.6094,8.6094,8.6209,8.6363,8.6209,8.6286,7.0052,7.0783,7.1283,7.286,7.3322,7.2052,6.6936,0.0,6.2513,5.6841,5.4828,5.4572,5.636,5.7519,5.9758,6.442,6.6035,6.7797,7.0881,7.1358,7.1945,7.3413,0.0,0.0,7.5799,7.668,7.7194,7.7194,7.7268,7.7304,7.7304,7.7304,7.7671,7.8479,7.7818,7.7818,7.8589,7.7818,7.7451,7.7451,7.7997,7.8588,7.9152,7.9727,8.0352,8.0965,8.176,8.2144,8.2336,8.4061,8.4824,8.4978,8.5786,8.6094,8.6094,8.6094,8.6094,8.6094,8.6094,8.6094,8.6094,8.6094,8.6055,8.6017,8.6094,8.6094,8.6094,8.6094,8.6094,8.6094,8.6094,8.6094,8.6094,8.6094,8.6094,8.6094,8.6094,8.606,8.6026,8.6094,8.6026,8.5954,8.5988,8.5954,8.57,8.5121,8.4999,8.4828,8.4276,8.4179,8.4167,8.4016,8.408,8.408,8.4117,8.4651,8.5041,8.5121,8.5664,8.606,8.6094,8.6094,8.6094,8.6094,8.6094,8.6094,8.6094,8.6094,8.6517,8.7248,8.6478,8.694,7.0113,7.1283,7.1975,7.3206,7.3129,7.136,6.6282,0.0,6.1637,5.6122,5.4343,5.4238,5.5772,5.6748,5.8731,6.3099,6.4934,6.6733,6.9486,7.0293,7.1174,7.2789,7.3707,0.0,0.0,0.0,7.7304,7.7304,7.7304,7.7304,7.7304,7.7304,7.7488,7.7818,7.7488,7.7488,7.7818,7.7488,7.751,7.7903,7.8551,7.9152,7.9727,8.0427,8.1124,8.1823,8.217,8.2901,8.3939,8.4632,8.5209,8.567,8.5978,8.6094,8.6094,8.6094,8.6094,8.6094,8.6094,8.6094,8.6094,8.6094,8.6094,8.6094,8.6094,8.6094,8.6094,8.6094,8.6094,8.6094,8.6094,8.6094,8.6094,8.6094,8.6094,8.6094,8.6094,8.6094,8.6094,8.6094,8.6094,8.6094,8.6094,8.6094,8.6026,8.5737,8.57,8.5627,8.536,8.532,8.5358,8.5358,8.4995,8.474,8.474,8.532,8.57,8.57,8.5954,8.6094,8.6094,8.6094,8.6094,8.6094,8.6632,8.6863,8.6863,8.7401,8.7825,8.8171,8.7825,8.8017,6.9855,7.1622,7.2783,7.363,7.3206,7.1245,0.0,0.0,6.1141,5.5631,5.4118,5.4128,5.508,5.5904,5.7703,6.1484,6.3503,6.5485,6.8164,6.9229,7.033,0.0,0.0,7.3964,7.5579,7.6717,7.7304,7.7304,7.7304,7.7304,7.7304,7.7304,7.7304,7.7304,7.7304,7.7304,7.7304,7.751,7.7789,7.8309,7.9105,7.9685,8.0125,8.1052,8.1747,8.2324,8.2862,8.3785,8.4939,8.517,8.5593,8.6094,8.6094,8.6094,8.6094,8.6094,8.6094,8.6094,8.6094,8.6094,8.6094,8.6094,8.6094,8.6094,8.6094,8.6094,8.6094,8.6094,8.6094,8.6094,8.6094,8.6094,8.6094,8.6094,8.6094,8.6094,8.6094,8.6094,8.6094,8.6094,8.6094,8.6094,8.6094,8.6094,8.6094,8.6094,8.6094,8.6094,8.6094,8.6094,8.6094,8.6094,8.5664,8.5399,8.5399,8.5811,8.6094,8.6094,8.6094,8.6094,8.6094,8.6094,8.6094,8.6094,8.6978,8.7401,8.7401,8.8248,8.8825,8.9056,8.8786,8.8825,6.9419,7.1827,7.3668,7.4476,7.4091,7.2168,6.7051,6.4238,6.1141,5.5631,5.4118,5.3943,5.4338,5.506,5.6675,5.9905,6.1777,6.398,6.7247,6.8421,6.9522,0.0,0.0,7.3156,7.4771,7.6387,7.7304,7.7304,7.7304,7.7304,7.7304,7.7304,7.7304,7.7304,7.7304,7.7304,7.7304,7.796,7.8309,7.8309,7.9513,8.0087,8.0125,8.1628,8.2285,8.2401,8.4132,8.4901,8.4978,8.5747,8.6094,8.6094,8.6094,8.6094,8.6094,8.6094,8.6094,8.6094,8.6094,8.6094,8.6094,8.6094,8.6094,8.6094,8.6094,8.6094,8.6094,8.6094,8.6094,8.6094,8.6094,8.6094,8.6094,8.6094,8.6094,8.6094,8.6094,8.6094,8.6094,8.6094,8.6094,8.6094,8.6094,8.6094,8.6094,8.6094,8.6094,8.6094,8.6094,8.6094,8.6094,8.6094,8.6094,8.6094,8.6094,8.6094,8.6094,8.6094,8.6094,8.6094,8.6094,8.6094,8.6094,8.6094,8.6978,8.7401,8.7401,8.8248,8.9094,8.9863,8.9056,8.9133,6.5536,6.7956,6.9937,6.959,6.8898,6.7345,6.3674,6.1187,5.8613,5.4828,5.3682,5.3617,5.4295,5.462,5.6381,6.1263,6.2475,6.4163,6.7981,6.9192,0.0,7.1945,7.4294,7.5983,0.0,7.7011,7.7304,7.7304,7.7304,7.7304,7.7304,7.7304,7.7304,7.7304,7.7304,7.751,7.796,7.82,7.8704,7.9513,7.9929,8.0658,8.1628,8.2067,8.2939,8.4132,8.467,8.5209,8.5747,8.5978,8.6094,8.6094,8.6094,8.6094,8.6094,8.6094,8.6094,8.6094,8.6094,8.6094,8.6094,8.6094,8.6094,8.6094,8.6094,8.6094,8.6094,8.6094,8.6094,8.6094,8.6094,8.6094,8.6094,8.6094,8.6094,8.6094,8.6094,8.6094,8.6094,8.6094,8.6094,8.6094,8.6094,8.6094,8.6094,8.6094,8.6094,8.6094,8.6094,8.6094,8.6094,8.6094,8.6094,8.6094,8.6094,8.6094,8.6094,8.6094,8.6094,8.6094,8.6094,8.6671,8.6978,8.6978,8.8402,8.9133,8.9133,8.9979,9.0556,9.0787,9.0517,9.0556,6.2871,6.5273,6.7187,6.7102,6.6244,6.4706,6.2003,5.952,5.7058,5.4353,5.3484,5.3371,5.3849,5.4216,5.5757,5.9869,6.1557,6.3576,6.7063,6.8752,0.0,7.2275,0.0,0.0,7.6827,7.7157,7.7304,7.7304,7.7304,7.7304,7.7304,7.7304,7.7426,7.7651,7.7651,7.7846,7.8309,7.8754,7.9335,8.0125,8.0352,8.1137,8.2324,8.2631,8.3555,8.4939,8.5209,8.5632,0.0,8.6094,8.6094,8.6094,8.6094,8.6094,8.6094,8.6094,8.6094,8.6094,8.6094,8.6094,8.6094,8.6094,8.6094,8.6094,8.6094,8.6094,8.6094,8.6094,8.6094,8.6094,8.6094,8.6094,8.6094,8.6094,8.6094,8.6094,8.6094,8.6094,8.6094,8.6094,8.6094,8.6094,8.6094,8.6094,8.6094,8.6094,8.6094,8.6094,8.6094,8.6094,8.6094,8.6094,8.6094,8.6094,8.6094,8.6094,8.6094,8.6094,8.6094,8.6247,8.6594,8.7094,8.7555,8.7863,8.921,8.9902,8.9902,9.0787,9.121,9.121,9.121,9.121,0.0,6.3405,6.5044,6.6115,6.5218,6.3566,6.1506,5.8881,0.0,5.4241,5.3484,5.3261,5.3445,5.3959,5.506,5.7005,5.9795,6.2585,6.5191,6.765,0.0,0.0,7.4074,7.5322,7.6203,7.69,7.7304,7.7304,7.7304,7.7304,7.7304,7.7304,7.7629,7.8309,7.8363,7.8379,7.8432,7.9513,8.0125,8.0163,8.0783,8.1554,8.2401,8.3208,8.4093,8.5016,8.5786,8.6094,8.6094,8.6094,8.6094,8.6094,8.6094,8.6094,8.6094,8.6094,8.6094,8.6094,8.6094,8.6094,8.6094,8.6094,8.6094,8.6094,8.6094,8.6094,8.6094,8.6094,8.6094,8.6094,8.6094,8.6094,8.6094,8.6094,8.6094,8.6094,8.6094,8.6094,8.6094,8.6094,8.6094,8.6094,8.6094,8.6094,8.6094,8.6094,8.6094,8.6094,8.6094,8.6094,8.6094,8.6094,8.6094,8.6094,8.6094,8.6094,8.6094,8.6094,8.6094,8.6478,8.7363,8.744,8.7902,8.8748,8.9594,8.9979,8.9979,9.0825,9.121,9.121,9.121,9.121,5.6113,0.0,6.0608,5.9627,5.9306,5.8945,0.0,5.6506,5.5211,5.4056,5.3484,5.3775,5.5611,5.5097,5.6161,6.152,6.2475,6.3833,6.754,7.0146,0.0,7.4955,7.5579,7.6387,7.7855,7.7598,7.7304,7.7304,7.7304,7.7304,7.7304,7.7304,7.7629,7.8309,7.8754,7.9198,7.9642,7.9969,8.0352,8.0855,8.0991,8.1862,8.3285,8.3516,8.4401,8.5824,8.6017,8.6094,8.6094,8.6094,8.6094,8.6094,8.6094,8.6094,8.6094,8.6094,8.6094,8.6094,8.6094,8.6094,8.6094,8.6094,8.6094,8.6094,8.6094,8.6094,8.6094,8.6094,8.6094,8.6094,8.6094,8.6094,8.6094,8.6094,8.6094,8.6094,8.6094,8.6094,8.6094,8.6094,8.6094,8.6094,8.6094,8.6094,8.6094,8.6094,8.6094,8.6094,8.6094,8.6094,8.6094,8.6094,8.6094,8.6094,8.6094,8.6094,8.6094,8.6094,8.6094,8.6478,8.7363,8.8017,8.8786,8.9594,9.0479,9.0902,9.0902,9.1095,9.121,9.121,9.121,9.121,5.2409,5.5434,5.78,5.7813,5.7684,5.7444,5.6785,5.5525,5.4354,5.3907,5.3484,5.3702,5.539,5.6092,5.7661,6.1238,6.3541,6.6334,7.0533,0.0,7.5212,7.6497,7.7011,7.7451,7.7965,7.7598,7.7304,7.7304,7.7304,7.7389,7.7768,7.7768,7.82,7.9105,7.9425,7.9806,8.0125,8.0427,8.075,8.1093,8.1093,8.2208,8.4209,8.4209,8.5324,8.7286,8.7286,8.7286,8.7248,8.6863,8.6709,8.6671,8.6247,8.6094,8.6094,8.6094,8.6094,8.6094,8.6094,8.6094,8.6094,8.6094,8.6094,8.6094,8.6094,8.6094,8.6094,8.6094,8.6094,8.6094,8.6094,8.6094,8.6094,8.6094,8.6094,8.6094,8.6094,8.6094,8.6094,8.6094,8.6094,8.6094,8.6094,8.6094,8.6094,8.6094,8.6094,8.6094,8.6094,8.6094,8.6094,8.6094,8.6094,8.6094,8.6094,8.6094,8.6286,8.6671,8.6709,8.7248,8.8517,8.9017,8.9633,9.0479,9.0979,9.121,9.121,9.121,9.121,9.121,9.121,9.121,5.03,5.3297,5.6383,5.7625,5.7549,5.7089,5.6689,5.5093,5.3758,5.3977,5.3676,5.3812,5.5294,5.746,5.9329,6.0478,6.4668,6.9039,7.2831,7.5322,7.6864,7.7121,7.7781,7.8038,7.7561,7.7414,7.7365,7.745,7.745,7.7768,7.8379,7.8432,7.8951,8.0048,8.0125,8.0163,8.0239,8.0822,8.1093,8.1093,8.1208,8.2554,8.4901,8.5016,8.6401,8.8709,8.8709,8.8709,8.8632,8.7902,8.7594,8.7517,8.6786,8.6517,8.6517,8.6517,8.6517,8.6478,8.6324,8.6209,8.6094,8.6094,8.6094,8.6094,8.6094,8.6094,8.6094,8.6094,8.6094,8.6094,8.6094,8.6094,8.6094,8.6094,8.6094,8.6094,8.6094,8.6094,8.6094,8.6094,8.6094,8.6094,8.6094,8.6094,8.6094,8.6094,8.6094,8.6094,8.6094,8.6094,8.6094,8.6094,8.6094,8.617,8.6286,8.6286,8.6709,8.7709,8.7555,8.8132,8.9825,9.0056,9.0441,9.121,9.121,9.121,9.121,9.121,9.121,9.121,9.121,9.121,5.1564,5.4913,5.6701,5.4595,5.4726,5.5388,5.5379,5.4306,5.3565,5.4701,5.4538,5.5595,6.024,6.0063,6.1003,6.6512,6.8676,7.011,7.1468,7.3156,7.4771,7.613,7.6387,7.6974,7.8295,7.7745,7.751,7.809,7.8146,7.8432,7.901,7.9058,7.938,8.0086,8.0125,8.0352,8.0959,8.1061,8.1093,8.1093,8.1785,8.3093,8.4939,8.5632,8.694,8.8709,8.8709,8.8709,8.8671,8.8556,8.8479,8.8479,8.8363,8.8286,8.8286,8.8286,8.8286,8.8209,8.744,8.6709,8.6094,8.6094,8.6094,8.6094,8.6094,8.6094,8.6094,8.6094,8.6094,8.6094,8.6094,8.6094,8.6094,8.6094,8.6094,8.6094,8.6094,8.6094,8.6094,8.6094,8.6094,8.6094,8.6094,8.6094,8.6094,8.6094,8.6094,8.6094,8.6094,8.6094,8.6094,8.6094,8.6094,8.6401,8.7132,8.7209,8.7863,8.944,8.8171,8.8132,8.9825,9.0633,9.1056,9.121,9.121,9.121,9.121,9.121,9.121,9.121,9.121,9.121,4.9157,5.216,5.4554,5.4517,5.7746,6.0902,6.0774,6.0115,5.9465,5.9269,5.8646,5.899,6.1831,6.2294,6.4123,6.9739,7.1084,7.1835,7.3083,7.4625,7.5946,7.668,7.7157,7.7561,7.7892,7.7561,7.757,7.8255,7.8309,7.8704,7.9642,7.9685,7.9969,8.0608,8.0643,8.0783,8.1093,8.1093,8.1323,8.1747,8.2131,8.367,8.6247,8.6632,8.7979,9.0056,9.0056,9.0056,9.0017,8.9556,8.9363,8.9325,8.8863,8.8709,8.8632,8.8171,8.8286,8.8556,8.7709,8.744,8.744,8.6978,8.6786,8.6709,8.6247,8.6094,8.6094,8.6094,8.6094,8.6094,8.6094,8.6094,8.6094,8.6094,8.6094,8.6094,8.6094,8.6094,8.6094,8.6094,8.6094,8.6094,8.6094,8.6094,8.6094,8.6094,8.6094,8.6094,8.6094,8.6094,8.6094,8.6094,8.6517,8.6978,8.7363,8.7825,8.8632,8.9825,8.9633,8.9787,9.0556,9.0979,9.121,9.121,9.121,9.121,9.121,9.121,9.121,9.121,9.121,9.121,4.783,5.0337,5.3181,5.5812,5.9896,6.3606,6.4847,6.4271,6.3453,6.3258,6.2778,6.2623,6.3509,6.5158,0.0,7.1403,7.23,7.301,7.4441,7.5873,7.6827,7.7011,7.7781,7.8038,7.7378,7.745,7.7826,7.8484,7.8602,7.9198,8.0277,8.0352,8.0573,8.1093,8.1093,8.1093,8.1093,8.1285,8.1708,8.2285,8.2708,8.4478,8.7401,8.7825,8.9171,9.121,9.121,9.121,9.1171,9.0479,9.021,9.0133,8.9517,8.9286,8.921,8.8556,8.8594,8.8902,8.8209,8.8171,8.8286,8.7632,8.7401,8.7248,8.6363,8.6247,8.6363,8.617,8.6094,8.6094,8.6094,8.6094,8.6094,8.6094,8.6094,8.6094,8.6094,8.6094,8.6094,8.6094,8.6094,8.6094,8.6094,8.6094,8.6094,8.6094,8.6094,8.6094,8.6094,8.6094,8.617,8.6363,8.7017,8.7555,8.794,8.8786,8.9556,9.0171,9.0825,9.121,9.121,9.121,9.121,9.121,9.121,9.121,9.121,9.121,9.121,9.121,9.121,9.121,5.0601,5.2917,5.4963,5.8141,5.7061,5.6708,6.2361,6.1442,6.0379,6.4073,6.5186,6.588,6.7306,6.9409,7.0937,7.1304,7.1982,7.2789,7.367,7.4551,7.5359,7.6093,7.69,7.7378,7.7341,7.7846,7.8484,7.9105,7.9642,8.0277,8.0991,8.1061,8.1061,8.1093,8.1093,8.1093,8.1093,8.1823,8.2247,8.2324,8.3939,8.567,8.744,8.9017,9.0248,9.121,9.121,9.121,9.121,9.1133,9.1133,9.1095,9.1056,9.1018,9.1018,9.0941,9.0441,8.9825,8.9748,8.8748,8.7478,8.7401,8.7401,8.7248,8.6363,8.6671,8.7132,8.6324,8.6094,8.6094,8.6094,8.6094,8.6094,8.6094,8.6094,8.6094,8.6094,8.6094,8.6094,8.6094,8.6094,8.6094,8.6094,8.6094,8.6094,8.6094,8.6094,8.6094,8.6094,8.6094,8.6401,8.7209,8.7363,8.8017,8.9594,9.0517,9.1056,9.1095,9.1171,9.121,9.121,9.121,9.121,9.121,9.121,9.121,9.121,9.121,9.121,9.121,9.121,9.121,4.8384,5.1964,5.5578,5.7271,5.8307,6.0249,6.5413,6.7155,6.8067,6.9427,6.9915,6.9739,0.0,0.0,7.2166,7.0753,7.1651,7.2789,7.3597,7.4404,7.5212,7.6019,7.6827,7.7304,7.7304,7.7903,7.8588,7.9152,7.9765,8.0389,8.1061,8.1093,8.1093,8.1093,8.1093,8.1093,8.1093,8.19,8.2554,8.3131,8.4824,8.6555,8.8248,8.9402,9.0402,9.121,9.121,9.121,9.121,9.121,9.121,9.121,9.121,9.121,9.1133,9.0594,9.0517,9.0633,9.0094,8.9863,8.9671,8.9133,8.894,8.8786,8.7979,8.794,8.8017,8.7132,8.6901,8.6786,8.6247,8.6094,8.6094,8.6094,8.6094,8.6094,8.6094,8.6094,8.6094,8.6094,8.6094,8.6094,8.6094,8.6094,8.6094,8.6094,8.6094,8.6286,8.6824,8.6901,8.7248,8.8132,8.8671,8.944,9.0633,9.1018,9.121,9.121,9.121,9.121,9.121,9.121,9.121,9.121,9.121,9.121,9.121,9.121,9.121,9.121,9.121,9.121,4.9184,5.2437,5.6039,5.7838,5.9798,6.2511,6.7412,6.9842,7.1554,7.3076,7.3028,7.2164,7.0508,0.0,0.0,0.0,7.2115,7.3156,7.3964,7.4771,7.5579,7.6387,7.6974,7.7365,7.7629,7.8163,7.8853,7.9425,8.0086,8.0608,8.1061,8.1093,8.1093,8.1093,8.1093,8.1208,8.1477,8.2285,8.3131,8.4016,8.5978,8.7555,8.8748,8.9825,9.0633,9.121,9.121,9.121,9.121,9.121,9.121,9.121,9.121,9.121,9.1133,9.0517,9.071,9.1133,9.0517,9.0517,9.071,9.0094,8.9902,8.971,8.8632,8.8671,8.8825,8.7709,8.7401,8.7248,8.6671,8.6324,8.6094,8.6094,8.6094,8.6094,8.6094,8.6094,8.6094,8.6094,8.6094,8.6094,8.6094,8.6094,8.6094,8.6094,8.6324,8.6748,8.7325,8.7632,8.8132,8.8979,8.9825,9.0556,9.1171,9.121,9.121,9.121,9.121,9.121,9.121,9.121,9.121,9.121,9.121,9.121,9.121,9.121,9.121,9.121,9.121,9.121,5.4117,5.501,5.66,6.0617,6.1053,6.1934,6.73,6.7743,6.8565,7.3989,7.3756,7.2841,7.3756,7.2284,7.1491,7.3131,7.3554,7.3964,7.4808,7.5616,7.6423,7.7231,7.7304,7.757,7.8255,7.8853,7.9469,8.0048,8.0716,8.1093,8.1093,8.1093,8.1093,8.1093,8.1093,8.1477,8.2285,8.317,8.4055,8.4939,8.7478,8.8709,8.8748,9.0441,9.121,9.121,9.121,9.121,9.121,9.121,9.121,9.121,9.121,9.121,9.121,9.121,9.121,9.121,9.121,9.0633,8.9902,8.9902,8.9902,8.9594,8.794,8.8594,8.9556,8.7863,8.7401,8.7401,8.7401,8.6748,8.6094,8.6094,8.6094,8.6094,8.6094,8.6094,8.6094,8.6094,8.6094,8.6094,8.6094,8.6094,8.6094,8.6094,8.6863,8.7401,8.7401,8.8171,8.9017,8.9825,9.0671,9.121,9.121,9.121,9.121,9.121,9.121,9.121,9.121,9.121,9.121,9.121,9.121,9.121,9.121,9.121,9.121,9.121,9.121,9.121,5.0963,5.5749,6.0534,6.0034,6.4469,6.9073,6.9791,7.0177,7.1291,7.4446,7.4249,7.3455,7.3303,7.3566,7.3863,7.4004,7.4526,7.5284,7.6307,7.6606,7.6958,7.7255,7.7304,7.757,7.8255,7.8853,7.9469,8.0048,8.0716,8.1093,8.1093,8.1093,8.1093,8.1093,8.1093,8.1477,8.2285,8.317,8.4324,8.5786,8.7748,8.8709,8.8748,9.0441,9.121,9.121,9.121,9.121,9.121,9.121,9.121,9.121,9.121,9.121,9.121,9.121,9.121,9.121,9.121,9.1018,9.0825,9.0825,9.0825,9.0633,8.9517,8.994,9.0479,8.8786,8.8286,8.8171,8.7555,8.6748,8.6094,8.6094,8.6094,8.6094,8.6094,8.6094,8.6094,8.6094,8.6094,8.6094,8.6094,8.6594,8.7017,8.7017,8.7748,8.8517,8.9094,8.994,9.0556,9.0787,9.1056,9.121,9.121,9.121,9.121,9.121,9.121,9.121,9.121,9.121,9.121,9.121,9.121,9.121,9.121,9.121,9.121,9.121,9.121,9.121,5.5794,6.0665,6.5205,6.4984,6.8055,7.1229,7.1927,7.2774,7.3644,7.4308,7.4336,7.4117,7.376,7.4179,7.4751,7.5089,7.5599,7.6308,7.7329,7.7717,7.7872,7.7694,7.7903,7.8218,7.8602,7.9198,7.9806,8.0463,8.0855,8.1093,8.1093,8.1093,8.1093,8.1093,8.1093,8.1631,8.2824,8.3324,8.4632,8.6632,8.8017,8.8863,8.921,9.0594,9.121,9.121,9.121,9.121,9.121,9.121,9.121,9.121,9.121,9.121,9.121,9.121,9.121,9.121,9.121,9.121,9.121,9.121,9.121,9.1056,9.0171,9.0517,9.0941,8.9556,8.9171,8.9056,8.8517,8.7786,8.6978,8.6247,8.6363,8.6517,8.617,8.6363,8.6517,8.617,8.6094,8.6209,8.6555,8.7055,8.7517,8.7863,8.8632,8.9479,9.0325,9.0902,9.121,9.121,9.121,9.121,9.121,9.121,9.121,9.121,9.121,9.121,9.121,9.121,9.121,9.121,9.121,9.121,9.121,9.121,9.121,9.121,9.121,9.121,6.4494,6.7283,6.9633,7.2606,7.136,7.0206,7.347,7.5127,7.5553,7.3957,7.4187,7.4649,7.4725,7.4446,7.4743,7.6346,7.684,7.7257,7.8043,7.8799,7.9058,7.8432,7.8902,7.9244,7.929,7.9806,8.0352,8.1061,8.1093,8.1093,8.1093,8.1093,8.1093,8.1093,8.117,8.1977,8.3555,8.367,8.4978,8.7517,8.8325,8.9171,9.0056,9.0825,9.121,9.121,9.121,9.121,9.121,9.121,9.121,9.121,9.121,9.121,9.121,9.121,9.121,9.121,9.121,9.121,9.121,9.121,9.121,9.1056,9.0171,9.0517,9.1018,9.0171,8.9902,8.9902,8.9902,8.9286,8.8286,8.6709,8.694,8.7286,8.6517,8.6978,8.7248,8.6401,8.6286,8.6555,8.7286,8.7517,8.7902,8.8786,8.9556,9.0325,9.1095,9.121,9.121,9.121,9.121,9.121,9.121,9.121,9.121,9.121,9.121,9.121,9.121,9.121,9.121,9.121,9.121,9.121,9.121,9.121,9.121,9.121,9.121,9.121,5.9208,6.4273,6.9229,7.055,7.1998,7.3154,7.3263,7.4707,7.5772,7.4954,7.4389,7.4274,7.4924,7.589,7.6893,7.7892,7.864,7.9274,7.9588,7.9814,7.9685,7.9058,7.9105,7.938,7.9888,8.0008,8.0352,8.1061,8.1093,8.1093,8.1093,8.1093,8.1093,8.1093,8.1708,8.2554,8.3593,8.4286,8.5901,8.8402,8.8594,8.9479,9.0941,9.1133,9.121,9.121,9.121,9.121,9.121,9.121,9.121,9.121,9.121,9.121,9.121,9.121,9.121,9.121,9.121,9.121,9.121,9.121,9.121,9.1056,9.0171,9.0517,9.1018,9.0171,8.9902,8.9902,8.9902,8.9286,8.8594,8.8209,8.8286,8.8363,8.8171,8.8286,8.8171,8.7286,8.7671,8.7979,8.7478,8.8479,8.9671,9.0517,9.0825,9.0979,9.1171,9.121,9.121,9.121,9.121,9.121,9.121,9.121,9.121,9.121,9.121,9.121,9.121,9.121,9.121,9.121,9.121,9.121,9.121,9.121,9.121,9.121,9.121,9.121,6.1153,6.5705,6.9376,7.1321,7.3056,7.418,7.3727,7.486,7.5917,7.5584,7.5206,7.5168,7.6011,7.6778,7.7707,7.89,7.9515,7.996,8.0493,8.0573,8.0352,7.9723,7.9888,8.0086,8.0125,8.0389,8.0716,8.1061,8.1093,8.1093,8.1093,8.1093,8.1093,8.1093,8.1862,8.2708,8.3593,8.4478,8.617,8.8709,8.8709,8.9594,9.121,9.121,9.121,9.121,9.121,9.121,9.121,9.121,9.121,9.121,9.121,9.121,9.121,9.121,9.121,9.121,9.121,9.121,9.121,9.121,9.121,9.1133,9.0671,9.0825,9.1133,9.0671,9.0517,9.0517,9.0517,9.021,8.9902,8.9902,8.9594,8.9171,8.8786,8.9325,8.9517,8.8248,8.8709,8.9133,8.8671,8.9671,9.0671,9.1133,9.121,9.121,9.121,9.121,9.121,9.121,9.121,9.121,9.121,9.121,9.121,9.121,9.121,9.121,9.121,9.121,9.121,9.121,9.121,9.121,9.121,9.121,9.121,9.121,9.121,9.121,6.2952,6.6806,6.9302,7.2642,7.3913,7.4293,7.4293,7.5203,7.6015,7.6015,7.6015,7.6284,7.713,7.74,7.8015,7.9554,7.9939,8.0285,8.1016,8.1093,8.0888,8.0352,8.075,8.0888,8.0315,8.075,8.1093,8.1093,8.1093,8.1093,8.1093,8.1093,8.117,8.1285,8.2093,8.2939,8.3824,8.4824,8.6478,8.8709,8.8979,8.9863,9.121,9.121,9.121,9.121,9.121,9.121,9.121,9.121,9.121,9.121,9.121,9.121,9.121,9.121,9.121,9.121,9.121,9.121,9.121,9.121,9.121,9.121,9.121,9.121,9.121,9.121,9.121,9.121,9.121,9.121,9.121,9.121,9.0748,9.0171,8.9479,9.0441,9.0979,8.944,8.9556,8.994,9.0094,9.071,9.121,9.121,9.121,9.121,9.121,9.121,9.121,9.121,9.121,9.121,9.121,9.121,9.121,9.121,9.121,9.121,9.121,9.121,9.121,9.121,9.121,9.121,9.121,9.121,9.121,9.121,9.121,9.121,5.4583,6.086,6.776,7.1688,7.3466,7.4293,7.4293,7.5203,7.6015,7.6015,7.6015,7.6284,7.713,7.7861,7.8669,7.9631,8.0439,8.0977,8.1093,8.1093,8.1061,8.0991,8.1061,8.1061,8.0959,8.1061,8.1093,8.1093,8.1093,8.1093,8.1093,8.1093,8.14,8.2131,8.2978,8.3824,8.4709,8.6286,8.7632,8.8709,9.0171,9.0979,9.121,9.121,9.121,9.121,9.121,9.121,9.121,9.121,9.121,9.121,9.121,9.121,9.121,9.121,9.121,9.121,9.121,9.121,9.121,9.121,9.121,9.121,9.121,9.121,9.121,9.121,9.121,9.121,9.121,9.121,9.121,9.121,9.171,9.2133,9.2018,9.2172,9.2056,9.1056,9.0364,9.0133,9.0902,9.1133,9.121,9.121,9.121,9.121,9.121,9.121,9.121,9.121,9.121,9.121,9.121,9.121,9.121,9.121,9.121,9.121,9.121,9.121,9.121,9.121,9.121,9.121,9.121,9.121,9.121,9.121,9.121,9.121,5.6129,6.2372,6.8194,7.2447,7.3888,7.4379,7.471,7.5379,7.6015,7.6015,7.6399,7.6976,7.7823,7.8246,7.8938,8.0323,8.0862,8.1093,8.1093,8.1093,8.1093,8.1093,8.1093,8.1093,8.1093,8.1093,8.1093,8.1093,8.1093,8.1093,8.1093,8.1093,8.1477,8.2285,8.3131,8.4016,8.4901,8.6555,8.8055,8.9402,9.0594,9.121,9.121,9.121,9.121,9.121,9.121,9.121,9.121,9.121,9.121,9.121,9.121,9.121,9.121,9.121,9.121,9.121,9.121,9.121,9.121,9.121,9.121,9.121,9.121,9.121,9.121,9.121,9.121,9.121,9.121,9.121,9.1325,9.1825,9.221,9.2749,9.371,9.3903,9.3787,9.3403,9.2249,9.1479,9.1864,9.1518,9.121,9.121,9.121,9.121,9.121,9.121,9.121,9.121,9.121,9.121,9.121,9.121,9.121,9.121,9.121,9.121,9.121,9.121,9.121,9.121,9.121,9.121,9.121,9.121,9.121,9.121,9.121,9.121,5.6968,6.2011,6.5875,7.1141,7.2967,7.3793,7.4714,7.5485,7.6015,7.6015,7.6669,7.7553,7.8361,7.8669,7.9323,8.0862,8.1093,8.1093,8.1093,8.1093,8.1093,8.1093,8.1093,8.1093,8.1093,8.1093,8.1093,8.1093,8.1093,8.1093,8.1093,8.1093,8.1554,8.2593,8.3247,8.4209,8.5517,8.7209,8.8786,9.0248,9.0902,9.121,9.121,9.121,9.121,9.121,9.121,9.121,9.121,9.121,9.121,9.121,9.121,9.121,9.121,9.121,9.121,9.121,9.121,9.121,9.121,9.121,9.121,9.121,9.121,9.121,9.121,9.121,9.121,9.121,9.121,9.1364,9.171,9.2364,9.2826,9.348,9.4711,9.498,9.498,9.498,9.3787,9.2749,9.2556,9.1979,9.1479,9.1248,9.121,9.121,9.121,9.121,9.121,9.121,9.121,9.121,9.121,9.121,9.121,9.121,9.121,9.121,9.121,9.121,9.121,9.121,9.121,9.121,9.121,9.121,9.121,9.121,9.121,9.121,5.2629,5.545,5.8051,6.5523,6.9416,7.1975,7.3935,7.5203,7.6015,7.6015,7.6669,7.7553,7.8361,7.9169,8.0015,8.0939,8.1093,8.1093,8.1093,8.1093,8.1093,8.1093,8.1093,8.1093,8.1093,8.1093,8.1093,8.1093,8.1093,8.1093,8.1093,8.1093,8.1862,8.3478,8.3555,8.4786,8.7248,8.894,9.0248,9.1133,9.1171,9.121,9.121,9.121,9.121,9.121,9.121,9.121,9.121,9.121,9.121,9.121,9.121,9.121,9.121,9.121,9.121,9.121,9.121,9.121,9.121,9.121,9.121,9.121,9.121,9.121,9.121,9.121,9.121,9.121,9.121,9.1825,9.2441,9.2479,9.371,9.4864,9.498,9.498,9.498,9.498,9.4249,9.3403,9.2633,9.2441,9.2133,9.1325,9.121,9.121,9.121,9.121,9.121,9.121,9.121,9.121,9.121,9.121,9.121,9.121,9.121,9.121,9.121,9.121,9.121,9.121,9.121,9.121,9.121,9.121,9.121,9.121,9.121,9.121,5.195,5.4383,5.6979,6.309,6.7174,7.0133,7.1756,7.4113,7.6015,7.6015,7.7092,7.8169,7.8438,7.9208,8.0092,8.0977,8.1093,8.1093,8.1093,8.1093,8.1093,8.1093,8.1093,8.1093,8.1093,8.1093,8.1093,8.1093,8.1093,8.1093,8.1093,8.1093,8.1862,8.3555,8.4132,8.5901,8.8979,8.9594,9.0364,9.121,9.121,9.121,9.121,9.121,9.121,9.121,9.121,9.121,9.121,9.121,9.121,9.121,9.121,9.121,9.121,9.121,9.121,9.121,9.121,9.121,9.121,9.121,9.121,9.121,9.121,9.121,9.121,9.121,9.121,9.1325,9.1902,9.2287,9.2749,9.3826,9.498,9.5826,9.5826,9.5826,9.5826,9.5826,9.5134,9.4441,9.4134,9.321,9.2402,9.2095,9.1556,9.121,9.121,9.121,9.121,9.121,9.121,9.121,9.121,9.121,9.121,9.121,9.121,9.121,9.121,9.121,9.121,9.121,9.121,9.121,9.121,9.121,9.121,9.121,9.121,9.121,5.003,5.2298,5.5142,6.0441,6.3733,6.6697,7.0593,7.2928,7.4591,7.5745,7.7323,7.8477,7.8477,7.9438,8.0439,8.1016,8.1093,8.1093,8.1093,8.1093,8.1093,8.1093,8.1093,8.1093,8.1093,8.1093,8.1093,8.1093,8.1093,8.1093,8.1093,8.1093,8.2016,8.3978,8.544,8.7363,8.9902,9.021,9.0633,9.121,9.121,9.121,9.121,9.121,9.121,9.121,9.121,9.121,9.121,9.121,9.121,9.121,9.121,9.121,9.121,9.121,9.121,9.121,9.121,9.121,9.121,9.121,9.121,9.121,9.121,9.121,9.121,9.121,9.1402,9.1787,9.2364,9.2903,9.3672,9.5095,9.5865,9.6288,9.6288,9.6288,9.6288,9.6288,9.5826,9.5326,9.5057,9.3826,9.2826,9.2556,9.1748,9.121,9.121,9.121,9.121,9.121,9.121,9.121,9.121,9.121,9.121,9.121,9.121,9.121,9.121,9.121,9.121,9.121,9.121,9.121,9.121,9.121,9.121,9.121,9.121,9.121,0.0,0.0,0.0,5.7139,5.891,6.1645,7.02,7.1413,7.1706,7.513,7.7169,7.8361,7.8477,7.99,8.1054,8.1093,8.1093,8.1093,8.1093,8.1093,8.1093,8.1093,8.1131,8.1131,8.1093,8.1131,8.1131,8.1093,8.1093,8.1093,8.1093,8.1131,8.2324,8.4863,8.7363,8.9094,8.994,9.0787,9.121,9.121,9.121,9.121,9.121,9.121,9.121,9.121,9.121,9.121,9.121,9.121,9.121,9.121,9.121,9.121,9.121,9.121,9.121,9.121,9.121,9.121,9.121,9.121,9.121,9.121,9.121,9.121,9.121,9.1248,9.1864,9.2518,9.2556,9.3787,9.5249,9.6095,9.6288,9.6288,9.6288,9.6288,9.6288,9.6288,9.6288,9.6019,9.5172,9.4287,9.3441,9.2633,9.1787,9.121,9.121,9.121,9.121,9.121,9.121,9.121,9.121,9.121,9.121,9.121,9.121,9.121,9.121,9.121,9.121,9.121,9.121,9.121,9.121,9.121,9.121,9.121,9.121,9.121,4.7009,0.0,0.0,0.0,0.0,0.0,6.1403,6.4398,6.7475,7.1475,7.3168,7.4861,7.7938,7.94,8.0362,8.1016,8.1093,8.1093,8.1093,8.1093,8.1093,8.1093,8.1593,8.1747,8.117,8.1631,8.1747,8.1131,8.1093,8.1093,8.1093,8.2247,8.3785,8.5709,8.7671,8.9402,9.0825,9.1095,9.121,9.121,9.121,9.121,9.121,9.121,9.121,9.121,9.121,9.121,9.121,9.121,9.121,9.121,9.121,9.121,9.121,9.121,9.121,9.121,9.121,9.121,9.121,9.121,9.121,9.121,9.121,9.121,9.1325,9.1979,9.2326,9.2787,9.398,9.5134,9.6019,9.6249,9.6288,9.6288,9.6288,9.6288,9.6288,9.6288,9.6288,9.6211,9.598,9.4672,9.3633,9.3403,9.2133,9.121,9.121,9.121,9.121,9.121,9.121,9.121,9.121,9.121,9.121,9.121,9.121,9.121,9.121,9.121,9.121,9.121,9.121,9.121,9.121,9.121,9.121,9.121,9.121,9.121,4.8279,4.9163,5.0625,5.1356,0.0,0.0,6.1243,6.3897,6.6821,7.2822,7.4745,7.6015,7.8092,7.9515,8.0516,8.1016,8.1362,8.1477,8.1131,8.14,8.1593,8.1593,8.2016,8.2131,8.1631,8.2016,8.1977,8.117,8.14,8.1439,8.1131,8.267,8.4362,8.6055,8.7786,8.9479,9.1171,9.121,9.121,9.121,9.121,9.121,9.121,9.121,9.121,9.121,9.121,9.121,9.121,9.121,9.121,9.121,9.121,9.121,9.121,9.121,9.121,9.121,9.121,9.121,9.121,9.121,9.121,9.121,9.121,9.1441,9.1864,9.2364,9.2979,9.3826,9.5172,9.5903,9.6288,9.6288,9.6288,9.6288,9.6288,9.6288,9.6288,9.6288,9.6288,9.6288,9.6288,9.4864,9.371,9.371,9.2287,9.121,9.121,9.121,9.121,9.121,9.121,9.121,9.121,9.121,9.121,9.121,9.121,9.121,9.121,9.121,9.121,9.121,9.121,9.121,9.121,9.121,9.121,9.121,9.121,9.121,5.0317,5.0894,5.2395,0.0,0.0,0.0,0.0,6.559,6.6974,7.4784,7.7092,7.7592,7.7284,7.8669,7.9785,7.9708,8.09,8.1747,8.14,8.1977,8.2439,8.2439,8.2516,8.2554,8.2439,8.2516,8.2208,8.1285,8.19,8.1977,8.1285,8.2824,8.4516,8.6209,8.7825,8.9479,9.1171,9.121,9.121,9.121,9.121,9.121,9.121,9.121,9.121,9.121,9.121,9.121,9.121,9.121,9.121,9.121,9.121,9.121,9.121,9.121,9.121,9.121,9.121,9.121,9.121,9.121,9.121,9.121,9.1325,9.1902,9.2556,9.271,9.3903,9.5326,9.6095,9.6288,9.6288,9.6288,9.6288,9.6288,9.6288,9.6288,9.6288,9.6288,9.6288,9.6288,9.6288,9.4864,9.371,9.371,9.2287,9.121,9.121,9.121,9.121,9.121,9.121,9.121,9.121,9.121,9.121,9.121,9.121,9.121,9.121,9.121,9.121,9.121,9.121,9.121,9.121,9.121,9.121,9.121,9.121,9.121,0.0,0.0,0.0,0.0,0.0,0.0,0.0,5.5972,5.8742,6.2435,6.3897,6.5474,6.8744,7.0744,7.1706,7.1014,7.5592,8.0131,8.2747,8.3247,8.3362,8.3362,8.3978,8.4132,8.3401,8.3978,8.3747,8.217,8.2208,8.2247,8.2054,8.3708,8.5401,8.7094,8.8171,8.9479,9.1171,9.121,9.121,9.121,9.121,9.121,9.121,9.121,9.121,9.121,9.121,9.121,9.121,9.121,9.121,9.121,9.121,9.121,9.121,9.121,9.121,9.121,9.121,9.121,9.121,9.121,9.121,9.1325,9.2018,9.2364,9.2787,9.4134,9.5249,9.6095,9.6249,9.6288,9.6288,9.6288,9.6288,9.6288,9.6288,9.6288,9.6288,9.6288,9.6288,9.6288,9.6288,9.4864,9.371,9.371,9.2287,9.121,9.121,9.121,9.121,9.121,9.121,9.121,9.121,9.121,9.121,9.121,9.121,9.121,9.121,9.121,9.121,9.121,9.121,9.121,9.121,9.121,9.121,9.121,9.121,9.121,0.0,0.0,0.0,5.3395,0.0,0.0,0.0,0.0,5.855,6.4051,6.4205,6.4243,6.7205,6.809,6.8667,6.9513,7.3937,7.7707,7.8977,8.2093,8.4247,8.4247,8.4632,8.4747,8.4286,8.4632,8.4555,8.367,8.317,8.2939,8.2939,8.4209,8.567,8.7363,8.8248,8.9479,9.1171,9.121,9.121,9.121,9.121,9.121,9.121,9.121,9.121,9.121,9.121,9.121,9.121,9.121,9.121,9.121,9.121,9.121,9.121,9.121,9.121,9.121,9.121,9.121,9.121,9.121,9.1479,9.1941,9.2364,9.3095,9.4018,9.5288,9.5942,9.6288,9.6288,9.6288,9.6288,9.6288,9.6288,9.6288,9.6288,9.6288,9.6288,9.6288,9.6288,9.6288,9.6288,9.5211,9.421,9.3749,9.2633,9.171,9.1248,9.121,9.121,9.121,9.121,9.121,9.121,9.121,9.121,9.121,9.121,9.121,9.121,9.121,9.121,9.121,9.121,9.121,9.121,9.121,9.121,9.121,9.121,9.121,0.0,0.0,0.0,0.0,0.0,5.5742,0.0,0.0,0.0,0.0,6.559,6.4359,6.5705,6.5667,6.5974,6.7705,7.1398,7.3707,7.2668,7.8246,8.2631,8.3131,8.4209,8.4786,8.4439,8.4132,8.4209,8.4863,8.3632,8.317,8.3824,8.467,8.5901,8.7594,8.8325,8.9479,9.1171,9.121,9.121,9.121,9.121,9.121,9.121,9.121,9.121,9.121,9.121,9.121,9.121,9.121,9.121,9.121,9.121,9.121,9.121,9.121,9.121,9.121,9.121,9.1325,9.1441,9.1441,9.2133,9.2979,9.2979,9.4018,9.5403,9.6095,9.6288,9.6288,9.6288,9.6288,9.6288,9.6288,9.6288,9.6288,9.6288,9.6288,9.6288,9.6288,9.6288,9.6288,9.6288,9.5557,9.4749,9.4057,9.3249,9.2479,9.1787,9.1556,9.1441,9.1441,9.1287,9.121,9.121,9.121,9.121,9.121,9.121,9.121,9.121,9.121,9.121,9.121,9.121,9.121,9.121,9.121,9.121,9.121,9.121,9.121,0.0,0.0,0.0,0.0,5.7319,0.0,0.0,0.0,5.5857,5.5318,0.0,0.0,0.0,0.0,0.0,5.7627,6.282,6.6474,6.482,6.9821,7.4476,7.6746,8.167,8.4286,8.2747,8.1246,8.1631,8.467,8.2016,8.1554,8.4593,8.5517,8.6748,8.8479,8.8632,8.9479,9.1171,9.121,9.121,9.121,9.121,9.121,9.121,9.121,9.121,9.121,9.121,9.121,9.121,9.121,9.121,9.121,9.121,9.121,9.121,9.121,9.121,9.121,9.121,9.171,9.2364,9.2364,9.3403,9.4711,9.4711,9.5403,9.6172,9.6288,9.6288,9.6288,9.6288,9.6288,9.6288,9.6288,9.6288,9.6288,9.6288,9.6288,9.6288,9.6288,9.6288,9.6288,9.6288,9.5557,9.4941,9.4864,9.4131,9.3515,9.3438,9.2784,9.2361,9.2364,9.1672,9.121,9.121,9.121,9.121,9.121,9.121,9.121,9.121,9.121,9.121,9.121,9.121,9.121,9.121,9.121,9.121,9.121,9.121,9.121,0.0,0.0,0.0,0.0,0.0,0.0,5.4587,0.0,5.3857,0.0,0.0,0.0,0.0,0.0,0.0,0.0,6.0089,6.2358,6.0627,0.0,7.1514,7.3553,7.6438,7.8746,7.9977,7.9939,8.1208,8.4632,8.2208,8.2016,8.544,8.594,8.6901,8.8632,8.8709,8.9479,9.1171,9.121,9.121,9.121,9.121,9.121,9.121,9.121,9.121,9.121,9.121,9.121,9.121,9.121,9.121,9.121,9.121,9.121,9.121,9.121,9.1518,9.1941,9.1941,9.2479,9.3287,9.3787,9.4441,9.5095,9.5595,9.6019,9.6288,9.6288,9.6288,9.6288,9.6288,9.6288,9.6288,9.6288,9.6288,9.6288,9.6288,9.6288,9.6288,9.6288,9.6288,9.6288,9.6288,9.6019,9.5557,9.5057,9.4672,9.4403,9.4247,9.3595,9.3326,9.3672,9.2672,9.1941,9.1941,9.1479,9.121,9.121,9.121,9.1441,9.1941,9.1941,9.171,9.121,9.171,9.171,9.121,9.121,9.121,9.121,9.121,9.121,6.2358,0.0,0.0,0.0,0.0,0.0,0.0,0.0,0.0,0.0,0.0,0.0,0.0,0.0,0.0,5.6742,0.0,5.9319,0.0,6.2935,0.0,0.0,0.0,0.0,7.713,7.74,7.9169,8.3516,8.1285,8.1554,8.5863,8.6094,8.6786,8.8286,8.8556,8.9402,9.0825,9.1095,9.121,9.121,9.121,9.121,9.121,9.121,9.121,9.121,9.121,9.121,9.121,9.121,9.121,9.121,9.121,9.121,9.1248,9.1479,9.2095,9.2826,9.2826,9.3364,9.421,9.5057,9.5365,9.548,9.6095,9.6288,9.6288,9.6288,9.6288,9.6288,9.6288,9.6288,9.6288,9.6288,9.6288,9.6288,9.6288,9.6288,9.6288,9.6288,9.6288,9.6288,9.6288,9.6288,9.6095,9.5441,9.5365,9.5289,9.5057,9.448,9.4249,9.4672,9.3364,9.2479,9.2479,9.171,9.1287,9.1556,9.1748,9.2056,9.2479,9.271,9.2326,9.121,9.2056,9.2056,9.121,9.121,9.121,9.121,9.121,9.121,6.7282,6.7552,6.7282,5.805,5.7627,5.8204,0.0,0.0,5.6626,0.0,0.0,0.0,0.0,0.0,0.0,0.0,0.0,0.0,0.0,0.0,0.0,0.0,0.0,0.0,0.0,7.2629,7.3976,8.0708,7.8092,7.9054,8.5747,8.6094,8.6517,8.7401,8.8248,8.9094,8.994,9.0787,9.121,9.121,9.121,9.121,9.121,9.121,9.121,9.121,9.121,9.121,9.121,9.121,9.121,9.121,9.121,9.121,9.1287,9.2133,9.2979,9.3672,9.3672,9.421,9.5095,9.598,9.6249,9.6249,9.6288,9.6288,9.6288,9.6288,9.6288,9.6288,9.6288,9.6288,9.6288,9.6288,9.6288,9.6288,9.6288,9.6288,9.6288,9.6288,9.6288,9.6288,9.6288,9.6288,9.6288,9.6249,9.6249,9.6249,9.6249,9.548,9.498,9.498,9.348,9.2479,9.2479,9.171,9.1556,9.2402,9.3172,9.3287,9.2518,9.3249,9.2903,9.1248,9.2056,9.2056,9.121,9.121,9.121,9.121,9.121,9.121,6.9744,7.1475,7.1898,6.3666,6.3051,6.2743,5.5972,5.6203,0.0,0.0,0.0,0.0,0.0,0.0,0.0,0.0,0.0,0.0,0.0,0.0,0.0,0.0,0.0,0.0,0.0,0.0,7.5322,7.99,7.9708,8.1323,8.5863,8.6094,8.6517,8.7363,8.8248,8.9094,8.9902,9.0748,9.121,9.121,9.121,9.121,9.121,9.121,9.121,9.121,9.121,9.121,9.121,9.121,9.1556,9.2056,9.2056,9.2749,9.3633,9.2787,9.3018,9.3864,9.5018,9.5595,9.5903,9.6211,9.6288,9.6288,9.6288,9.6288,9.6288,9.6288,9.6288,9.6288,9.6288,9.6288,9.6288,9.6288,9.6288,9.6288,9.6288,9.6288,9.6288,9.6288,9.6288,9.6288,9.6288,9.6288,9.6288,9.6288,9.6288,9.6288,9.6288,9.6057,9.5865,9.5865,9.4826,9.4134,9.4134,9.3364,9.321,9.4095,9.3364,9.3287,9.4095,9.3364,9.2633,9.2056,9.2364,9.2056,9.121,9.121,9.121,9.121,9.121,9.121,7.3053,7.4553,7.4784,6.7705,6.7013,6.6167,5.9127,5.9319,6.0512,0.0,0.0,0.0,0.0,0.0,5.8627,0.0,0.0,0.0,0.0,5.7896,0.0,0.0,0.0,0.0,0.0,0.0,0.0,7.9823,7.9361,8.0939,8.5824,8.6094,8.6363,8.6901,8.8094,8.894,8.9479,9.0633,9.121,9.121,9.121,9.121,9.121,9.121,9.121,9.121,9.121,9.121,9.121,9.1518,9.1979,9.2518,9.2826,9.3595,9.4441,9.3672,9.3903,9.4788,9.5903,9.6288,9.6288,9.6288,9.6288,9.6288,9.6288,9.6288,9.6249,9.5903,9.6057,9.6249,9.5903,9.6057,9.6288,9.6288,9.6288,9.6288,9.6288,9.6288,9.6288,9.6288,9.6288,9.6288,9.6288,9.6288,9.6288,9.6288,9.6288,9.6288,9.6288,9.6288,9.6288,9.6288,9.5518,9.4864,9.4557,9.4018,9.4057,9.4941,9.4287,9.421,9.498,9.3941,9.3249,9.2941,9.2633,9.221,9.1672,9.1364,9.121,9.121,9.121,9.121]},{"header":{"parameterUnit":"m.s-1","parameterCategory":1,"la1":30.6,"la2":29.2853,"lo1":-89.7004,"lo2":-87.6739,"dx":0.0162,"dy":0.0183,"nx":112,"ny":82,"refTime":"2022-12-23T06:00:00:Z","depth":0,"parameterNumber":3,"parameterNumberName":"V-component_of_WINDS"},"data":[0.0,0.0,0.0,0.0,0.0,0.0,0.0,0.0,0.0,0.0,0.0,0.0,0.0,0.0,0.0,0.0,0.0,0.0,0.0,0.0,0.0,0.0,0.0,0.0,0.0,0.0,0.0,0.0,0.0,0.0,0.0,0.0,0.0,0.0,0.0,0.0,0.0,0.0,0.0,0.0,0.0,0.0,0.0,0.0,0.0,0.0,0.0,0.0,0.0,0.0,0.0,0.0,0.0,0.0,0.0,0.0,0.0,0.0,0.0,0.0,0.0,0.0,0.0,0.0,0.0,0.0,0.0,0.0,0.0,0.0,0.0,0.0,0.0,0.0,0.0,0.0,0.0,0.0,0.0,0.0,0.0,0.0,0.0,0.0,0.0,0.0,0.0,0.0,0.0,0.0,-2.3418,-2.4863,-2.6973,-2.8038,-2.7458,-2.7151,-2.508,-2.0377,0.0,0.0,0.0,0.0,0.0,0.0,0.0,0.0,0.0,0.0,0.0,0.0,0.0,0.0,0.0,0.0,0.0,0.0,0.0,0.0,0.0,0.0,0.0,0.0,0.0,0.0,0.0,0.0,0.0,0.0,0.0,0.0,0.0,0.0,0.0,0.0,0.0,0.0,0.0,0.0,0.0,0.0,0.0,0.0,0.0,0.0,0.0,0.0,0.0,0.0,0.0,0.0,0.0,0.0,0.0,0.0,0.0,0.0,0.0,0.0,0.0,0.0,0.0,0.0,0.0,0.0,0.0,0.0,0.0,0.0,0.0,0.0,0.0,0.0,0.0,0.0,0.0,0.0,0.0,0.0,0.0,0.0,0.0,0.0,0.0,0.0,0.0,0.0,0.0,0.0,0.0,0.0,0.0,0.0,0.0,0.0,0.0,0.0,0.0,0.0,0.0,0.0,0.0,0.0,-2.3105,-2.7266,-2.8047,-2.7814,-2.6408,-2.4893,-2.2249,-1.8008,0.0,0.0,0.0,0.0,0.0,0.0,0.0,0.0,0.0,0.0,0.0,0.0,0.0,0.0,0.0,0.0,0.0,0.0,0.0,0.0,0.0,0.0,0.0,0.0,0.0,0.0,0.0,0.0,0.0,0.0,0.0,0.0,0.0,0.0,0.0,0.0,0.0,0.0,0.0,0.0,0.0,0.0,0.0,0.0,0.0,0.0,0.0,0.0,0.0,0.0,0.0,0.0,0.0,0.0,0.0,0.0,0.0,0.0,0.0,0.0,0.0,0.0,0.0,0.0,0.0,0.0,0.0,0.0,0.0,0.0,0.0,0.0,0.0,0.0,0.0,0.0,0.0,0.0,0.0,0.0,0.0,0.0,0.0,0.0,0.0,0.0,0.0,0.0,0.0,0.0,0.0,0.0,0.0,0.0,0.0,0.0,0.0,0.0,0.0,0.0,0.0,0.0,0.0,-2.2109,-2.4336,-2.791,-2.8301,-2.7726,-2.6264,-2.5322,-2.2826,-1.8185,-1.7318,0.0,0.0,0.0,0.0,0.0,0.0,0.0,0.0,0.0,0.0,0.0,0.0,0.0,0.0,0.0,0.0,0.0,0.0,0.0,0.0,0.0,0.0,0.0,0.0,0.0,0.0,0.0,0.0,0.0,0.0,0.0,0.0,0.0,0.0,0.0,0.0,0.0,0.0,0.0,0.0,0.0,0.0,0.0,0.0,0.0,0.0,0.0,0.0,0.0,0.0,0.0,0.0,0.0,0.0,0.0,0.0,0.0,0.0,0.0,0.0,0.0,0.0,0.0,0.0,0.0,0.0,0.0,0.0,0.0,0.0,0.0,0.0,0.0,0.0,0.0,0.0,0.0,0.0,0.0,0.0,0.0,0.0,0.0,0.0,0.0,0.0,0.0,0.0,0.0,0.0,0.0,0.0,0.0,0.0,0.0,0.0,0.0,0.0,0.0,0.0,0.0,0.0,-2.4785,-2.623,-2.8223,-2.8535,-2.8103,-2.6865,-2.608,-2.372,-1.8916,-1.6813,0.0,0.0,0.0,0.0,0.0,0.0,0.0,0.0,0.0,0.0,0.0,0.0,0.0,0.0,0.0,0.0,0.0,0.0,0.0,0.0,0.0,0.0,0.0,0.0,0.0,0.0,0.0,0.0,0.0,0.0,0.0,0.0,0.0,0.0,0.0,0.0,0.0,0.0,0.0,0.0,0.0,0.0,0.0,0.0,0.0,0.0,0.0,0.0,0.0,0.0,0.0,0.0,0.0,0.0,0.0,0.0,0.0,0.0,0.0,0.0,0.0,0.0,0.0,0.0,0.0,0.0,0.0,0.0,0.0,0.0,0.0,0.0,0.0,0.0,0.0,0.0,0.0,0.0,0.0,0.0,0.0,0.0,0.0,0.0,0.0,0.0,0.0,0.0,0.0,0.0,0.0,0.0,0.0,0.0,0.0,0.0,0.0,0.0,0.0,0.0,0.0,0.0,-2.5898,-2.8672,-2.8848,-2.9238,-2.9316,-2.8797,-2.614,-2.3056,-1.9523,-1.6154,0.0,0.0,0.0,0.0,0.0,0.0,0.0,0.0,0.0,0.0,0.0,0.0,0.0,0.0,0.0,0.0,0.0,0.0,0.0,0.0,0.0,0.0,0.0,0.0,0.0,0.0,0.0,0.0,0.0,0.0,0.0,0.0,0.0,0.0,0.0,0.0,0.0,0.0,0.0,0.0,0.0,0.0,0.0,0.0,0.0,0.0,0.0,0.0,0.0,0.0,0.0,0.0,0.0,0.0,0.0,0.0,0.0,0.0,0.0,0.0,0.0,0.0,0.0,0.0,0.0,0.0,0.0,0.0,0.0,0.0,0.0,0.0,0.0,0.0,0.0,0.0,0.0,0.0,0.0,0.0,0.0,0.0,0.0,0.0,0.0,0.0,0.0,0.0,0.0,0.0,0.0,0.0,0.0,0.0,0.0,0.0,0.0,0.0,0.0,0.0,0.0,0.0,-2.5,-2.7559,-2.916,-2.9473,-2.869,-2.6548,-2.5184,-2.2338,-1.7206,0.0,0.0,0.0,0.0,0.0,0.0,0.0,0.0,0.0,0.0,0.0,0.0,0.0,0.0,0.0,0.0,0.0,0.0,0.0,0.0,0.0,0.0,0.0,0.0,0.0,0.0,0.0,0.0,0.0,0.0,0.0,0.0,0.0,0.0,0.0,0.0,0.0,0.0,0.0,0.0,0.0,0.0,0.0,0.0,0.0,0.0,0.0,0.0,0.0,0.0,0.0,0.0,0.0,0.0,0.0,0.0,0.0,0.0,0.0,0.0,0.0,0.0,0.0,0.0,0.0,0.0,0.0,0.0,0.0,0.0,0.0,0.0,0.0,0.0,0.0,0.0,0.0,0.0,0.0,0.0,0.0,0.0,0.0,0.0,0.0,0.0,0.0,0.0,0.0,0.0,0.0,0.0,0.0,0.0,0.0,0.0,0.0,0.0,0.0,0.0,0.0,0.0,-2.2227,-2.5117,-2.7676,-2.957,-2.9545,-2.8418,-2.6028,-2.4844,-2.1884,-1.6415,0.0,0.0,0.0,0.0,0.0,0.0,0.0,0.0,0.0,0.0,0.0,0.0,0.0,0.0,0.0,0.0,0.0,0.0,0.0,0.0,0.0,0.0,0.0,0.0,0.0,0.0,0.0,0.0,0.0,0.0,0.0,0.0,0.0,0.0,0.0,0.0,0.0,0.0,0.0,0.0,0.0,0.0,0.0,0.0,0.0,0.0,0.0,0.0,0.0,0.0,0.0,0.0,0.0,0.0,0.0,0.0,0.0,0.0,0.0,0.0,0.0,0.0,0.0,0.0,0.0,0.0,0.0,0.0,0.0,0.0,0.0,0.0,0.0,0.0,0.0,0.0,0.0,0.0,0.0,0.0,0.0,0.0,0.0,0.0,0.0,0.0,0.0,0.0,0.0,0.0,0.0,0.0,0.0,0.0,0.0,0.0,0.0,0.0,0.0,0.0,0.0,0.0,-2.248,-2.666,-2.9746,-3.0156,-2.9405,-2.8595,-2.7804,-2.5198,-2.1865,0.0,0.0,0.0,0.0,0.0,0.0,0.0,0.0,0.0,0.0,0.0,0.0,0.0,0.0,0.0,0.0,0.0,0.0,0.0,0.0,0.0,0.0,0.0,0.0,0.0,0.0,0.0,0.0,0.0,0.0,0.0,0.0,0.0,0.0,0.0,0.0,0.0,0.0,0.0,0.0,0.0,0.0,0.0,0.0,0.0,0.0,0.0,0.0,0.0,0.0,0.0,0.0,0.0,0.0,0.0,0.0,0.0,0.0,0.0,0.0,0.0,0.0,0.0,0.0,0.0,0.0,0.0,0.0,0.0,0.0,0.0,0.0,0.0,0.0,0.0,0.0,0.0,0.0,0.0,0.0,0.0,0.0,0.0,0.0,0.0,0.0,0.0,0.0,0.0,0.0,0.0,0.0,0.0,0.0,0.0,0.0,0.0,0.0,0.0,0.0,0.0,0.0,0.0,-2.3769,-2.7734,-3.018,-2.9361,-2.9374,-2.8199,-2.5612,-2.4268,-2.1597,-1.6994,0.0,0.0,0.0,0.0,0.0,0.0,0.0,0.0,0.0,0.0,0.0,0.0,0.0,0.0,0.0,0.0,0.0,0.0,0.0,0.0,0.0,0.0,0.0,0.0,0.0,0.0,0.0,0.0,0.0,0.0,0.0,0.0,0.0,0.0,0.0,0.0,0.0,0.0,0.0,0.0,0.0,0.0,0.0,0.0,0.0,0.0,0.0,0.0,0.0,0.0,0.0,0.0,0.0,0.0,0.0,0.0,0.0,0.0,0.0,0.0,0.0,0.0,0.0,0.0,0.0,0.0,0.0,0.0,0.0,0.0,0.0,0.0,0.0,0.0,0.0,0.0,0.0,0.0,0.0,0.0,0.0,0.0,0.0,0.0,0.0,0.0,0.0,0.0,0.0,0.0,0.0,0.0,0.0,0.0,0.0,0.0,0.0,0.0,0.0,0.0,0.0,0.0,-2.4316,-2.7523,-2.9636,-2.9184,-2.8209,-2.6712,-2.4545,-2.3665,-2.1469,-1.762,0.0,0.0,0.0,0.0,0.0,0.0,0.0,0.0,0.0,0.0,0.0,0.0,0.0,0.0,0.0,0.0,0.0,0.0,0.0,0.0,0.0,0.0,0.0,0.0,0.0,0.0,0.0,0.0,0.0,0.0,0.0,0.0,0.0,0.0,0.0,0.0,0.0,0.0,0.0,0.0,0.0,0.0,0.0,0.0,0.0,0.0,0.0,0.0,0.0,0.0,0.0,0.0,0.0,0.0,0.0,0.0,0.0,0.0,0.0,0.0,0.0,0.0,0.0,0.0,0.0,0.0,0.0,0.0,0.0,0.0,0.0,0.0,0.0,0.0,0.0,0.0,0.0,0.0,0.0,0.0,0.0,0.0,0.0,0.0,0.0,0.0,0.0,0.0,0.0,0.0,0.0,0.0,0.0,0.0,0.0,0.0,0.0,0.0,0.0,0.0,0.0,0.0,-2.4229,-2.67,-2.8549,-2.8994,-2.6631,-2.479,-2.4363,-2.3126,-2.1483,-1.9185,0.0,0.0,0.0,0.0,0.0,0.0,0.0,0.0,0.0,0.0,0.0,0.0,0.0,0.0,0.0,0.0,0.0,0.0,0.0,0.0,0.0,0.0,0.0,0.0,0.0,0.0,0.0,0.0,0.0,0.0,0.0,0.0,0.0,0.0,0.0,0.0,0.0,0.0,0.0,0.0,0.0,0.0,0.0,0.0,0.0,0.0,0.0,0.0,0.0,0.0,0.0,0.0,0.0,0.0,0.0,0.0,0.0,0.0,0.0,0.0,-1.4563,-1.3627,0.0,0.0,0.0,0.0,0.0,0.0,0.0,0.0,0.0,0.0,0.0,0.0,0.0,0.0,0.0,0.0,0.0,0.0,0.0,0.0,0.0,0.0,0.0,0.0,0.0,0.0,0.0,0.0,0.0,0.0,0.0,0.0,0.0,0.0,0.0,0.0,0.0,0.0,0.0,0.0,-2.3474,-2.7319,-2.9042,-2.6471,-2.6103,-2.5484,-2.408,-2.3282,-2.1964,-2.0067,-1.8677,0.0,0.0,0.0,0.0,0.0,0.0,0.0,0.0,0.0,0.0,0.0,0.0,0.0,0.0,0.0,0.0,0.0,0.0,0.0,0.0,0.0,0.0,0.0,0.0,0.0,0.0,0.0,0.0,0.0,0.0,0.0,0.0,0.0,0.0,0.0,0.0,0.0,0.0,0.0,0.0,0.0,0.0,0.0,0.0,0.0,0.0,0.0,0.0,0.0,0.0,0.0,0.0,0.0,0.0,0.0,0.0,0.0,0.0,0.0,-1.5899,-1.5164,0.0,0.0,0.0,0.0,0.0,0.0,0.0,0.0,0.0,0.0,0.0,0.0,0.0,0.0,0.0,0.0,0.0,0.0,0.0,0.0,0.0,0.0,0.0,0.0,0.0,0.0,0.0,0.0,0.0,0.0,0.0,0.0,0.0,0.0,0.0,0.0,0.0,0.0,0.0,0.0,-2.3891,-2.6388,-2.7483,-2.5951,-2.549,-2.472,-2.391,-2.3474,-2.2779,-2.1577,-2.0134,0.0,0.0,0.0,0.0,0.0,0.0,0.0,0.0,0.0,0.0,0.0,0.0,0.0,0.0,0.0,0.0,0.0,0.0,0.0,0.0,0.0,0.0,0.0,0.0,0.0,0.0,0.0,0.0,0.0,0.0,0.0,0.0,0.0,0.0,0.0,0.0,0.0,0.0,0.0,0.0,0.0,0.0,0.0,0.0,0.0,0.0,0.0,0.0,0.0,0.0,0.0,0.0,0.0,-1.7154,-1.7315,-1.7328,-1.7622,-1.817,-1.8798,-1.7368,-1.6994,-1.7275,-1.5752,0.0,0.0,0.0,0.0,0.0,0.0,0.0,0.0,0.0,0.0,0.0,0.0,0.0,0.0,0.0,0.0,0.0,0.0,0.0,0.0,0.0,0.0,-1.6967,-1.6967,-1.7716,-1.8064,-1.7091,0.0,0.0,0.0,0.0,0.0,0.0,0.0,0.0,0.0,0.0,0.0,-2.4115,-2.5094,-2.5707,-2.5974,-2.4717,-2.3928,-2.3928,-2.3875,-2.3634,-2.3126,-2.163,-2.0401,0.0,0.0,0.0,0.0,0.0,0.0,0.0,0.0,0.0,0.0,0.0,0.0,0.0,0.0,0.0,0.0,0.0,0.0,0.0,0.0,0.0,0.0,0.0,0.0,0.0,0.0,0.0,0.0,0.0,0.0,0.0,0.0,-1.6028,-1.4497,0.0,0.0,0.0,0.0,0.0,0.0,0.0,0.0,0.0,0.0,0.0,0.0,0.0,-1.6754,-1.7341,-1.817,-1.8704,-1.8971,-1.9506,-1.9773,-1.9773,-2.008,-2.0281,-2.0388,-2.0401,0.0,-1.8277,-1.7782,0.0,0.0,0.0,0.0,0.0,0.0,0.0,0.0,0.0,0.0,0.0,0.0,0.0,0.0,0.0,0.0,0.0,0.0,0.0,0.0,0.0,0.0,-1.9706,-1.9706,-1.9826,-1.9867,-1.9703,-1.7795,-1.6279,-1.6979,-1.6258,-1.5673,0.0,0.0,0.0,0.0,0.0,0.0,-2.2468,-2.4864,-2.6124,-2.4692,-2.4515,-2.4516,-2.4516,-2.4289,-2.4115,-2.4035,-2.3327,-2.2084,-2.0201,-1.7909,0.0,0.0,0.0,0.0,0.0,0.0,0.0,0.0,0.0,0.0,0.0,0.0,0.0,0.0,0.0,0.0,0.0,0.0,0.0,0.0,0.0,0.0,0.0,0.0,0.0,0.0,0.0,0.0,0.0,-1.6427,-1.5905,-1.5238,-1.4303,-1.3529,0.0,0.0,0.0,0.0,0.0,0.0,0.0,0.0,0.0,-1.7248,-1.7716,-1.8317,-1.9065,-1.9626,-1.9973,-2.0107,-2.0521,-2.0722,-2.0735,-2.1029,-2.1176,-2.1189,-2.147,-2.1069,-2.0134,-1.9185,-1.8143,-1.7074,0.0,0.0,0.0,0.0,-1.6326,-1.6353,-1.7435,-1.7716,-1.7515,-1.7235,0.0,0.0,0.0,0.0,0.0,0.0,0.0,-1.8103,-1.8998,-1.972,-2.0361,-2.0855,-2.0975,-2.1015,-2.1189,-2.0307,-1.926,-1.84,-1.7725,-1.6981,-1.6059,-1.7022,0.0,0.0,0.0,-2.2722,-2.3261,-2.4479,-2.5105,-2.4422,-2.4556,-2.4636,-2.4636,-2.4516,-2.4382,-2.4209,-2.3968,-2.334,-2.2271,-1.9676,-1.7091,0.0,0.0,0.0,0.0,0.0,0.0,0.0,0.0,0.0,0.0,0.0,0.0,0.0,0.0,0.0,0.0,0.0,0.0,0.0,0.0,0.0,0.0,0.0,0.0,0.0,0.0,0.0,0.0,-1.7237,-1.6826,-1.6764,-1.5289,-1.4239,0.0,0.0,0.0,0.0,0.0,0.0,-1.6473,-1.6994,-1.7689,-1.8584,-1.9105,-1.976,-2.0561,-2.0788,-2.0935,-2.1015,-2.1309,-2.1443,-2.1456,-2.183,-2.2004,-2.2017,-2.2311,-2.2271,-2.1897,-2.0508,-1.9533,-1.8865,-1.8196,-1.7716,-1.7462,-1.805,-1.813,-1.8116,-1.9372,-1.9666,-1.9452,-1.9225,-1.9011,-1.8664,-1.7769,0.0,0.0,0.0,0.0,-1.9386,-2.0334,-2.0748,-2.1069,-2.1737,-2.1884,-2.1951,-2.2164,-2.2151,-2.1617,-2.0013,-1.9586,-1.8905,-1.7061,-1.8531,0.0,-1.9405,-2.1024,-2.2835,-2.4082,-2.4268,-2.4396,-2.4609,-2.4636,-2.4636,-2.4636,-2.4636,-2.4543,-2.4329,-2.4315,-2.4182,-2.3888,-2.1289,-1.87,-1.6445,0.0,0.0,0.0,0.0,0.0,0.0,0.0,0.0,0.0,0.0,0.0,0.0,0.0,0.0,0.0,0.0,0.0,0.0,0.0,0.0,0.0,0.0,0.0,0.0,0.0,0.0,0.0,0.0,0.0,-1.9094,-1.7358,0.0,0.0,0.0,0.0,-1.5698,-1.6046,-1.6847,-1.8277,-1.8651,-1.9212,-2.0094,-2.0428,-2.0882,-2.1483,-2.1496,-2.1643,-2.1924,-2.2218,-2.2352,-2.2365,-2.2966,-2.3233,-2.326,-2.3554,-2.3514,-2.314,-2.1937,-2.0935,-2.0147,-2.0094,-1.9733,-1.9305,-1.988,-2.0094,-2.0174,-2.0802,-2.1015,-2.1002,-2.0975,-2.0414,-1.972,-1.9666,-1.9265,0.0,0.0,-2.0735,-2.1243,-2.2405,-2.2726,-2.2739,-2.2779,-2.2792,-2.2806,-2.2819,-2.2592,-2.2285,-2.1911,-2.2044,-2.1844,-2.0615,0.0,-2.1155,-2.1397,-2.18,-2.2593,-2.4071,-2.4409,-2.4623,-2.4636,-2.4636,-2.4636,-2.4636,-2.4636,-2.4623,-2.4609,-2.4609,-2.4489,-2.4195,-2.2286,-1.9818,-1.67,-1.4572,0.0,0.0,0.0,0.0,0.0,0.0,0.0,0.0,0.0,0.0,0.0,0.0,0.0,0.0,0.0,0.0,0.0,0.0,0.0,0.0,0.0,0.0,0.0,0.0,0.0,0.0,0.0,0.0,-1.7696,-1.715,0.0,-1.6273,-1.6673,-1.7114,-1.7515,-1.8156,-1.8851,-1.9573,-1.9893,-2.0281,-2.0775,-2.1269,-2.171,-2.2111,-2.2498,-2.2752,-2.2846,-2.3153,-2.3287,-2.33,-2.3514,-2.3607,-2.3621,-2.3728,-2.3714,-2.3581,-2.3153,-2.2565,-2.1924,-2.1924,-2.1804,-2.1643,-2.1844,-2.1924,-2.1951,-2.2164,-2.2231,-2.2231,-2.2231,-2.2031,-2.1777,-2.1777,-2.1764,-2.1844,-2.2271,-2.2592,-2.2913,-2.334,-2.3447,-2.3447,-2.3447,-2.3447,-2.3447,-2.3447,-2.3367,-2.326,-2.3153,-2.2899,-2.2392,-2.1416,-2.2271,-2.2806,-2.1964,-2.2899,-2.3875,-2.4409,-2.4569,-2.4716,-2.4903,-2.4917,-2.4997,-2.5184,-2.5024,-2.4917,-2.4917,-2.4743,-2.4596,-2.4489,-2.3692,-2.2075,-1.9689,-1.8705,-1.5812,0.0,0.0,0.0,0.0,0.0,0.0,0.0,0.0,0.0,0.0,0.0,0.0,0.0,0.0,0.0,0.0,0.0,0.0,0.0,0.0,0.0,0.0,0.0,0.0,0.0,0.0,-1.7951,-1.7764,-1.7748,-1.7635,-1.7341,-1.8023,-1.8611,-1.8905,-1.9559,-2.012,-2.0508,-2.0909,-2.1296,-2.1697,-2.2178,-2.2579,-2.2873,-2.3273,-2.3474,-2.3474,-2.3781,-2.3915,-2.3915,-2.4022,-2.4062,-2.4062,-2.4062,-2.4062,-2.4062,-2.4062,-2.3821,-2.3447,-2.3247,-2.3166,-2.3166,-2.3166,-2.3166,-2.3166,-2.3166,-2.3166,-2.3166,-2.3166,-2.3166,-2.3166,-2.3166,-2.3313,-2.35,-2.3594,-2.3768,-2.3941,-2.4035,-2.4062,-2.4062,-2.4062,-2.4062,-2.4062,-2.4062,-2.4062,-2.4088,-2.4195,-2.3728,-2.3126,-2.2552,-2.35,-2.3981,-2.2899,-2.3901,-2.4756,-2.4649,-2.481,-2.501,-2.5211,-2.5224,-2.5304,-2.5491,-2.497,-2.481,-2.5197,-2.4676,-2.4476,-2.477,-2.4315,-2.2815,-2.0218,-1.8502,-1.5837,-1.2337,0.0,0.0,0.0,0.0,0.0,0.0,0.0,0.0,0.0,0.0,0.0,0.0,0.0,0.0,0.0,0.0,0.0,0.0,0.0,0.0,0.0,0.0,0.0,-2.0654,-1.9701,-1.9023,-1.9554,-1.9153,-1.8838,-1.8571,-1.9065,-1.9533,-1.984,-2.012,-2.0548,-2.1149,-2.1724,-2.2298,-2.2873,-2.3193,-2.3487,-2.3781,-2.3794,-2.3794,-2.3794,-2.4088,-2.4222,-2.4222,-2.4502,-2.4636,-2.4636,-2.4636,-2.4636,-2.4636,-2.4636,-2.4636,-2.4583,-2.4022,-2.3794,-2.3794,-2.3794,-2.3794,-2.3794,-2.3794,-2.3794,-2.3794,-2.3794,-2.3794,-2.3794,-2.3794,-2.3794,-2.3861,-2.4142,-2.4222,-2.4289,-2.4569,-2.4649,-2.4649,-2.4649,-2.4663,-2.4663,-2.4663,-2.4663,-2.4743,-2.5037,-2.4636,-2.4249,-2.4249,-2.4476,-2.4569,-2.4289,-2.473,0.0,-2.4703,-2.5157,-2.5504,-2.5504,-2.5504,-2.5504,-2.5518,-2.4462,-2.4302,-2.5451,-2.4462,-2.4209,-2.5064,-2.4275,-2.2069,-1.8052,-1.3826,-1.1867,-1.2289,0.0,0.0,0.0,0.0,0.0,0.0,0.0,0.0,0.0,0.0,0.0,0.0,0.0,0.0,0.0,0.0,0.0,0.0,0.0,0.0,0.0,0.0,-1.8199,-1.887,-1.8743,-1.8851,-1.936,-1.932,-1.9386,-1.972,-2.0094,-2.0521,-2.1029,-2.1336,-2.1857,-2.2672,-2.2873,-2.3126,-2.3514,-2.3808,-2.4008,-2.4088,-2.4289,-2.4396,-2.4396,-2.4476,-2.4516,-2.4516,-2.4596,-2.4636,-2.4636,-2.4636,-2.4636,-2.4636,-2.4636,-2.4636,-2.4623,-2.4462,-2.4396,-2.4396,-2.4396,-2.4396,-2.4396,-2.4396,-2.4396,-2.4396,-2.4396,-2.4396,-2.4396,-2.4396,-2.4396,-2.4422,-2.4489,-2.4516,-2.4529,-2.4609,-2.4796,-2.4957,-2.4957,-2.5117,-2.5277,-2.5277,-2.5277,-2.5291,-2.5384,-2.5264,-2.5157,-2.5157,-2.5211,-2.5251,-2.5157,-2.5291,-2.5371,-2.5277,-2.5411,-2.5438,-2.5224,-2.5197,-2.5291,-2.5491,-2.5024,-2.5037,-2.5785,-2.5331,-2.5144,-2.5384,-2.5157,-2.3667,-2.0957,-1.5951,-1.3456,0.0,0.0,0.0,0.0,0.0,0.0,0.0,0.0,0.0,0.0,0.0,0.0,0.0,0.0,0.0,0.0,0.0,0.0,0.0,0.0,0.0,0.0,-1.8207,-1.8702,-1.8828,-1.8823,-1.9078,-1.9653,-1.9947,-2.0281,-2.0735,-2.1162,-2.155,-2.1897,-2.2311,-2.2832,-2.3474,-2.3634,-2.3834,-2.4128,-2.4302,-2.4382,-2.4382,-2.4556,-2.4703,-2.4823,-2.4823,-2.489,-2.501,-2.501,-2.501,-2.501,-2.501,-2.501,-2.501,-2.501,-2.501,-2.4983,0.0,0.0,0.0,0.0,-2.4636,-2.4636,-2.4636,-2.4636,-2.4663,-2.4783,-2.4823,-2.485,-2.497,-2.501,-2.501,-2.501,-2.501,-2.501,-2.501,-2.513,-2.5264,-2.5264,-2.5384,-2.5518,-2.5518,-2.5518,-2.5545,-2.5678,-2.5692,0.0,-2.5865,-2.5678,-2.5478,-2.5344,-2.5545,-2.5651,-2.5531,-2.5732,-2.5812,-2.5651,-2.5625,-2.5692,-2.5865,-2.5277,0.0,0.0,0.0,-2.5144,-2.5144,-2.441,0.0,0.0,0.0,-1.4265,-1.3387,-1.5134,0.0,0.0,-1.8751,-1.972,0.0,0.0,0.0,0.0,0.0,0.0,0.0,0.0,0.0,0.0,0.0,0.0,0.0,0.0,0.0,0.0,-1.8544,-1.9573,-1.9907,-1.9786,-1.9853,-2.0374,-2.0895,-2.1323,-2.1617,-2.2151,-2.2485,-2.2512,-2.3086,-2.3554,-2.3848,-2.4115,0.0,0.0,0.0,-2.4649,-2.469,-2.469,-2.4836,-2.513,-2.513,-2.5264,-2.5518,-2.5518,-2.5518,-2.5518,-2.5518,-2.5518,-2.5518,-2.5518,-2.5518,-2.5464,-2.4943,-2.473,-2.473,-2.473,-2.473,-2.473,-2.473,0.0,0.0,-2.5037,-2.513,-2.5184,-2.5438,-2.5518,-2.5518,-2.5518,-2.5518,-2.5518,-2.5518,-2.5545,-2.5558,-2.5558,-2.5585,-2.5625,-2.5651,-2.5665,-2.5745,-2.6052,-2.6106,-2.6186,-2.644,-2.6026,-2.5571,-2.5317,-2.5745,-2.6012,-2.5745,-2.6172,-2.6466,-2.64,-2.6386,0.0,-2.6386,-2.5438,-2.5304,-2.6413,-2.5478,-2.489,-2.489,-2.2744,-2.0489,-1.8101,-1.6098,-1.431,-1.2752,-1.6454,-1.8491,-1.8734,-1.9224,-2.0401,0.0,0.0,0.0,0.0,0.0,0.0,0.0,0.0,0.0,0.0,0.0,0.0,0.0,0.0,0.0,-1.8477,-1.9412,-2.0254,-2.0775,-2.1216,-2.1523,-2.163,-2.175,-2.1924,-2.2218,-2.2565,-2.2886,-2.3126,-2.3701,-2.4168,-2.4449,-2.4516,-2.4583,-2.4636,-2.4636,-2.4756,-2.4997,-2.4997,-2.5144,-2.5424,-2.5424,0.0,-2.5518,-2.5518,-2.5518,-2.5518,-2.5518,-2.5518,-2.5518,-2.5518,-2.5518,-2.5504,-2.5384,-2.5344,-2.5344,-2.5344,-2.5344,-2.5344,-2.5344,-2.5344,-2.5358,-2.5411,-2.5424,-2.5438,-2.5491,-2.5518,0.0,-2.5518,-2.5518,-2.5518,-2.5518,-2.5692,-2.5865,-2.5865,-2.6052,-2.6279,-2.652,-2.6573,-2.6653,-2.6961,-2.7014,-2.7028,-2.7081,-2.68,-2.6547,-2.6493,-2.6787,-2.6987,-2.6934,-2.7028,-2.6921,-2.644,-2.6386,-2.6386,-2.6386,-2.6186,-2.6346,-2.7054,-2.6653,-2.64,-2.64,-2.238,-1.9938,-1.931,-1.5515,-1.3296,-1.2915,-1.5382,-1.7391,-1.9088,-2.2165,-2.3714,0.0,0.0,0.0,0.0,0.0,0.0,0.0,0.0,0.0,0.0,0.0,-1.7382,0.0,0.0,-1.9372,-2.012,-2.0735,-2.1309,-2.1911,-2.2498,-2.2766,-2.2458,-2.2565,-2.2712,-2.2859,-2.3273,-2.3541,-2.3554,-2.4088,-2.4489,-2.4623,-2.4636,-2.4703,-2.485,-2.4863,-2.4997,-2.5291,-2.5291,-2.5438,-2.5732,-2.5732,-2.5812,-2.5945,-2.5945,-2.5945,-2.5945,-2.5945,-2.5945,-2.5959,-2.6106,-2.6079,-2.5959,-2.6106,-2.5892,-2.5518,-2.5518,-2.5518,-2.5518,-2.5518,-2.5518,-2.5545,-2.5692,-2.5732,-2.5758,-2.5905,-2.5945,-2.5985,-2.6132,-2.6172,-2.6199,-2.6346,-2.6507,-2.6613,-2.6613,-2.672,-2.6867,-2.7014,-2.7041,-2.7094,-2.7241,-2.7268,-2.7268,-2.7268,-2.7268,-2.7215,-2.7068,-2.7175,-2.7268,-2.7268,-2.7268,-2.7148,-2.6854,-2.6827,-2.6827,-2.6827,-2.6827,-2.6947,-2.7241,-2.7121,-2.7041,-2.7041,-2.3631,-2.121,-2.0232,-1.6683,-1.4305,-1.318,-1.5081,-1.6564,-1.7659,-2.1636,-2.3996,0.0,0.0,0.0,0.0,0.0,0.0,0.0,0.0,-1.7048,-1.7996,-1.8624,-1.9212,-1.992,-2.0388,-2.0869,-2.1523,-2.1977,-2.2405,-2.2886,-2.3474,-2.3674,-2.318,-2.334,-2.35,-2.35,-2.3928,-2.4102,-2.3875,-2.4396,-2.4716,-2.4716,-2.477,-2.4917,-2.5157,-2.5157,-2.5304,-2.5598,-2.5598,-2.5745,-2.6039,-2.6039,-2.6159,-2.6386,-2.6386,-2.6426,-2.648,-2.6533,-2.656,-2.6573,-2.6814,-2.6774,-2.6587,-2.6814,-2.648,-2.5838,-2.5785,-2.5798,-2.5852,-2.5852,-2.5852,-2.5892,-2.6132,-2.6213,-2.6253,-2.6493,-2.656,-2.6613,-2.6841,-2.6907,-2.6961,-2.7201,-2.7268,-2.7268,-2.7268,-2.7268,-2.7281,-2.7335,-2.7348,-2.7362,-2.7428,-2.7442,-2.7442,-2.7442,-2.7629,-2.7682,-2.7388,-2.7402,-2.7442,-2.7442,-2.7442,-2.7442,-2.7442,-2.7442,-2.7442,-2.7442,-2.7442,-2.7442,-2.7442,-2.7375,-2.7348,-2.7348,-2.5108,-2.2743,-2.0721,-1.8063,-1.5609,-1.3485,-1.4845,-1.5827,-1.6309,-2.0126,-2.3045,-1.0092,-1.1895,0.0,-1.65,-1.6901,-1.7408,0.0,0.0,-1.8945,-2.0094,-2.0588,-2.0842,-2.0949,-2.163,-2.2124,-2.1964,-2.2632,-2.3207,-2.326,-2.3781,-2.4128,-2.4062,-2.4088,-2.4102,-2.4102,-2.4168,-2.4195,-2.4155,-2.4703,-2.5037,-2.5037,-2.5277,-2.5424,-2.5464,-2.5464,-2.5611,-2.5905,-2.5905,-2.6052,-2.6346,-2.6346,-2.636,-2.6386,-2.6386,-2.6533,-2.6787,-2.7054,-2.7161,-2.7175,-2.7201,-2.7201,-2.7175,-2.7201,-2.7161,-2.7041,-2.6774,-2.6841,-2.7068,-2.7068,-2.7068,-2.7081,-2.7108,-2.7121,-2.7121,-2.7161,-2.7161,-2.7175,-2.7201,-2.7215,-2.7228,-2.7255,-2.7268,-2.7268,-2.7268,-2.7268,-2.7335,-2.7589,-2.7655,-2.7722,-2.7989,-2.8043,-2.8043,-2.8043,-2.807,-2.7989,-2.7696,-2.7869,-2.8043,-2.8043,-2.8043,-2.8043,-2.8043,-2.8043,-2.8043,-2.8043,-2.8043,-2.8043,-2.8043,-2.7802,-2.7655,-2.7655,-2.5206,-2.2898,-2.0721,-1.8334,-1.614,-1.379,-1.3919,-1.5086,-1.7095,-1.958,-2.1459,-1.3597,0.0,0.0,0.0,-1.9078,-1.9466,-2.0508,-2.0454,-2.0428,-2.1269,-2.167,-2.1924,-2.2098,-2.2579,-2.302,0.0,-2.3594,-2.3901,-2.4062,-2.4302,-2.4449,-2.4449,-2.4609,-2.4583,-2.4235,-2.4516,-2.4636,-2.4462,-2.4997,-2.5331,-2.5331,-2.5451,-2.5585,-2.5758,-2.5772,-2.5905,-2.6199,-2.6213,-2.636,-2.664,-2.664,-2.6734,-2.6894,-2.6894,-2.6961,-2.7094,-2.7215,-2.7268,-2.7281,-2.7455,-2.7415,-2.7281,-2.7455,-2.7522,-2.7482,-2.7188,-2.7161,-2.7268,-2.7268,-2.7268,-2.7268,-2.7268,-2.7268,-2.7268,-2.7268,-2.7268,-2.7308,-2.7468,-2.7522,-2.7562,-2.7736,-2.7776,-2.7776,-2.7776,-2.7776,-2.7802,-2.7936,-2.7963,-2.7989,-2.8123,-2.8136,-2.8136,-2.8136,-2.8136,-2.8096,-2.7976,-2.8056,-2.8136,-2.8136,-2.8136,-2.8136,-2.8136,-2.8136,-2.8136,-2.8136,-2.8136,-2.8136,-2.8136,-2.803,-2.7433,-2.6061,-2.3732,-2.1279,-1.9066,-1.6575,-1.4995,-1.3973,-1.3885,-1.4351,-1.519,-1.8885,-2.0859,-1.6541,0.0,0.0,-1.9958,-2.0695,-2.1096,-2.1309,-2.1416,-2.1617,-2.2124,-2.2458,-2.2766,-2.306,-2.3367,-2.3701,-2.4128,-2.4275,-2.4396,-2.4609,-2.4636,-2.4636,-2.4636,-2.4903,-2.4917,-2.4489,-2.4903,-2.5104,-2.489,-2.5344,-2.5638,-2.5638,-2.5705,-2.5852,-2.6066,-2.6159,-2.6293,-2.6507,-2.6587,-2.6734,-2.6947,-2.6947,-2.7054,-2.7268,-2.7348,-2.7388,-2.7388,-2.7468,-2.7509,-2.7522,-2.7736,-2.7696,-2.7535,-2.7736,-2.7816,-2.7789,-2.69,-2.7,-2.7509,-2.7509,-2.7509,-2.7509,-2.7509,-2.7509,-2.7509,-2.7509,-2.7509,-2.7549,-2.7762,-2.7816,-2.7869,-2.8083,-2.8136,-2.8136,-2.8136,-2.8136,-2.8136,-2.8136,-2.8217,-2.827,-2.827,-2.8337,-2.839,-2.839,-2.839,-2.839,-2.839,-2.839,-2.8323,-2.8163,-2.8217,-2.827,-2.827,-2.8337,-2.839,-2.839,-2.839,-2.839,-2.839,-2.839,-2.7656,-2.5848,-2.357,-2.1108,-1.8802,-1.6427,-1.4821,-1.4136,-1.4021,-1.3987,-1.4021,-1.811,-1.9846,-1.8046,0.0,-1.9933,-2.0508,-2.1309,-2.1951,-2.1951,-2.2178,-2.2472,-2.2779,-2.3086,-2.3394,-2.3688,-2.3981,-2.4182,-2.4195,-2.4436,-2.4623,-2.4636,-2.4636,-2.4636,-2.4636,-2.4903,-2.5077,0.0,-2.5331,-2.5491,-2.5491,-2.5772,-2.5945,-2.5945,-2.6213,-2.6373,-2.6373,-2.6653,-2.68,-2.6814,-2.7094,-2.7241,-2.7255,-2.7255,-2.7255,-2.7281,-2.7562,-2.7682,-2.7709,-2.7989,-2.8123,-2.8123,-2.8123,-2.8123,-2.8123,-2.8123,-2.8123,-2.7954,-2.5701,-2.6223,-2.8123,-2.8123,-2.8123,-2.8123,-2.8123,-2.8123,-2.8123,-2.8123,-2.8123,-2.8123,-2.8123,-2.8123,-2.8136,-2.8136,-2.8136,-2.8136,-2.8136,-2.8136,-2.8136,-2.8136,-2.8377,-2.8591,-2.8591,-2.8818,-2.9005,-2.9005,-2.9005,-2.9005,-2.9005,-2.9005,-2.8804,-2.8217,-2.8404,-2.8591,-2.8591,-2.8845,-2.9005,-2.9005,-2.9005,-2.9005,-2.9005,-2.9005,-2.8885,-2.8433,-2.629,-2.3715,-2.1221,-1.8793,-1.6545,-1.4292,-1.4285,-1.4353,-1.4489,-1.696,-1.8118,-1.8945,-1.9274,-1.9584,-2.1661,-2.1526,-2.1358,-2.2836,-2.3247,-2.334,-2.3447,-2.3701,-2.3875,-2.3794,-2.4168,-2.4422,-2.4235,-2.4449,-2.4636,-2.4636,-2.481,-2.493,-2.493,-2.5358,0.0,0.0,0.0,-2.5812,-2.5812,-2.6079,-2.6239,-2.6239,-2.6333,-2.648,-2.6667,-2.6774,-2.6921,-2.7108,-2.7215,-2.7362,-2.7549,-2.7749,-2.7843,-2.7856,-2.7949,-2.811,-2.8297,-2.819,-2.7382,-2.6142,-2.597,-2.502,-2.3641,-2.3641,-2.3641,-2.347,-2.26,-2.2944,-2.3812,-2.5373,-2.485,-2.3812,-2.5373,-2.485,-2.3641,-2.3641,-2.4679,-2.5896,-2.5896,-2.7081,-2.8457,-2.8457,-2.8591,-2.8738,-2.8738,-2.8738,-2.8738,-2.8738,-2.8818,-2.8898,-2.8898,-2.8965,-2.9045,-2.9045,-2.9045,-2.9045,-2.9045,-2.9045,-2.8965,-2.8764,-2.8831,-2.8898,-2.8898,-2.8978,-2.9045,-2.9045,-2.9045,-2.9045,-2.9045,-2.9045,-2.8282,-2.676,-2.426,-2.1747,-1.9364,-1.6892,-1.5298,-1.459,-1.459,-1.4618,-1.4665,-1.6986,-1.8091,-1.8125,-1.8139,-1.8295,-2.0527,-2.0309,-2.0043,-2.225,-2.2819,-2.304,-2.3771,-2.3995,-2.4062,-2.4075,-2.4209,-2.4409,-2.4636,-2.4743,-2.4863,-2.5077,-2.5184,-2.5237,-2.5237,-2.5665,-2.5959,0.0,0.0,0.0,-2.6106,-2.6279,-2.6386,-2.6386,-2.6493,-2.6627,-2.6814,-2.7028,-2.7228,-2.7415,-2.7522,-2.7722,-2.803,-2.8217,-2.831,-2.831,-2.819,-2.8257,-2.843,-2.823,-2.7029,-2.4926,-2.4761,-2.3298,-2.1221,-2.1221,-2.1221,-2.1048,-2.0356,-2.0009,-2.0356,-2.2611,-2.2439,-2.1394,-2.2955,-2.2428,-2.1231,-2.1312,-2.233,-2.3492,-2.3581,-2.4776,-2.5957,-2.5957,-2.686,-2.761,-2.7785,-2.8321,-2.9045,-2.9045,-2.9125,-2.9205,-2.9205,-2.9285,-2.9352,-2.9352,-2.9352,-2.9352,-2.9352,-2.9352,-2.9272,-2.9072,-2.9125,-2.9205,-2.9205,-2.9285,-2.9352,-2.9352,-2.9352,-2.9352,-2.9352,-2.9352,-2.8217,-2.5784,-2.3261,-2.0894,-1.8321,-1.5992,-1.474,-1.474,-1.474,-1.4767,-1.4821,-1.6263,-1.7016,-1.5766,-1.6069,-1.6304,-1.7424,-1.7633,-1.8081,-2.0138,-2.0915,-2.1836,-2.3614,-2.3968,-2.3928,0.0,0.0,-2.4128,-2.5224,-2.5224,-2.5277,-2.5838,-2.5692,-2.5531,0.0,0.0,0.0,0.0,0.0,0.0,-2.6413,-2.6413,-2.6413,-2.6413,-2.668,-2.6854,-2.6867,-2.7402,-2.7709,-2.7722,-2.8016,-2.831,-2.8604,-2.8604,-2.8604,-2.8577,-2.8283,-2.815,-2.8163,-2.815,-2.677,-2.4531,-2.452,-2.3126,-2.0875,-2.0875,-2.0875,-2.0529,-1.8453,-1.7597,-1.7947,-2.0028,-2.0885,-2.0875,-2.1048,-2.0875,-2.0915,-2.0969,-2.1054,-2.1108,-2.1164,-2.1409,-2.1419,-2.1419,-2.3358,-2.5148,-2.5325,-2.7122,-2.8897,-2.9085,-2.9312,-2.9499,-2.9499,-2.9726,-2.9913,-2.9913,-2.9913,-2.9913,-2.9913,-2.9913,-2.9713,-2.9152,-2.9325,-2.9499,-2.9499,-2.9753,-2.9913,-2.9913,-2.9913,-2.9913,-2.9734,-2.9734,-2.8501,-2.5698,-2.3327,-2.0877,-1.8364,-1.584,-1.476,-1.476,-1.476,-1.4835,-1.4984,-1.4984,-1.5052,-1.5692,-1.5672,-1.5641,-1.7468,-1.6972,-1.6414,-1.8659,-2.0396,-2.1597,-2.186,-2.2934,-2.3674,0.0,0.0,0.0,-2.3875,-2.4556,0.0,-2.5277,-2.5611,0.0,-2.5838,0.0,-2.6279,-2.6279,-2.6346,0.0,-2.6694,-2.6707,-2.6707,-2.6707,-2.6987,-2.7255,-2.7468,-2.7615,-2.7802,-2.803,-2.8337,-2.8524,-2.8604,-2.8604,-2.8484,-2.8257,-2.8177,-2.827,-2.847,-2.8243,-2.6007,-2.251,-2.2157,-1.9671,-1.6034,-1.6034,-1.6034,-1.6034,-1.5344,-1.524,-1.5334,-1.6039,-1.6133,-1.6386,-1.8113,-1.7422,-1.6064,-1.6232,-1.7476,-1.8885,-1.891,-2.0497,-2.1861,-2.1861,-2.2573,-2.3668,-2.5489,-2.6402,-2.7491,-2.933,-2.9753,-2.9806,-2.9806,-2.986,-2.9913,-2.9913,-2.9913,-2.9913,-2.9913,-2.9913,-2.986,-2.9713,-2.9766,-2.9806,-2.9806,-2.9873,-2.9913,-2.9913,-2.9913,-2.9169,-2.7328,-2.7148,-2.6013,-2.3388,-2.0998,-1.9507,-1.8736,-1.6354,-1.5072,-1.5072,-1.5072,-1.5092,-1.5126,-1.5126,-1.5147,-1.4024,-1.4011,-1.4121,-1.5337,-1.4781,-1.4621,-1.6655,-1.8577,-2.0083,-2.0484,-2.19,0.0,-2.2712,-2.306,0.0,0.0,0.0,0.0,-2.5785,-2.6026,-2.6146,0.0,-2.6293,0.0,-2.6386,-2.6507,-2.664,0.0,-2.6827,-2.6881,-2.7014,-2.7295,-2.7522,-2.7696,-2.7829,-2.8043,-2.8337,-2.8644,-2.8804,-2.8791,-2.8671,-2.8511,-2.8337,-2.8203,-2.8243,-2.839,-2.7174,-2.4761,-2.1403,-2.0336,-1.7714,-1.4401,-1.4468,-1.4496,-1.4496,-1.4496,-1.4543,-1.4611,-1.4611,-1.4557,-1.4668,-1.6077,-1.5497,-1.4434,-1.4645,-1.5557,-1.661,-1.678,-1.7794,-1.8958,-1.8958,-2.0015,-2.1267,-2.2729,-2.3838,-2.4945,-2.6411,-2.6604,-2.6604,-2.6604,-2.8436,-2.9541,-2.8436,-2.9182,-2.9913,-2.9913,-2.9913,-2.9913,-2.9913,-2.9913,-2.9913,-2.9913,-2.9913,-2.9913,-2.9913,-2.9913,-2.8809,-2.6411,-2.6229,-2.4569,-2.1083,-1.9604,-1.8313,-1.7211,-1.5924,-1.5181,-1.5181,-1.5181,-1.5181,-1.5181,-1.5181,-1.5181,-1.1952,-1.2176,-1.2325,-1.2467,-1.2501,-1.2881,-1.434,-1.6287,-1.796,-1.9073,0.0,-2.1964,-2.2245,-2.2579,-2.326,-2.4676,0.0,-2.5798,-2.66,-2.652,-2.6386,-2.6386,-2.6426,-2.6453,-2.6453,-2.6707,-2.6894,-2.6934,-2.6934,-2.7054,-2.7308,-2.7602,-2.7776,-2.7816,-2.803,-2.831,-2.8657,-2.8871,-2.8978,-2.8978,-2.8724,-2.8406,-2.801,-2.7918,-2.7617,-2.7096,-2.5203,-2.2955,-2.0549,-1.884,-1.6635,-1.4529,-1.4679,-1.474,-1.474,-1.474,-1.4753,-1.4767,-1.4767,-1.4767,-1.4767,-1.4746,-1.4652,-1.4597,-1.4882,-1.4875,-1.4801,-1.4957,-1.4997,-1.4997,-1.4997,-1.674,-1.8499,-1.8871,-2.0529,-2.2188,-2.2372,-2.2556,-2.2556,-2.2556,-2.6048,-2.8256,-2.6048,-2.7521,-2.8989,-2.9362,-2.9362,-2.9541,-2.9913,-2.9913,-2.9913,-2.9913,-2.9913,-2.9913,-2.9913,-2.9554,-2.8436,-2.5866,-2.5491,-2.3106,-1.8685,-1.8499,-1.7398,-1.5181,-1.5181,-1.5181,-1.5181,-1.5181,-1.5181,-1.5181,-1.5181,-1.5181,-1.2006,-1.2176,-1.2325,-1.2467,-1.2501,-1.258,-1.2571,-1.5018,0.0,0.0,-1.9233,-2.1349,-2.1643,-2.2138,-2.2819,-2.3834,-2.485,-2.5651,-2.6052,-2.6266,-2.6386,0.0,-2.66,-2.6747,-2.6747,-2.7014,0.0,0.0,-2.7549,-2.7562,-2.7615,-2.7909,-2.8177,-2.8444,-2.8243,-2.8404,-2.8965,-2.8778,-2.8684,-2.8684,-2.8631,-2.7418,-2.5446,-2.5397,-2.4166,-2.2428,-2.1911,-2.0529,-1.8296,-1.8143,-1.6635,-1.4529,-1.4679,-1.474,-1.474,-1.474,-1.4821,-1.493,-1.493,-1.493,-1.4909,-1.478,-1.4719,-1.4733,-1.4916,-1.495,-1.4964,-1.5106,-1.5147,-1.5147,-1.5147,-1.5535,-1.6292,-1.8499,-1.9233,-2.0159,-2.2004,-2.2556,-2.2556,-2.2556,-2.3106,-2.3656,-2.33,-2.3483,-2.4398,-2.6592,-2.6785,-2.7521,-2.9734,-2.9913,-2.9913,-2.9913,-2.9913,-2.9913,-2.9913,-2.8076,-2.5866,-2.3289,-2.1258,-1.8871,-1.5917,-1.5924,-1.5549,-1.5181,-1.5181,-1.5181,-1.5181,-1.5181,-1.5181,-1.5181,-1.5181,-1.5181,-1.204,-1.223,-1.242,-1.2481,-1.2562,-1.2461,-1.185,0.0,0.0,0.0,-1.7668,-1.9674,-2.0704,0.0,0.0,-2.3394,-2.4529,-2.5438,-2.5892,-2.6199,0.0,-2.6386,-2.664,-2.6827,-2.6827,-2.7228,-2.7549,-2.7682,-2.7843,-2.7923,-2.7923,-2.807,-2.8217,-2.8364,-2.8377,-2.8524,-2.8818,-2.8671,-2.8604,-2.8604,-2.7221,-2.586,-2.4691,-2.347,-2.2256,-2.1048,-2.0009,-1.8855,-1.7747,-1.6697,-1.5753,-1.4767,-1.4909,-1.497,-1.497,-1.497,-1.5018,-1.5079,-1.5079,-1.5079,-1.5072,-1.4997,-1.4923,-1.4889,-1.5038,-1.5079,-1.5092,-1.516,-1.5181,-1.5181,-1.5181,-1.5181,-1.5556,-1.6658,-1.7032,-1.7211,-1.8507,-1.9798,-2.0159,-1.8871,-2.0714,-2.2188,-2.0899,-2.1636,-2.2923,-2.4021,-2.4204,-2.4763,-2.5866,-2.6048,-2.6966,-2.9541,-2.8809,-2.7883,-2.7883,-2.5673,-2.3289,-2.0714,-1.9604,-1.7763,-1.5368,-1.5181,-1.5181,-1.5181,-1.5181,-1.5181,-1.5181,-1.5181,-1.5181,-1.5181,-1.5181,-1.5181,-1.2128,-1.2325,-1.2515,-1.2583,-1.2691,-1.2542,-1.1647,-1.2768,0.0,-1.4739,-1.6365,-1.824,-2.0037,0.0,-2.2151,0.0,-2.4249,-2.5144,-2.5852,-2.6146,-2.6346,0.0,-2.6747,0.0,-2.7001,-2.7482,0.0,-2.7789,-2.8003,-2.8136,-2.8136,-2.8136,-2.8177,-2.8243,-2.8417,-2.8537,-2.8604,-2.8537,-2.8511,-2.8497,-2.6007,-2.452,-2.3824,-2.1566,-2.0183,-1.9671,-1.7805,-1.721,-1.7178,-1.5433,-1.4862,-1.4984,-1.5126,-1.5181,-1.5181,-1.5181,-1.5181,-1.5181,-1.5181,-1.5181,-1.5181,-1.5181,-1.5106,-1.5038,-1.5147,-1.5181,-1.5181,-1.5181,-1.5181,-1.5181,-1.5181,-1.5181,-1.5181,-1.5181,-1.5181,-1.5181,-1.5181,-1.6658,-1.7584,-1.5549,-1.8321,-2.0344,-1.8499,-1.9613,-2.1083,-2.1636,-2.182,-2.2004,-2.2372,-2.2556,-2.4032,-2.7883,-2.6604,-2.5491,-2.5491,-2.3106,-2.0899,-1.9056,-1.8313,-1.7211,-1.5368,-1.5181,-1.5181,-1.5181,-1.5181,-1.5181,-1.5181,-1.5181,-1.5201,-1.5228,-1.5201,-1.5215,-1.2352,-1.2481,-1.2569,-1.2847,-1.2929,-1.2705,-1.1803,0.0,-1.4002,-1.47,-1.5981,-1.7863,-2.0235,-2.0935,-2.175,-2.3447,-2.4035,-2.4676,-2.5798,-2.5972,-2.6186,-2.672,0.0,0.0,-2.7589,-2.7909,-2.8096,-2.8096,-2.8123,-2.8136,-2.8136,-2.8136,-2.827,-2.8564,-2.8323,-2.8323,-2.8604,-2.8323,-2.819,-2.819,-2.5908,-2.3652,-2.1394,-1.9141,-1.6896,-1.5006,-1.4785,-1.4854,-1.4889,-1.5011,-1.4957,-1.4984,-1.5126,-1.5181,-1.5181,-1.5181,-1.5181,-1.5181,-1.5181,-1.5181,-1.5181,-1.5181,-1.5174,-1.5167,-1.5181,-1.5181,-1.5181,-1.5181,-1.5181,-1.5181,-1.5181,-1.5181,-1.5181,-1.5181,-1.5181,-1.5181,-1.5181,-1.5368,-1.5556,-1.5181,-1.5556,-1.5737,-1.5549,-1.5737,-1.6658,-1.8871,-1.9233,-1.9974,-2.2188,-2.2556,-2.2749,-2.33,-2.2923,-2.2923,-2.2933,-2.0714,-1.9048,-1.8871,-1.6845,-1.5368,-1.5181,-1.5181,-1.5181,-1.5181,-1.5181,-1.5181,-1.5181,-1.5181,-1.5255,-1.5384,-1.5248,-1.533,-1.2678,-1.2569,-1.2691,-1.2908,-1.2895,-1.2583,-1.1687,0.0,-1.3806,-1.4514,-1.5968,-1.7754,-2.0024,-2.0655,-2.1376,-2.2966,-2.3634,-2.4289,-2.5291,-2.5585,-2.5905,-2.6493,-2.6827,0.0,0.0,0.0,-2.8136,-2.8136,-2.8136,-2.8136,-2.8136,-2.8136,-2.8203,-2.8323,-2.8203,-2.8203,-2.8323,-2.8203,-2.7448,-2.6066,-2.3641,-2.1394,-1.9141,-1.6729,-1.5219,-1.4428,-1.4489,-1.4618,-1.4801,-1.4923,-1.5025,-1.5106,-1.516,-1.5181,-1.5181,-1.5181,-1.5181,-1.5181,-1.5181,-1.5181,-1.5181,-1.5181,-1.5181,-1.5181,-1.5181,-1.5181,-1.5181,-1.5181,-1.5181,-1.5181,-1.5181,-1.5181,-1.5181,-1.5181,-1.5181,-1.5181,-1.5181,-1.5181,-1.5181,-1.5181,-1.5181,-1.5181,-1.5181,-1.5181,-1.5556,-1.6471,-1.6658,-1.7032,-1.7949,-1.8135,-1.8144,-1.8144,-1.9427,-2.0344,-2.0344,-1.8135,-1.6658,-1.6658,-1.5737,-1.5181,-1.5181,-1.5181,-1.5181,-1.5181,-1.5276,-1.5316,-1.5316,-1.5411,-1.5486,-1.5547,-1.5486,-1.552,-1.342,-1.3113,-1.2834,-1.2983,-1.2908,-1.2562,0.0,0.0,-1.3695,-1.4387,-1.5902,-1.7587,-1.964,-2.0347,-2.1002,-2.2378,-2.3113,-2.3834,-2.481,-2.5197,-2.5598,0.0,0.0,-2.6921,-2.7509,-2.7923,-2.8136,-2.8136,-2.8136,-2.8136,-2.8136,-2.8136,-2.8136,-2.8136,-2.8136,-2.8136,-2.8136,-2.7448,-2.6406,-2.4691,-2.1566,-1.9315,-1.7763,-1.5388,-1.4414,-1.4516,-1.4611,-1.4774,-1.4977,-1.5018,-1.5092,-1.5181,-1.5181,-1.5181,-1.5181,-1.5181,-1.5181,-1.5181,-1.5181,-1.5181,-1.5181,-1.5181,-1.5181,-1.5181,-1.5181,-1.5181,-1.5181,-1.5181,-1.5181,-1.5181,-1.5181,-1.5181,-1.5181,-1.5181,-1.5181,-1.5181,-1.5181,-1.5181,-1.5181,-1.5181,-1.5181,-1.5181,-1.5181,-1.5181,-1.5181,-1.5181,-1.5181,-1.5181,-1.5181,-1.5181,-1.5181,-1.5181,-1.6845,-1.7763,-1.7763,-1.6292,-1.5181,-1.5181,-1.5181,-1.5181,-1.5181,-1.5181,-1.5181,-1.5181,-1.5337,-1.5411,-1.5411,-1.556,-1.5662,-1.5703,-1.5655,-1.5662,-1.4597,-1.4125,-1.299,-1.3132,-1.3064,-1.2725,-1.1823,-1.2632,-1.3695,-1.4387,-1.5902,-1.7527,-1.9509,-2.004,-2.0628,-2.1804,-2.2485,-2.3287,-2.4476,-2.4903,-2.5304,0.0,0.0,-2.6627,-2.7215,-2.7802,-2.8136,-2.8136,-2.8136,-2.8136,-2.8136,-2.8136,-2.8136,-2.8136,-2.8136,-2.8136,-2.8136,-2.5896,-2.4691,-2.4691,-2.0009,-1.7755,-1.7763,-1.5497,-1.4509,-1.4529,-1.4835,-1.497,-1.4984,-1.512,-1.5181,-1.5181,-1.5181,-1.5181,-1.5181,-1.5181,-1.5181,-1.5181,-1.5181,-1.5181,-1.5181,-1.5181,-1.5181,-1.5181,-1.5181,-1.5181,-1.5181,-1.5181,-1.5181,-1.5181,-1.5181,-1.5181,-1.5181,-1.5181,-1.5181,-1.5181,-1.5181,-1.5181,-1.5181,-1.5181,-1.5181,-1.5181,-1.5181,-1.5181,-1.5181,-1.5181,-1.5181,-1.5181,-1.5181,-1.5181,-1.5181,-1.5181,-1.5181,-1.5181,-1.5181,-1.5181,-1.5181,-1.5181,-1.5181,-1.5181,-1.5181,-1.5181,-1.5181,-1.5181,-1.5337,-1.5411,-1.5411,-1.556,-1.571,-1.5845,-1.5703,-1.5716,-1.408,-1.3363,-1.2332,-1.2271,-1.2149,-1.2178,-1.2666,-1.3845,-1.5022,-1.5981,-1.7572,-1.8855,-1.9628,-1.988,-2.0521,-2.2298,-2.2739,-2.3354,-2.4743,-2.5184,0.0,-2.6186,-2.7041,-2.7655,0.0,-2.803,-2.8136,-2.8136,-2.8136,-2.8136,-2.8136,-2.8136,-2.8136,-2.8136,-2.8136,-2.7448,-2.5896,-2.5032,-2.3126,-2.0009,-1.8453,-1.6961,-1.5497,-1.484,-1.4624,-1.4835,-1.493,-1.5025,-1.512,-1.516,-1.5181,-1.5181,-1.5181,-1.5181,-1.5181,-1.5181,-1.5181,-1.5181,-1.5181,-1.5181,-1.5181,-1.5181,-1.5181,-1.5181,-1.5181,-1.5181,-1.5181,-1.5181,-1.5181,-1.5181,-1.5181,-1.5181,-1.5181,-1.5181,-1.5181,-1.5181,-1.5181,-1.5181,-1.5181,-1.5181,-1.5181,-1.5181,-1.5181,-1.5181,-1.5181,-1.5181,-1.5181,-1.5181,-1.5181,-1.5181,-1.5181,-1.5181,-1.5181,-1.5181,-1.5181,-1.5181,-1.5181,-1.5181,-1.5181,-1.5181,-1.5181,-1.5282,-1.5337,-1.5337,-1.5588,-1.5716,-1.5716,-1.5866,-1.5967,-1.6008,-1.5961,-1.5967,-1.3651,-1.3428,-1.2604,-1.1983,-1.1681,-1.1847,-1.3038,-1.4289,-1.5556,-1.6747,-1.8286,-1.9426,-1.9599,-1.9733,-2.0294,-2.179,-2.2405,-2.314,-2.4409,-2.5024,0.0,-2.6306,0.0,0.0,-2.7963,-2.8083,-2.8136,-2.8136,-2.8136,-2.8136,-2.8136,-2.8136,-2.7799,-2.6927,-2.6927,-2.6236,-2.4691,-2.2955,-2.0702,-1.7763,-1.6896,-1.5772,-1.4516,-1.457,-1.4733,-1.4977,-1.5025,-1.5099,0.0,-1.5181,-1.5181,-1.5181,-1.5181,-1.5181,-1.5181,-1.5181,-1.5181,-1.5181,-1.5181,-1.5181,-1.5181,-1.5181,-1.5181,-1.5181,-1.5181,-1.5181,-1.5181,-1.5181,-1.5181,-1.5181,-1.5181,-1.5181,-1.5181,-1.5181,-1.5181,-1.5181,-1.5181,-1.5181,-1.5181,-1.5181,-1.5181,-1.5181,-1.5181,-1.5181,-1.5181,-1.5181,-1.5181,-1.5181,-1.5181,-1.5181,-1.5181,-1.5181,-1.5181,-1.5181,-1.5181,-1.5181,-1.5181,-1.5181,-1.5181,-1.5208,-1.5269,-1.5357,-1.5438,-1.5493,-1.573,-1.5852,-1.5852,-1.6008,-1.6083,-1.6083,-1.6083,-1.6083,0.0,-1.3767,-1.3381,-1.1956,-1.1646,-1.1781,-1.2933,-1.4272,0.0,-1.6713,-1.8286,-1.9386,-1.9452,-1.9639,-2.004,-2.0748,-2.1764,-2.2779,-2.3728,-2.4623,0.0,0.0,-2.6961,-2.7415,-2.7736,-2.7989,-2.8136,-2.8136,-2.8136,-2.8136,-2.8136,-2.8136,-2.7109,-2.4691,-2.452,-2.4337,-2.4166,-2.0009,-1.7763,-1.7588,-1.5337,-1.438,-1.4529,-1.4672,-1.4828,-1.4991,-1.5126,-1.5181,-1.5181,-1.5181,-1.5181,-1.5181,-1.5181,-1.5181,-1.5181,-1.5181,-1.5181,-1.5181,-1.5181,-1.5181,-1.5181,-1.5181,-1.5181,-1.5181,-1.5181,-1.5181,-1.5181,-1.5181,-1.5181,-1.5181,-1.5181,-1.5181,-1.5181,-1.5181,-1.5181,-1.5181,-1.5181,-1.5181,-1.5181,-1.5181,-1.5181,-1.5181,-1.5181,-1.5181,-1.5181,-1.5181,-1.5181,-1.5181,-1.5181,-1.5181,-1.5181,-1.5181,-1.5181,-1.5181,-1.5181,-1.5181,-1.5181,-1.5181,-1.5181,-1.5248,-1.5404,-1.5418,-1.5499,-1.5649,-1.5798,-1.5866,-1.5866,-1.6015,-1.6083,-1.6083,-1.6083,-1.6083,-1.1034,0.0,-1.1233,-1.0514,-1.1394,-1.2395,0.0,-1.4745,-1.6748,-1.6914,-1.8286,-1.9573,-2.0241,-2.0054,-2.0441,-2.2392,-2.2739,-2.3233,-2.4583,-2.5531,0.0,-2.7281,-2.7509,-2.7802,-2.8337,-2.8243,-2.8136,-2.8136,-2.8136,-2.8136,-2.8136,-2.8136,-2.7109,-2.4691,-2.2955,-2.1221,-1.9488,-1.8279,-1.6896,-1.5168,-1.4646,-1.4434,-1.4685,-1.4726,-1.4882,-1.5133,-1.5167,-1.5181,-1.5181,-1.5181,-1.5181,-1.5181,-1.5181,-1.5181,-1.5181,-1.5181,-1.5181,-1.5181,-1.5181,-1.5181,-1.5181,-1.5181,-1.5181,-1.5181,-1.5181,-1.5181,-1.5181,-1.5181,-1.5181,-1.5181,-1.5181,-1.5181,-1.5181,-1.5181,-1.5181,-1.5181,-1.5181,-1.5181,-1.5181,-1.5181,-1.5181,-1.5181,-1.5181,-1.5181,-1.5181,-1.5181,-1.5181,-1.5181,-1.5181,-1.5181,-1.5181,-1.5181,-1.5181,-1.5181,-1.5181,-1.5181,-1.5181,-1.5181,-1.5181,-1.5248,-1.5404,-1.552,-1.5655,-1.5798,-1.5954,-1.6029,-1.6029,-1.6062,-1.6083,-1.6083,-1.6083,-1.6083,-1.2946,-1.2544,-1.176,-1.15,-1.213,-1.2867,-1.3633,-1.5529,-1.7138,-1.6997,-1.8286,-1.9546,-2.016,-1.9588,-1.9714,-2.2138,-2.219,-2.2841,-2.5498,0.0,-2.7375,-2.7843,-2.803,-2.819,-2.8377,-2.8243,-2.8136,-2.8136,-2.8136,-2.7786,-2.6588,-2.6588,-2.5032,-2.1566,-2.0356,-1.8976,-1.7763,-1.6729,-1.5513,-1.4299,-1.4299,-1.4496,-1.4848,-1.4848,-1.5045,-1.5391,-1.5391,-1.5391,-1.5384,-1.5316,-1.5289,-1.5282,-1.5208,-1.5181,-1.5181,-1.5181,-1.5181,-1.5181,-1.5181,-1.5181,-1.5181,-1.5181,-1.5181,-1.5181,-1.5181,-1.5181,-1.5181,-1.5181,-1.5181,-1.5181,-1.5181,-1.5181,-1.5181,-1.5181,-1.5181,-1.5181,-1.5181,-1.5181,-1.5181,-1.5181,-1.5181,-1.5181,-1.5181,-1.5181,-1.5181,-1.5181,-1.5181,-1.5181,-1.5181,-1.5181,-1.5181,-1.5181,-1.5181,-1.5181,-1.5181,-1.5181,-1.5215,-1.5282,-1.5289,-1.5384,-1.5608,-1.5696,-1.5805,-1.5954,-1.6042,-1.6083,-1.6083,-1.6083,-1.6083,-1.6083,-1.6083,-1.6083,-1.6222,-1.5787,-1.3797,-1.3304,-1.3286,-1.3706,-1.4661,-1.6189,-1.7208,-1.6374,-1.796,-1.9586,-1.9853,-1.9086,-1.9277,-2.1714,-2.1795,-2.2765,-2.6149,-2.7415,-2.7976,-2.807,-2.831,-2.8404,-2.823,-2.8177,-2.7968,-2.7617,-2.7617,-2.6588,-2.4337,-2.4166,-2.2267,-1.7929,-1.7763,-1.7588,-1.7238,-1.5344,-1.4299,-1.4299,-1.4319,-1.4557,-1.497,-1.4991,-1.5235,-1.5642,-1.5642,-1.5642,-1.5628,-1.5499,-1.5445,-1.5432,-1.5303,-1.5255,-1.5255,-1.5255,-1.5255,-1.5248,-1.5221,-1.5201,-1.5181,-1.5181,-1.5181,-1.5181,-1.5181,-1.5181,-1.5181,-1.5181,-1.5181,-1.5181,-1.5181,-1.5181,-1.5181,-1.5181,-1.5181,-1.5181,-1.5181,-1.5181,-1.5181,-1.5181,-1.5181,-1.5181,-1.5181,-1.5181,-1.5181,-1.5181,-1.5181,-1.5181,-1.5181,-1.5181,-1.5181,-1.5181,-1.5181,-1.5194,-1.5215,-1.5215,-1.5289,-1.5466,-1.5438,-1.554,-1.5839,-1.5879,-1.5947,-1.6083,-1.6083,-1.6083,-1.6083,-1.6083,-1.6083,-1.6083,-1.6083,-1.6083,-1.7378,-1.7314,-1.6393,-1.3865,-1.5048,-1.6013,-1.3295,-1.5957,-1.7923,-1.3765,-1.6544,-1.9824,-2.001,-2.0535,-2.1752,-2.4209,-2.4657,-2.5172,-2.6012,-2.6627,-2.7215,-2.7709,-2.7802,-2.8016,-2.8497,-2.8297,-2.7448,-2.5373,-2.5203,-2.4166,-2.1911,-2.1739,-2.0529,-1.7938,-1.7763,-1.6896,-1.4822,-1.4476,-1.4299,-1.4299,-1.4421,-1.4652,-1.4977,-1.5099,-1.533,-1.5642,-1.5642,-1.5642,-1.5635,-1.5615,-1.5601,-1.5601,-1.5581,-1.5567,-1.5567,-1.5567,-1.5567,-1.5554,-1.5418,-1.5289,-1.5181,-1.5181,-1.5181,-1.5181,-1.5181,-1.5181,-1.5181,-1.5181,-1.5181,-1.5181,-1.5181,-1.5181,-1.5181,-1.5181,-1.5181,-1.5181,-1.5181,-1.5181,-1.5181,-1.5181,-1.5181,-1.5181,-1.5181,-1.5181,-1.5181,-1.5181,-1.5181,-1.5181,-1.5181,-1.5181,-1.5181,-1.5181,-1.5181,-1.5235,-1.5364,-1.5377,-1.5493,-1.5771,-1.5547,-1.554,-1.5839,-1.5981,-1.6056,-1.6083,-1.6083,-1.6083,-1.6083,-1.6083,-1.6083,-1.6083,-1.6083,-1.6083,-1.7407,-1.8985,-2.0397,-2.0383,-1.9462,-1.7895,-1.5717,-1.7522,-1.8464,-1.382,-1.6264,-1.9309,-1.9792,-2.0391,-2.1455,-2.3504,-2.4998,-2.6146,-2.66,-2.7161,-2.7642,-2.7909,-2.8083,-2.823,-2.835,-2.823,-2.7279,-2.4861,-2.4691,-2.3126,-1.9488,-1.9315,-1.8279,-1.6034,-1.5858,-1.5337,-1.4299,-1.4299,-1.434,-1.4414,-1.4482,-1.4753,-1.5208,-1.5276,-1.5513,-1.5879,-1.5879,-1.5879,-1.5872,-1.5791,-1.5757,-1.575,-1.5669,-1.5642,-1.5628,-1.5547,-1.5567,-1.5615,-1.5466,-1.5418,-1.5418,-1.5337,-1.5303,-1.5289,-1.5208,-1.5181,-1.5181,-1.5181,-1.5181,-1.5181,-1.5181,-1.5181,-1.5181,-1.5181,-1.5181,-1.5181,-1.5181,-1.5181,-1.5181,-1.5181,-1.5181,-1.5181,-1.5181,-1.5181,-1.5181,-1.5181,-1.5181,-1.5181,-1.5181,-1.5181,-1.5181,-1.5181,-1.5255,-1.5337,-1.5404,-1.5486,-1.5628,-1.5839,-1.5805,-1.5832,-1.5967,-1.6042,-1.6083,-1.6083,-1.6083,-1.6083,-1.6083,-1.6083,-1.6083,-1.6083,-1.6083,-1.6083,-1.7291,-1.9828,-2.2574,-2.4268,-2.2394,-1.975,-1.8595,-1.9038,-1.8495,-1.4604,-1.6236,-1.855,-1.9265,-2.0544,0.0,-2.32,-2.5071,-2.6573,-2.7094,-2.7615,-2.7963,-2.803,-2.831,-2.8404,-2.8163,-2.7617,-2.6418,-2.3995,-2.347,-2.1221,-1.7247,-1.6896,-1.621,-1.4299,-1.4299,-1.4299,-1.4299,-1.4333,-1.4407,-1.4509,-1.4584,-1.4896,-1.5411,-1.5486,-1.5723,-1.6083,-1.6083,-1.6083,-1.6076,-1.5954,-1.5906,-1.5893,-1.5784,-1.5744,-1.573,-1.5615,-1.5622,-1.5676,-1.5554,-1.5547,-1.5567,-1.5452,-1.5411,-1.5384,-1.5228,-1.5208,-1.5228,-1.5194,-1.5181,-1.5181,-1.5181,-1.5181,-1.5181,-1.5181,-1.5181,-1.5181,-1.5181,-1.5181,-1.5181,-1.5181,-1.5181,-1.5181,-1.5181,-1.5181,-1.5181,-1.5181,-1.5181,-1.5181,-1.5181,-1.5181,-1.5194,-1.5228,-1.5343,-1.5438,-1.5506,-1.5655,-1.5791,-1.59,-1.6015,-1.6083,-1.6083,-1.6083,-1.6083,-1.6083,-1.6083,-1.6083,-1.6083,-1.6083,-1.6083,-1.6083,-1.6083,-1.6083,-1.73,-1.8609,-1.9734,-1.9878,-2.1051,-2.1768,-2.0564,-1.9078,-1.7456,-1.5235,-1.5951,-1.7345,-1.8508,-2.2385,-2.5644,-2.5777,-2.6199,-2.6493,-2.6814,-2.7134,-2.7428,-2.7696,-2.7989,-2.8163,-2.815,-2.6236,-2.3995,-2.1566,-1.9488,-1.7247,-1.4646,-1.4476,-1.4476,-1.4299,-1.4299,-1.4299,-1.4299,-1.4428,-1.4502,-1.4516,-1.4801,-1.5106,-1.5418,-1.5696,-1.5913,-1.6083,-1.6083,-1.6083,-1.6083,-1.6069,-1.6069,-1.6062,-1.6056,-1.6049,-1.6049,-1.6035,-1.5947,-1.5839,-1.5825,-1.5649,-1.5425,-1.5411,-1.5411,-1.5384,-1.5228,-1.5282,-1.5364,-1.5221,-1.5181,-1.5181,-1.5181,-1.5181,-1.5181,-1.5181,-1.5181,-1.5181,-1.5181,-1.5181,-1.5181,-1.5181,-1.5181,-1.5181,-1.5181,-1.5181,-1.5181,-1.5181,-1.5181,-1.5181,-1.5181,-1.5181,-1.5235,-1.5377,-1.5404,-1.552,-1.5798,-1.5961,-1.6056,-1.6062,-1.6076,-1.6083,-1.6083,-1.6083,-1.6083,-1.6083,-1.6083,-1.6083,-1.6083,-1.6083,-1.6083,-1.6083,-1.6083,-1.6083,-1.6778,-2.06,-2.4022,-2.0704,-2.1511,-2.2676,-2.1412,-1.9892,-1.8239,-1.6188,-1.5981,-1.7065,0.0,0.0,-2.4497,-2.5577,-2.6079,-2.6493,-2.6787,-2.7081,-2.7375,-2.7669,-2.7963,-2.8136,-2.8136,-2.6066,-2.3652,-2.1394,-1.915,-1.6721,-1.4476,-1.4299,-1.4299,-1.4299,-1.4299,-1.4299,-1.4299,-1.4441,-1.4557,-1.4658,-1.4957,-1.5262,-1.556,-1.5764,-1.594,-1.6083,-1.6083,-1.6083,-1.6083,-1.6083,-1.6083,-1.6083,-1.6083,-1.6083,-1.6069,-1.5974,-1.5961,-1.5981,-1.5886,-1.5845,-1.5811,-1.5716,-1.5683,-1.5655,-1.5513,-1.5506,-1.552,-1.5364,-1.5323,-1.5303,-1.5208,-1.5181,-1.5181,-1.5181,-1.5181,-1.5181,-1.5181,-1.5181,-1.5181,-1.5181,-1.5181,-1.5181,-1.5181,-1.5181,-1.5181,-1.5181,-1.5181,-1.5215,-1.5309,-1.5323,-1.5384,-1.554,-1.5635,-1.5771,-1.5981,-1.6049,-1.6083,-1.6083,-1.6083,-1.6083,-1.6083,-1.6083,-1.6083,-1.6083,-1.6083,-1.6083,-1.6083,-1.6083,-1.6083,-1.6083,-1.6083,-1.6083,-1.8023,-2.172,-2.5391,-2.2202,-2.2209,-2.2752,-2.1579,-2.0027,-1.8339,-1.6703,-1.6023,-1.666,-1.9388,0.0,0.0,0.0,-2.5714,-2.6627,-2.6921,-2.7215,-2.7509,-2.7802,-2.8016,-2.7968,-2.7109,-2.502,-2.2611,-2.0356,-1.7938,-1.6034,-1.4476,-1.4299,-1.4299,-1.4299,-1.4299,-1.4319,-1.4367,-1.4509,-1.4658,-1.4814,-1.516,-1.5438,-1.5649,-1.5839,-1.5981,-1.6083,-1.6083,-1.6083,-1.6083,-1.6083,-1.6083,-1.6083,-1.6083,-1.6083,-1.6069,-1.5961,-1.5995,-1.6069,-1.5961,-1.5961,-1.5995,-1.5886,-1.5852,-1.5818,-1.5628,-1.5635,-1.5662,-1.5466,-1.5411,-1.5384,-1.5282,-1.5221,-1.5181,-1.5181,-1.5181,-1.5181,-1.5181,-1.5181,-1.5181,-1.5181,-1.5181,-1.5181,-1.5181,-1.5181,-1.5181,-1.5181,-1.5221,-1.5296,-1.5398,-1.5452,-1.554,-1.5689,-1.5839,-1.5967,-1.6076,-1.6083,-1.6083,-1.6083,-1.6083,-1.6083,-1.6083,-1.6083,-1.6083,-1.6083,-1.6083,-1.6083,-1.6083,-1.6083,-1.6083,-1.6083,-1.6083,-1.6083,-2.1317,-2.1392,-2.2153,-2.3573,-2.2979,-2.1932,-2.1543,-1.9265,-1.7254,-1.6742,-1.6351,-1.6148,-1.6351,-1.9707,-2.2541,-2.3058,-2.5147,-2.6921,-2.7228,-2.7522,-2.7816,-2.811,-2.8136,-2.7279,-2.4861,-2.2611,-2.0183,-1.7929,-1.569,-1.4299,-1.4299,-1.4299,-1.4299,-1.4299,-1.4299,-1.4367,-1.4509,-1.4665,-1.4821,-1.4977,-1.5425,-1.5642,-1.5649,-1.5947,-1.6083,-1.6083,-1.6083,-1.6083,-1.6083,-1.6083,-1.6083,-1.6083,-1.6083,-1.6083,-1.6083,-1.6083,-1.6083,-1.6083,-1.6083,-1.5981,-1.5852,-1.5852,-1.5852,-1.5798,-1.5506,-1.5622,-1.5791,-1.5493,-1.5411,-1.5411,-1.5411,-1.5296,-1.5181,-1.5181,-1.5181,-1.5181,-1.5181,-1.5181,-1.5181,-1.5181,-1.5181,-1.5181,-1.5181,-1.5181,-1.5181,-1.5181,-1.5316,-1.5411,-1.5411,-1.5547,-1.5696,-1.5839,-1.5988,-1.6083,-1.6083,-1.6083,-1.6083,-1.6083,-1.6083,-1.6083,-1.6083,-1.6083,-1.6083,-1.6083,-1.6083,-1.6083,-1.6083,-1.6083,-1.6083,-1.6083,-1.6083,-1.6083,-2.2292,-2.3521,-2.3998,-2.3346,-2.4104,-2.4121,-2.0342,-1.8968,-1.8106,-1.6845,-1.6291,-1.6621,-1.8276,-1.8513,-1.893,-2.0523,-2.1546,-2.2837,-2.4794,-2.5261,-2.5937,-2.7928,-2.8136,-2.7279,-2.4861,-2.2611,-2.0183,-1.7929,-1.569,-1.4299,-1.4299,-1.4299,-1.4299,-1.4299,-1.4299,-1.4367,-1.4509,-1.4665,-1.4869,-1.5126,-1.5472,-1.5642,-1.5649,-1.5947,-1.6083,-1.6083,-1.6083,-1.6083,-1.6083,-1.6083,-1.6083,-1.6083,-1.6083,-1.6083,-1.6083,-1.6083,-1.6083,-1.6083,-1.6083,-1.6049,-1.6015,-1.6015,-1.6015,-1.5981,-1.5784,-1.5859,-1.5954,-1.5655,-1.5567,-1.5547,-1.5438,-1.5296,-1.5181,-1.5181,-1.5181,-1.5181,-1.5181,-1.5181,-1.5181,-1.5181,-1.5181,-1.5181,-1.5181,-1.5269,-1.5343,-1.5343,-1.5472,-1.5608,-1.571,-1.5859,-1.5967,-1.6008,-1.6056,-1.6083,-1.6083,-1.6083,-1.6083,-1.6083,-1.6083,-1.6083,-1.6083,-1.6083,-1.6083,-1.6083,-1.6083,-1.6083,-1.6083,-1.6083,-1.6083,-1.6083,-1.6083,-1.6083,-2.311,-2.451,-2.503,-2.462,-2.5107,-2.47,-2.0116,-1.7976,-1.6495,-1.5456,-1.5124,-1.5416,-1.669,-1.6785,-1.6914,-1.8374,-1.9551,-2.0983,-2.2539,-2.3021,-2.3994,-2.6563,-2.6066,-2.485,-2.347,-2.1221,-1.8976,-1.6553,-1.5168,-1.4299,-1.4299,-1.4299,-1.4299,-1.4299,-1.4299,-1.4394,-1.4604,-1.4692,-1.4923,-1.5276,-1.552,-1.5669,-1.573,-1.5974,-1.6083,-1.6083,-1.6083,-1.6083,-1.6083,-1.6083,-1.6083,-1.6083,-1.6083,-1.6083,-1.6083,-1.6083,-1.6083,-1.6083,-1.6083,-1.6083,-1.6083,-1.6083,-1.6083,-1.6056,-1.59,-1.5961,-1.6035,-1.5791,-1.5723,-1.5703,-1.5608,-1.5479,-1.5337,-1.5208,-1.5228,-1.5255,-1.5194,-1.5228,-1.5255,-1.5194,-1.5181,-1.5201,-1.5262,-1.535,-1.5432,-1.5493,-1.5628,-1.5778,-1.5927,-1.6029,-1.6083,-1.6083,-1.6083,-1.6083,-1.6083,-1.6083,-1.6083,-1.6083,-1.6083,-1.6083,-1.6083,-1.6083,-1.6083,-1.6083,-1.6083,-1.6083,-1.6083,-1.6083,-1.6083,-1.6083,-1.6083,-1.6083,-2.3474,-2.4489,-2.5344,-2.6426,-2.5621,-2.3832,-2.0548,-1.6483,-1.3322,-1.3374,-1.3415,-1.3499,-1.3513,-1.4977,-1.6228,-1.6576,-1.8448,-2.016,-2.0547,-2.0746,-2.1739,-2.4166,-2.2439,-2.1048,-2.0875,-1.8976,-1.6896,-1.4476,-1.4299,-1.4299,-1.4299,-1.4299,-1.4299,-1.4299,-1.4312,-1.4455,-1.4733,-1.4753,-1.4984,-1.5432,-1.5574,-1.5723,-1.5879,-1.6015,-1.6083,-1.6083,-1.6083,-1.6083,-1.6083,-1.6083,-1.6083,-1.6083,-1.6083,-1.6083,-1.6083,-1.6083,-1.6083,-1.6083,-1.6083,-1.6083,-1.6083,-1.6083,-1.6083,-1.6056,-1.59,-1.5961,-1.6049,-1.59,-1.5852,-1.5852,-1.5852,-1.5744,-1.5567,-1.5289,-1.533,-1.5391,-1.5255,-1.5337,-1.5384,-1.5235,-1.5215,-1.5262,-1.5391,-1.5432,-1.5499,-1.5655,-1.5791,-1.5927,-1.6062,-1.6083,-1.6083,-1.6083,-1.6083,-1.6083,-1.6083,-1.6083,-1.6083,-1.6083,-1.6083,-1.6083,-1.6083,-1.6083,-1.6083,-1.6083,-1.6083,-1.6083,-1.6083,-1.6083,-1.6083,-1.6083,-1.6083,-1.6083,-2.155,-2.3394,-2.5197,-2.5678,-2.3393,-2.0804,-1.9974,-1.6391,-1.3873,-1.542,-1.5642,-1.5618,-1.5755,-1.4923,-1.4251,-1.4436,-1.5108,-1.6129,-1.8192,-1.8427,-1.9315,-2.1739,-2.1566,-2.0529,-1.8627,-1.8104,-1.6896,-1.4476,-1.4299,-1.4299,-1.4299,-1.4299,-1.4299,-1.4299,-1.4407,-1.4557,-1.474,-1.4862,-1.5147,-1.5588,-1.5622,-1.5778,-1.6035,-1.6069,-1.6083,-1.6083,-1.6083,-1.6083,-1.6083,-1.6083,-1.6083,-1.6083,-1.6083,-1.6083,-1.6083,-1.6083,-1.6083,-1.6083,-1.6083,-1.6083,-1.6083,-1.6083,-1.6083,-1.6056,-1.59,-1.5961,-1.6049,-1.59,-1.5852,-1.5852,-1.5852,-1.5744,-1.5622,-1.5554,-1.5567,-1.5581,-1.5547,-1.5567,-1.5547,-1.5391,-1.5459,-1.5513,-1.5425,-1.5601,-1.5811,-1.5961,-1.6015,-1.6042,-1.6076,-1.6083,-1.6083,-1.6083,-1.6083,-1.6083,-1.6083,-1.6083,-1.6083,-1.6083,-1.6083,-1.6083,-1.6083,-1.6083,-1.6083,-1.6083,-1.6083,-1.6083,-1.6083,-1.6083,-1.6083,-1.6083,-1.6083,-1.6083,-2.2258,-2.3915,-2.5251,-2.5959,-2.3034,-1.9876,-1.9755,-1.6425,-1.3728,-1.4863,-1.4959,-1.4952,-1.5119,-1.423,-1.3702,-1.3912,-1.4021,-1.4639,-1.6011,-1.621,-1.6896,-1.9324,-1.8627,-1.7938,-1.7763,-1.6721,-1.569,-1.4476,-1.4299,-1.4299,-1.4299,-1.4299,-1.4299,-1.4299,-1.4434,-1.4584,-1.474,-1.4896,-1.5194,-1.5642,-1.5642,-1.5798,-1.6083,-1.6083,-1.6083,-1.6083,-1.6083,-1.6083,-1.6083,-1.6083,-1.6083,-1.6083,-1.6083,-1.6083,-1.6083,-1.6083,-1.6083,-1.6083,-1.6083,-1.6083,-1.6083,-1.6083,-1.6083,-1.6069,-1.5988,-1.6015,-1.6069,-1.5988,-1.5961,-1.5961,-1.5961,-1.5906,-1.5852,-1.5852,-1.5798,-1.5723,-1.5655,-1.575,-1.5784,-1.556,-1.5642,-1.5716,-1.5635,-1.5811,-1.5988,-1.6069,-1.6083,-1.6083,-1.6083,-1.6083,-1.6083,-1.6083,-1.6083,-1.6083,-1.6083,-1.6083,-1.6083,-1.6083,-1.6083,-1.6083,-1.6083,-1.6083,-1.6083,-1.6083,-1.6083,-1.6083,-1.6083,-1.6083,-1.6083,-1.6083,-1.6083,-1.6083,-2.2913,-2.4315,-2.5224,-2.644,-2.3305,-1.9907,-1.9907,-1.65,-1.3403,-1.3403,-1.3403,-1.3451,-1.36,-1.3648,-1.3756,-1.4027,-1.4095,-1.4156,-1.4285,-1.4299,-1.4992,-1.6896,-1.5513,-1.4992,-1.7071,-1.5513,-1.4299,-1.4299,-1.4299,-1.4299,-1.4299,-1.4299,-1.4312,-1.4333,-1.4475,-1.4624,-1.478,-1.4957,-1.5248,-1.5642,-1.5689,-1.5845,-1.6083,-1.6083,-1.6083,-1.6083,-1.6083,-1.6083,-1.6083,-1.6083,-1.6083,-1.6083,-1.6083,-1.6083,-1.6083,-1.6083,-1.6083,-1.6083,-1.6083,-1.6083,-1.6083,-1.6083,-1.6083,-1.6083,-1.6083,-1.6083,-1.6083,-1.6083,-1.6083,-1.6083,-1.6083,-1.6083,-1.6083,-1.6083,-1.6001,-1.59,-1.5778,-1.5947,-1.6042,-1.5771,-1.5791,-1.5859,-1.5886,-1.5995,-1.6083,-1.6083,-1.6083,-1.6083,-1.6083,-1.6083,-1.6083,-1.6083,-1.6083,-1.6083,-1.6083,-1.6083,-1.6083,-1.6083,-1.6083,-1.6083,-1.6083,-1.6083,-1.6083,-1.6083,-1.6083,-1.6083,-1.6083,-1.6083,-1.6083,-1.6083,-1.6083,-1.6083,-1.9867,-2.2151,-2.4663,-2.6092,-2.3164,-1.9907,-1.9907,-1.65,-1.3403,-1.3403,-1.3403,-1.3451,-1.36,-1.3729,-1.3871,-1.4041,-1.4183,-1.4278,-1.4299,-1.4299,-1.4476,-1.4646,-1.4476,-1.4476,-1.4822,-1.4476,-1.4299,-1.4299,-1.4299,-1.4299,-1.4299,-1.4299,-1.4353,-1.4482,-1.4631,-1.478,-1.4936,-1.5215,-1.5452,-1.5642,-1.59,-1.6042,-1.6083,-1.6083,-1.6083,-1.6083,-1.6083,-1.6083,-1.6083,-1.6083,-1.6083,-1.6083,-1.6083,-1.6083,-1.6083,-1.6083,-1.6083,-1.6083,-1.6083,-1.6083,-1.6083,-1.6083,-1.6083,-1.6083,-1.6083,-1.6083,-1.6083,-1.6083,-1.6083,-1.6083,-1.6083,-1.6083,-1.6083,-1.6083,-1.6171,-1.6246,-1.6225,-1.6252,-1.6232,-1.6056,-1.5934,-1.5893,-1.6029,-1.6069,-1.6083,-1.6083,-1.6083,-1.6083,-1.6083,-1.6083,-1.6083,-1.6083,-1.6083,-1.6083,-1.6083,-1.6083,-1.6083,-1.6083,-1.6083,-1.6083,-1.6083,-1.6083,-1.6083,-1.6083,-1.6083,-1.6083,-1.6083,-1.6083,-1.6083,-1.6083,-1.6083,-1.6083,-1.8508,-2.1629,-2.4149,-2.3016,-2.1362,-1.9582,-1.8281,-1.5679,-1.3403,-1.3403,-1.3471,-1.3573,-1.3722,-1.3797,-1.3919,-1.4163,-1.4258,-1.4299,-1.4299,-1.4299,-1.4299,-1.4299,-1.4299,-1.4299,-1.4299,-1.4299,-1.4299,-1.4299,-1.4299,-1.4299,-1.4299,-1.4299,-1.4367,-1.4509,-1.4658,-1.4814,-1.497,-1.5262,-1.5527,-1.5764,-1.5974,-1.6083,-1.6083,-1.6083,-1.6083,-1.6083,-1.6083,-1.6083,-1.6083,-1.6083,-1.6083,-1.6083,-1.6083,-1.6083,-1.6083,-1.6083,-1.6083,-1.6083,-1.6083,-1.6083,-1.6083,-1.6083,-1.6083,-1.6083,-1.6083,-1.6083,-1.6083,-1.6083,-1.6083,-1.6083,-1.6083,-1.6083,-1.6103,-1.6191,-1.6259,-1.6354,-1.6524,-1.6558,-1.6537,-1.6469,-1.6266,-1.613,-1.6198,-1.6137,-1.6083,-1.6083,-1.6083,-1.6083,-1.6083,-1.6083,-1.6083,-1.6083,-1.6083,-1.6083,-1.6083,-1.6083,-1.6083,-1.6083,-1.6083,-1.6083,-1.6083,-1.6083,-1.6083,-1.6083,-1.6083,-1.6083,-1.6083,-1.6083,-1.6083,-1.6083,-1.6083,-1.6083,-1.7145,-1.9999,-2.1882,-2.0736,-1.9722,-1.857,-1.7593,-1.5358,-1.3403,-1.3403,-1.3519,-1.3675,-1.3817,-1.3871,-1.3987,-1.4258,-1.4299,-1.4299,-1.4299,-1.4299,-1.4299,-1.4299,-1.4299,-1.4299,-1.4299,-1.4299,-1.4299,-1.4299,-1.4299,-1.4299,-1.4299,-1.4299,-1.438,-1.4563,-1.4679,-1.4848,-1.5079,-1.5377,-1.5655,-1.5913,-1.6029,-1.6083,-1.6083,-1.6083,-1.6083,-1.6083,-1.6083,-1.6083,-1.6083,-1.6083,-1.6083,-1.6083,-1.6083,-1.6083,-1.6083,-1.6083,-1.6083,-1.6083,-1.6083,-1.6083,-1.6083,-1.6083,-1.6083,-1.6083,-1.6083,-1.6083,-1.6083,-1.6083,-1.6083,-1.6083,-1.6083,-1.611,-1.6171,-1.6286,-1.6368,-1.6483,-1.67,-1.6748,-1.6748,-1.6748,-1.6537,-1.6354,-1.632,-1.6218,-1.613,-1.609,-1.6083,-1.6083,-1.6083,-1.6083,-1.6083,-1.6083,-1.6083,-1.6083,-1.6083,-1.6083,-1.6083,-1.6083,-1.6083,-1.6083,-1.6083,-1.6083,-1.6083,-1.6083,-1.6083,-1.6083,-1.6083,-1.6083,-1.6083,-1.6083,-1.6083,-1.6083,-1.4719,-1.5508,-1.6646,-2.0816,-1.9088,-1.6782,-1.9121,-1.65,-1.3403,-1.3403,-1.3519,-1.3675,-1.3817,-1.396,-1.4109,-1.4272,-1.4299,-1.4299,-1.4299,-1.4299,-1.4299,-1.4299,-1.4299,-1.4299,-1.4299,-1.4299,-1.4299,-1.4299,-1.4299,-1.4299,-1.4299,-1.4299,-1.4434,-1.4719,-1.4733,-1.495,-1.5384,-1.5683,-1.5913,-1.6069,-1.6076,-1.6083,-1.6083,-1.6083,-1.6083,-1.6083,-1.6083,-1.6083,-1.6083,-1.6083,-1.6083,-1.6083,-1.6083,-1.6083,-1.6083,-1.6083,-1.6083,-1.6083,-1.6083,-1.6083,-1.6083,-1.6083,-1.6083,-1.6083,-1.6083,-1.6083,-1.6083,-1.6083,-1.6083,-1.6083,-1.6083,-1.6191,-1.63,-1.6307,-1.6524,-1.6727,-1.6748,-1.6748,-1.6748,-1.6748,-1.6619,-1.6469,-1.6334,-1.63,-1.6246,-1.6103,-1.6083,-1.6083,-1.6083,-1.6083,-1.6083,-1.6083,-1.6083,-1.6083,-1.6083,-1.6083,-1.6083,-1.6083,-1.6083,-1.6083,-1.6083,-1.6083,-1.6083,-1.6083,-1.6083,-1.6083,-1.6083,-1.6083,-1.6083,-1.6083,-1.6083,-1.6083,-1.2352,-1.4064,-1.5401,-1.5147,-1.5354,-1.5548,-1.5252,-1.4238,-1.3403,-1.3403,-1.3593,-1.3783,-1.3831,-1.3966,-1.4122,-1.4278,-1.4299,-1.4299,-1.4299,-1.4299,-1.4299,-1.4299,-1.4299,-1.4299,-1.4299,-1.4299,-1.4299,-1.4299,-1.4299,-1.4299,-1.4299,-1.4299,-1.4434,-1.4733,-1.4835,-1.5147,-1.5689,-1.5798,-1.5934,-1.6083,-1.6083,-1.6083,-1.6083,-1.6083,-1.6083,-1.6083,-1.6083,-1.6083,-1.6083,-1.6083,-1.6083,-1.6083,-1.6083,-1.6083,-1.6083,-1.6083,-1.6083,-1.6083,-1.6083,-1.6083,-1.6083,-1.6083,-1.6083,-1.6083,-1.6083,-1.6083,-1.6083,-1.6083,-1.6083,-1.6103,-1.6205,-1.6273,-1.6354,-1.6544,-1.6748,-1.6897,-1.6897,-1.6897,-1.6897,-1.6897,-1.6775,-1.6653,-1.6598,-1.6435,-1.6293,-1.6239,-1.6144,-1.6083,-1.6083,-1.6083,-1.6083,-1.6083,-1.6083,-1.6083,-1.6083,-1.6083,-1.6083,-1.6083,-1.6083,-1.6083,-1.6083,-1.6083,-1.6083,-1.6083,-1.6083,-1.6083,-1.6083,-1.6083,-1.6083,-1.6083,-1.6083,-1.6083,-1.0179,-1.1714,-1.3111,-1.2297,-1.2967,-1.3873,-1.3722,-1.3352,-1.3152,-1.3356,-1.3634,-1.3838,-1.3838,-1.4007,-1.4183,-1.4285,-1.4299,-1.4299,-1.4299,-1.4299,-1.4299,-1.4299,-1.4299,-1.4299,-1.4299,-1.4299,-1.4299,-1.4299,-1.4299,-1.4299,-1.4299,-1.4299,-1.4462,-1.4808,-1.5065,-1.5404,-1.5852,-1.5906,-1.5981,-1.6083,-1.6083,-1.6083,-1.6083,-1.6083,-1.6083,-1.6083,-1.6083,-1.6083,-1.6083,-1.6083,-1.6083,-1.6083,-1.6083,-1.6083,-1.6083,-1.6083,-1.6083,-1.6083,-1.6083,-1.6083,-1.6083,-1.6083,-1.6083,-1.6083,-1.6083,-1.6083,-1.6083,-1.6083,-1.6117,-1.6185,-1.6286,-1.6381,-1.6517,-1.6768,-1.6904,-1.6978,-1.6978,-1.6978,-1.6978,-1.6978,-1.6897,-1.6809,-1.6761,-1.6544,-1.6368,-1.632,-1.6178,-1.6083,-1.6083,-1.6083,-1.6083,-1.6083,-1.6083,-1.6083,-1.6083,-1.6083,-1.6083,-1.6083,-1.6083,-1.6083,-1.6083,-1.6083,-1.6083,-1.6083,-1.6083,-1.6083,-1.6083,-1.6083,-1.6083,-1.6083,-1.6083,-1.6083,0.0,0.0,0.0,-1.2798,-1.1985,-1.1425,-1.5242,-1.4205,-1.2644,-1.3247,-1.3607,-1.3817,-1.3838,-1.4089,-1.4292,-1.4299,-1.4299,-1.4299,-1.4299,-1.4299,-1.4299,-1.4299,-1.4306,-1.4306,-1.4299,-1.4306,-1.4306,-1.4299,-1.4299,-1.4299,-1.4299,-1.4306,-1.4516,-1.4964,-1.5404,-1.571,-1.5859,-1.6008,-1.6083,-1.6083,-1.6083,-1.6083,-1.6083,-1.6083,-1.6083,-1.6083,-1.6083,-1.6083,-1.6083,-1.6083,-1.6083,-1.6083,-1.6083,-1.6083,-1.6083,-1.6083,-1.6083,-1.6083,-1.6083,-1.6083,-1.6083,-1.6083,-1.6083,-1.6083,-1.6083,-1.6083,-1.6083,-1.609,-1.6198,-1.6313,-1.632,-1.6537,-1.6795,-1.6944,-1.6978,-1.6978,-1.6978,-1.6978,-1.6978,-1.6978,-1.6978,-1.6931,-1.6781,-1.6625,-1.6476,-1.6334,-1.6185,-1.6083,-1.6083,-1.6083,-1.6083,-1.6083,-1.6083,-1.6083,-1.6083,-1.6083,-1.6083,-1.6083,-1.6083,-1.6083,-1.6083,-1.6083,-1.6083,-1.6083,-1.6083,-1.6083,-1.6083,-1.6083,-1.6083,-1.6083,-1.6083,-1.6083,-0.8289,0.0,0.0,0.0,0.0,0.0,-1.1658,-1.179,-1.1898,-1.2603,-1.2901,-1.32,-1.3743,-1.4,-1.417,-1.4285,-1.4299,-1.4299,-1.4299,-1.4299,-1.4299,-1.4299,-1.4387,-1.4414,-1.4312,-1.4394,-1.4414,-1.4306,-1.4299,-1.4299,-1.4299,-1.4502,-1.4774,-1.5113,-1.5459,-1.5764,-1.6015,-1.6062,-1.6083,-1.6083,-1.6083,-1.6083,-1.6083,-1.6083,-1.6083,-1.6083,-1.6083,-1.6083,-1.6083,-1.6083,-1.6083,-1.6083,-1.6083,-1.6083,-1.6083,-1.6083,-1.6083,-1.6083,-1.6083,-1.6083,-1.6083,-1.6083,-1.6083,-1.6083,-1.6083,-1.6083,-1.6103,-1.6218,-1.6279,-1.6361,-1.6571,-1.6775,-1.6931,-1.6971,-1.6978,-1.6978,-1.6978,-1.6978,-1.6978,-1.6978,-1.6978,-1.6965,-1.6924,-1.6693,-1.651,-1.6469,-1.6246,-1.6083,-1.6083,-1.6083,-1.6083,-1.6083,-1.6083,-1.6083,-1.6083,-1.6083,-1.6083,-1.6083,-1.6083,-1.6083,-1.6083,-1.6083,-1.6083,-1.6083,-1.6083,-1.6083,-1.6083,-1.6083,-1.6083,-1.6083,-1.6083,-1.6083,-0.8513,-0.8669,-0.8927,-0.9055,0.0,0.0,-1.0799,-1.1267,-1.1782,-1.284,-1.318,-1.3403,-1.377,-1.4021,-1.4197,-1.4285,-1.4346,-1.4367,-1.4306,-1.4353,-1.4387,-1.4387,-1.4462,-1.4482,-1.4394,-1.4462,-1.4455,-1.4312,-1.4353,-1.436,-1.4306,-1.4577,-1.4875,-1.5174,-1.5479,-1.5778,-1.6076,-1.6083,-1.6083,-1.6083,-1.6083,-1.6083,-1.6083,-1.6083,-1.6083,-1.6083,-1.6083,-1.6083,-1.6083,-1.6083,-1.6083,-1.6083,-1.6083,-1.6083,-1.6083,-1.6083,-1.6083,-1.6083,-1.6083,-1.6083,-1.6083,-1.6083,-1.6083,-1.6083,-1.6083,-1.6123,-1.6198,-1.6286,-1.6395,-1.6544,-1.6781,-1.691,-1.6978,-1.6978,-1.6978,-1.6978,-1.6978,-1.6978,-1.6978,-1.6978,-1.6978,-1.6978,-1.6978,-1.6727,-1.6524,-1.6524,-1.6273,-1.6083,-1.6083,-1.6083,-1.6083,-1.6083,-1.6083,-1.6083,-1.6083,-1.6083,-1.6083,-1.6083,-1.6083,-1.6083,-1.6083,-1.6083,-1.6083,-1.6083,-1.6083,-1.6083,-1.6083,-1.6083,-1.6083,-1.6083,-1.6083,-1.6083,-0.8872,-0.8974,-0.9239,0.0,0.0,0.0,0.0,-1.1565,-1.1809,-1.3186,-1.3593,-1.3682,-1.3627,-1.3871,-1.4068,-1.4055,-1.4265,-1.4414,-1.4353,-1.4455,-1.4536,-1.4536,-1.455,-1.4557,-1.4536,-1.455,-1.4496,-1.4333,-1.4441,-1.4455,-1.4333,-1.4604,-1.4903,-1.5201,-1.5486,-1.5778,-1.6076,-1.6083,-1.6083,-1.6083,-1.6083,-1.6083,-1.6083,-1.6083,-1.6083,-1.6083,-1.6083,-1.6083,-1.6083,-1.6083,-1.6083,-1.6083,-1.6083,-1.6083,-1.6083,-1.6083,-1.6083,-1.6083,-1.6083,-1.6083,-1.6083,-1.6083,-1.6083,-1.6083,-1.6103,-1.6205,-1.632,-1.6347,-1.6558,-1.6809,-1.6944,-1.6978,-1.6978,-1.6978,-1.6978,-1.6978,-1.6978,-1.6978,-1.6978,-1.6978,-1.6978,-1.6978,-1.6978,-1.6727,-1.6524,-1.6524,-1.6273,-1.6083,-1.6083,-1.6083,-1.6083,-1.6083,-1.6083,-1.6083,-1.6083,-1.6083,-1.6083,-1.6083,-1.6083,-1.6083,-1.6083,-1.6083,-1.6083,-1.6083,-1.6083,-1.6083,-1.6083,-1.6083,-1.6083,-1.6083,-1.6083,-1.6083,0.0,0.0,0.0,0.0,0.0,0.0,0.0,-0.9869,-1.0358,-1.1009,-1.1267,-1.1545,-1.2121,-1.2474,-1.2644,-1.2522,-1.3329,-1.4129,-1.459,-1.4679,-1.4699,-1.4699,-1.4808,-1.4835,-1.4706,-1.4808,-1.4767,-1.4489,-1.4496,-1.4502,-1.4468,-1.476,-1.5059,-1.5357,-1.5547,-1.5778,-1.6076,-1.6083,-1.6083,-1.6083,-1.6083,-1.6083,-1.6083,-1.6083,-1.6083,-1.6083,-1.6083,-1.6083,-1.6083,-1.6083,-1.6083,-1.6083,-1.6083,-1.6083,-1.6083,-1.6083,-1.6083,-1.6083,-1.6083,-1.6083,-1.6083,-1.6083,-1.6083,-1.6103,-1.6225,-1.6286,-1.6361,-1.6598,-1.6795,-1.6944,-1.6971,-1.6978,-1.6978,-1.6978,-1.6978,-1.6978,-1.6978,-1.6978,-1.6978,-1.6978,-1.6978,-1.6978,-1.6978,-1.6727,-1.6524,-1.6524,-1.6273,-1.6083,-1.6083,-1.6083,-1.6083,-1.6083,-1.6083,-1.6083,-1.6083,-1.6083,-1.6083,-1.6083,-1.6083,-1.6083,-1.6083,-1.6083,-1.6083,-1.6083,-1.6083,-1.6083,-1.6083,-1.6083,-1.6083,-1.6083,-1.6083,-1.6083,0.0,0.0,0.0,-0.9415,0.0,0.0,0.0,0.0,-1.0324,-1.1294,-1.1321,-1.1328,-1.185,-1.2006,-1.2108,-1.2257,-1.3037,-1.3702,-1.3926,-1.4475,-1.4855,-1.4855,-1.4923,-1.4943,-1.4862,-1.4923,-1.4909,-1.4753,-1.4665,-1.4624,-1.4624,-1.4848,-1.5106,-1.5404,-1.556,-1.5778,-1.6076,-1.6083,-1.6083,-1.6083,-1.6083,-1.6083,-1.6083,-1.6083,-1.6083,-1.6083,-1.6083,-1.6083,-1.6083,-1.6083,-1.6083,-1.6083,-1.6083,-1.6083,-1.6083,-1.6083,-1.6083,-1.6083,-1.6083,-1.6083,-1.6083,-1.6083,-1.613,-1.6212,-1.6286,-1.6415,-1.6578,-1.6802,-1.6917,-1.6978,-1.6978,-1.6978,-1.6978,-1.6978,-1.6978,-1.6978,-1.6978,-1.6978,-1.6978,-1.6978,-1.6978,-1.6978,-1.6978,-1.6788,-1.6612,-1.653,-1.6334,-1.6171,-1.609,-1.6083,-1.6083,-1.6083,-1.6083,-1.6083,-1.6083,-1.6083,-1.6083,-1.6083,-1.6083,-1.6083,-1.6083,-1.6083,-1.6083,-1.6083,-1.6083,-1.6083,-1.6083,-1.6083,-1.6083,-1.6083,-1.6083,-1.6083,0.0,0.0,0.0,0.0,0.0,-0.9829,0.0,0.0,0.0,0.0,-1.1565,-1.1348,-1.1586,-1.1579,-1.1633,-1.1938,-1.2589,-1.2996,-1.2813,-1.3797,-1.457,-1.4658,-1.4848,-1.495,-1.4889,-1.4835,-1.4848,-1.4964,-1.4746,-1.4665,-1.478,-1.493,-1.5147,-1.5445,-1.5574,-1.5778,-1.6076,-1.6083,-1.6083,-1.6083,-1.6083,-1.6083,-1.6083,-1.6083,-1.6083,-1.6083,-1.6083,-1.6083,-1.6083,-1.6083,-1.6083,-1.6083,-1.6083,-1.6083,-1.6083,-1.6083,-1.6083,-1.6083,-1.6083,-1.6103,-1.6123,-1.6123,-1.6246,-1.6395,-1.6395,-1.6578,-1.6822,-1.6944,-1.6978,-1.6978,-1.6978,-1.6978,-1.6978,-1.6978,-1.6978,-1.6978,-1.6978,-1.6978,-1.6978,-1.6978,-1.6978,-1.6978,-1.6978,-1.6849,-1.6707,-1.6585,-1.6442,-1.6307,-1.6185,-1.6144,-1.6123,-1.6123,-1.6096,-1.6083,-1.6083,-1.6083,-1.6083,-1.6083,-1.6083,-1.6083,-1.6083,-1.6083,-1.6083,-1.6083,-1.6083,-1.6083,-1.6083,-1.6083,-1.6083,-1.6083,-1.6083,-1.6083,0.0,0.0,0.0,0.0,-1.0107,0.0,0.0,0.0,-0.9849,-0.9754,0.0,0.0,0.0,0.0,0.0,-1.0161,-1.1077,-1.1721,-1.143,-1.2311,-1.3132,-1.3532,-1.4401,-1.4862,-1.459,-1.4326,-1.4394,-1.493,-1.4462,-1.438,-1.4916,-1.5079,-1.5296,-1.5601,-1.5628,-1.5778,-1.6076,-1.6083,-1.6083,-1.6083,-1.6083,-1.6083,-1.6083,-1.6083,-1.6083,-1.6083,-1.6083,-1.6083,-1.6083,-1.6083,-1.6083,-1.6083,-1.6083,-1.6083,-1.6083,-1.6083,-1.6083,-1.6083,-1.6083,-1.6171,-1.6286,-1.6286,-1.6469,-1.67,-1.67,-1.6822,-1.6958,-1.6978,-1.6978,-1.6978,-1.6978,-1.6978,-1.6978,-1.6978,-1.6978,-1.6978,-1.6978,-1.6978,-1.6978,-1.6978,-1.6978,-1.6978,-1.6978,-1.6849,-1.6741,-1.6727,-1.6386,-1.6279,-1.6266,-1.6152,-1.6078,-1.6286,-1.6164,-1.6083,-1.6083,-1.6083,-1.6083,-1.6083,-1.6083,-1.6083,-1.6083,-1.6083,-1.6083,-1.6083,-1.6083,-1.6083,-1.6083,-1.6083,-1.6083,-1.6083,-1.6083,-1.6083,0.0,0.0,0.0,0.0,0.0,0.0,-0.9625,0.0,-0.9496,0.0,0.0,0.0,0.0,0.0,0.0,0.0,-1.0595,-1.0995,-1.069,0.0,-1.261,-1.2969,-1.3478,-1.3885,-1.4102,-1.4095,-1.4319,-1.4923,-1.4496,-1.4462,-1.5065,-1.5153,-1.5323,-1.5628,-1.5642,-1.5778,-1.6076,-1.6083,-1.6083,-1.6083,-1.6083,-1.6083,-1.6083,-1.6083,-1.6083,-1.6083,-1.6083,-1.6083,-1.6083,-1.6083,-1.6083,-1.6083,-1.6083,-1.6083,-1.6083,-1.6083,-1.6137,-1.6212,-1.6212,-1.6307,-1.6449,-1.6537,-1.6653,-1.6768,-1.6856,-1.6931,-1.6978,-1.6978,-1.6978,-1.6978,-1.6978,-1.6978,-1.6978,-1.6978,-1.6978,-1.6978,-1.6978,-1.6978,-1.6978,-1.6978,-1.6978,-1.6978,-1.6978,-1.6931,-1.6849,-1.6761,-1.6693,-1.6646,-1.6406,-1.6503,-1.6456,-1.6517,-1.6341,-1.6212,-1.6212,-1.613,-1.6083,-1.6083,-1.6083,-1.6123,-1.6212,-1.6212,-1.6171,-1.6083,-1.6171,-1.6171,-1.6083,-1.6083,-1.6083,-1.6083,-1.6083,-1.6083,-1.0995,0.0,0.0,0.0,0.0,0.0,0.0,0.0,0.0,0.0,0.0,0.0,0.0,0.0,0.0,-1.0005,0.0,-1.046,0.0,-1.1097,0.0,0.0,0.0,0.0,-1.36,-1.3648,-1.396,-1.4726,-1.4333,-1.438,-1.514,-1.5181,-1.5303,-1.5567,-1.5615,-1.5764,-1.6015,-1.6062,-1.6083,-1.6083,-1.6083,-1.6083,-1.6083,-1.6083,-1.6083,-1.6083,-1.6083,-1.6083,-1.6083,-1.6083,-1.6083,-1.6083,-1.6083,-1.6083,-1.609,-1.613,-1.6239,-1.6368,-1.6368,-1.6463,-1.6612,-1.6761,-1.6815,-1.6836,-1.6944,-1.6978,-1.6978,-1.6978,-1.6978,-1.6978,-1.6978,-1.6978,-1.6978,-1.6978,-1.6978,-1.6978,-1.6978,-1.6978,-1.6978,-1.6978,-1.6978,-1.6978,-1.6978,-1.6978,-1.6944,-1.6829,-1.6815,-1.7016,-1.6761,-1.6659,-1.6619,-1.6693,-1.6463,-1.6307,-1.6307,-1.6171,-1.6096,-1.6144,-1.6178,-1.6232,-1.6307,-1.6347,-1.6279,-1.6083,-1.6232,-1.6232,-1.6083,-1.6083,-1.6083,-1.6083,-1.6083,-1.6083,-1.1864,-1.1911,-1.1864,-1.0236,-1.0161,-1.0263,0.0,0.0,-0.9985,0.0,0.0,0.0,0.0,0.0,0.0,0.0,0.0,0.0,0.0,0.0,0.0,0.0,0.0,0.0,0.0,-1.2807,-1.3044,-1.4231,-1.377,-1.3939,-1.512,-1.5181,-1.5255,-1.5411,-1.556,-1.571,-1.5859,-1.6008,-1.6083,-1.6083,-1.6083,-1.6083,-1.6083,-1.6083,-1.6083,-1.6083,-1.6083,-1.6083,-1.6083,-1.6083,-1.6083,-1.6083,-1.6083,-1.6083,-1.6096,-1.6246,-1.6395,-1.6517,-1.6517,-1.6612,-1.6768,-1.6924,-1.6971,-1.6971,-1.6978,-1.6978,-1.6978,-1.6978,-1.6978,-1.6978,-1.6978,-1.6978,-1.6978,-1.6978,-1.6978,-1.6978,-1.6978,-1.6978,-1.6978,-1.6978,-1.6978,-1.6978,-1.6978,-1.6978,-1.6978,-1.6971,-1.6971,-1.6971,-1.6971,-1.6836,-1.6748,-1.6748,-1.6483,-1.6307,-1.6307,-1.6171,-1.6144,-1.6293,-1.6429,-1.6449,-1.6313,-1.6442,-1.6381,-1.609,-1.6232,-1.6232,-1.6083,-1.6083,-1.6083,-1.6083,-1.6083,-1.6083,-1.2298,-1.2603,-1.2678,-1.1226,-1.1118,-1.1063,-0.9869,-0.991,0.0,0.0,0.0,0.0,0.0,0.0,0.0,0.0,0.0,0.0,0.0,0.0,0.0,0.0,0.0,0.0,0.0,0.0,-1.3281,-1.4089,-1.4055,-1.434,-1.514,-1.5181,-1.5255,-1.5404,-1.556,-1.571,-1.5852,-1.6001,-1.6083,-1.6083,-1.6083,-1.6083,-1.6083,-1.6083,-1.6083,-1.6083,-1.6083,-1.6083,-1.6083,-1.6083,-1.6144,-1.6232,-1.6232,-1.6354,-1.651,-1.6361,-1.6402,-1.6551,-1.6754,-1.6856,-1.691,-1.6965,-1.6978,-1.6978,-1.6978,-1.6978,-1.6978,-1.6978,-1.6978,-1.6978,-1.6978,-1.6978,-1.6978,-1.6978,-1.6978,-1.6978,-1.6978,-1.6978,-1.6978,-1.6978,-1.6978,-1.6978,-1.6978,-1.6978,-1.6978,-1.6978,-1.6978,-1.6978,-1.6978,-1.6937,-1.6904,-1.6904,-1.672,-1.6598,-1.6598,-1.6463,-1.6435,-1.6592,-1.6463,-1.6449,-1.6592,-1.6463,-1.6334,-1.6232,-1.6286,-1.6232,-1.6083,-1.6083,-1.6083,-1.6083,-1.6083,-1.6083,-1.2881,-1.3146,-1.3186,-1.1938,-1.1816,-1.1667,-1.0426,-1.046,-1.067,0.0,0.0,0.0,0.0,0.0,-1.0337,0.0,0.0,0.0,0.0,-1.0209,0.0,0.0,0.0,0.0,0.0,0.0,0.0,-1.4075,-1.3994,-1.4272,-1.5133,-1.5181,-1.5228,-1.5323,-1.5533,-1.5683,-1.5778,-1.5981,-1.6083,-1.6083,-1.6083,-1.6083,-1.6083,-1.6083,-1.6083,-1.6083,-1.6083,-1.6083,-1.6083,-1.6137,-1.6218,-1.6313,-1.6368,-1.6503,-1.6653,-1.6517,-1.6558,-1.6714,-1.691,-1.6978,-1.6978,-1.6978,-1.6978,-1.6978,-1.6978,-1.6978,-1.6971,-1.691,-1.6937,-1.6971,-1.691,-1.6937,-1.6978,-1.6978,-1.6978,-1.6978,-1.6978,-1.6978,-1.6978,-1.6978,-1.6978,-1.6978,-1.6978,-1.6978,-1.6978,-1.6978,-1.6978,-1.6978,-1.6978,-1.6978,-1.6978,-1.6978,-1.6842,-1.6727,-1.6673,-1.6578,-1.6585,-1.6741,-1.6625,-1.6612,-1.6748,-1.6564,-1.6442,-1.6388,-1.6334,-1.6259,-1.6164,-1.611,-1.6083,-1.6083,-1.6083,-1.6083]}]]